<?xml version="1.0" encoding="UTF-8" standalone="no" ?>
<gpx xmlns="http://www.topografix.com/GPX/1/1" xmlns:xsi="http://www.w3.org/2001/XMLSchema-instance" xsi:schemaLocation="http://www.topografix.com/GPX/1/1 http://www.topografix.com/GPX/1/1/gpx.xsd" version="1.1" creator="VisuGPX - https://www.visugpx.com">
  <metadata>
    <name>col d'oncet</name>
    <desc><![CDATA[[img]https://lh3.googleusercontent.com/-j2gwewvzq0I/UwD_YuZysLI/AAAAAAAAPSw/zzUvJWlI_tI/w958-h719-no/DSCN6351.JPG[/img]

[url]https://picasaweb.google.com/105108571230570121986/ColDOncet#[/url]

]]></desc>
  </metadata>
  <trk>
    <name><![CDATA[col d oncet]]></name>
    <trkseg>
      <trkpt lat="42.90555" lon="0.10349">
        <ele>1501</ele>
        <time>2014-02-16T08:24:34Z</time>
      </trkpt>
      <trkpt lat="42.90555" lon="0.10349">
        <ele>1501</ele>
        <time>2014-02-16T08:24:35Z</time>
      </trkpt>
      <trkpt lat="42.90555" lon="0.10346">
        <ele>1502</ele>
        <time>2014-02-16T08:24:55Z</time>
      </trkpt>
      <trkpt lat="42.90555" lon="0.10345">
        <ele>1501</ele>
        <time>2014-02-16T08:25:17Z</time>
      </trkpt>
      <trkpt lat="42.90555" lon="0.10346">
        <ele>1502</ele>
        <time>2014-02-16T08:25:48Z</time>
      </trkpt>
      <trkpt lat="42.90555" lon="0.10348">
        <ele>1502</ele>
        <time>2014-02-16T08:25:59Z</time>
      </trkpt>
      <trkpt lat="42.90555" lon="0.1035">
        <ele>1502</ele>
        <time>2014-02-16T08:26:17Z</time>
      </trkpt>
      <trkpt lat="42.90553" lon="0.10349">
        <ele>1501</ele>
        <time>2014-02-16T08:26:29Z</time>
      </trkpt>
      <trkpt lat="42.90555" lon="0.10349">
        <ele>1501</ele>
        <time>2014-02-16T08:26:42Z</time>
      </trkpt>
      <trkpt lat="42.90556" lon="0.10347">
        <ele>1502</ele>
        <time>2014-02-16T08:26:53Z</time>
      </trkpt>
      <trkpt lat="42.90556" lon="0.10347">
        <ele>1502</ele>
        <time>2014-02-16T08:26:54Z</time>
      </trkpt>
      <trkpt lat="42.90556" lon="0.10345">
        <ele>1502</ele>
        <time>2014-02-16T08:27:10Z</time>
      </trkpt>
      <trkpt lat="42.90555" lon="0.10347">
        <ele>1501</ele>
        <time>2014-02-16T08:27:23Z</time>
      </trkpt>
      <trkpt lat="42.90557" lon="0.10349">
        <ele>1502</ele>
        <time>2014-02-16T08:27:44Z</time>
      </trkpt>
      <trkpt lat="42.90557" lon="0.1035">
        <ele>1502</ele>
        <time>2014-02-16T08:27:46Z</time>
      </trkpt>
      <trkpt lat="42.90555" lon="0.10371">
        <ele>1504</ele>
        <time>2014-02-16T08:28:01Z</time>
      </trkpt>
      <trkpt lat="42.90549" lon="0.10396">
        <ele>1506</ele>
        <time>2014-02-16T08:28:18Z</time>
      </trkpt>
      <trkpt lat="42.90545" lon="0.10405">
        <ele>1506</ele>
        <time>2014-02-16T08:28:27Z</time>
      </trkpt>
      <trkpt lat="42.90532" lon="0.10427">
        <ele>1507</ele>
        <time>2014-02-16T08:28:42Z</time>
      </trkpt>
      <trkpt lat="42.90524" lon="0.10453">
        <ele>1509</ele>
        <time>2014-02-16T08:28:59Z</time>
      </trkpt>
      <trkpt lat="42.90527" lon="0.10461">
        <ele>1510</ele>
        <time>2014-02-16T08:29:13Z</time>
      </trkpt>
      <trkpt lat="42.90536" lon="0.10452">
        <ele>1511</ele>
        <time>2014-02-16T08:29:23Z</time>
      </trkpt>
      <trkpt lat="42.90545" lon="0.10443">
        <ele>1512</ele>
        <time>2014-02-16T08:29:36Z</time>
      </trkpt>
      <trkpt lat="42.9055" lon="0.10441">
        <ele>1513</ele>
        <time>2014-02-16T08:29:48Z</time>
      </trkpt>
      <trkpt lat="42.90549" lon="0.10442">
        <ele>1513</ele>
        <time>2014-02-16T08:30:01Z</time>
      </trkpt>
      <trkpt lat="42.90542" lon="0.10454">
        <ele>1511</ele>
        <time>2014-02-16T08:30:07Z</time>
      </trkpt>
      <trkpt lat="42.9054" lon="0.10455">
        <ele>1512</ele>
        <time>2014-02-16T08:30:08Z</time>
      </trkpt>
      <trkpt lat="42.90539" lon="0.10457">
        <ele>1512</ele>
        <time>2014-02-16T08:30:09Z</time>
      </trkpt>
      <trkpt lat="42.90537" lon="0.10458">
        <ele>1512</ele>
        <time>2014-02-16T08:30:10Z</time>
      </trkpt>
      <trkpt lat="42.90536" lon="0.1046">
        <ele>1512</ele>
        <time>2014-02-16T08:30:11Z</time>
      </trkpt>
      <trkpt lat="42.90531" lon="0.10462">
        <ele>1511</ele>
        <time>2014-02-16T08:30:18Z</time>
      </trkpt>
      <trkpt lat="42.9053" lon="0.10462">
        <ele>1511</ele>
        <time>2014-02-16T08:30:19Z</time>
      </trkpt>
      <trkpt lat="42.90529" lon="0.10461">
        <ele>1510</ele>
        <time>2014-02-16T08:30:20Z</time>
      </trkpt>
      <trkpt lat="42.90527" lon="0.1046">
        <ele>1510</ele>
        <time>2014-02-16T08:30:21Z</time>
      </trkpt>
      <trkpt lat="42.90526" lon="0.1046">
        <ele>1510</ele>
        <time>2014-02-16T08:30:22Z</time>
      </trkpt>
      <trkpt lat="42.90524" lon="0.10459">
        <ele>1509</ele>
        <time>2014-02-16T08:30:23Z</time>
      </trkpt>
      <trkpt lat="42.90524" lon="0.10457">
        <ele>1509</ele>
        <time>2014-02-16T08:30:24Z</time>
      </trkpt>
      <trkpt lat="42.90523" lon="0.10455">
        <ele>1510</ele>
        <time>2014-02-16T08:30:25Z</time>
      </trkpt>
      <trkpt lat="42.90522" lon="0.10453">
        <ele>1509</ele>
        <time>2014-02-16T08:30:26Z</time>
      </trkpt>
      <trkpt lat="42.90522" lon="0.10451">
        <ele>1509</ele>
        <time>2014-02-16T08:30:27Z</time>
      </trkpt>
      <trkpt lat="42.90522" lon="0.10448">
        <ele>1509</ele>
        <time>2014-02-16T08:30:28Z</time>
      </trkpt>
      <trkpt lat="42.90523" lon="0.10445">
        <ele>1509</ele>
        <time>2014-02-16T08:30:29Z</time>
      </trkpt>
      <trkpt lat="42.90535" lon="0.10417">
        <ele>1507</ele>
        <time>2014-02-16T08:30:41Z</time>
      </trkpt>
      <trkpt lat="42.90543" lon="0.10394">
        <ele>1506</ele>
        <time>2014-02-16T08:30:53Z</time>
      </trkpt>
      <trkpt lat="42.90543" lon="0.10393">
        <ele>1506</ele>
        <time>2014-02-16T08:30:54Z</time>
      </trkpt>
      <trkpt lat="42.90543" lon="0.10391">
        <ele>1506</ele>
        <time>2014-02-16T08:30:55Z</time>
      </trkpt>
      <trkpt lat="42.90544" lon="0.10389">
        <ele>1506</ele>
        <time>2014-02-16T08:30:56Z</time>
      </trkpt>
      <trkpt lat="42.9055" lon="0.10357">
        <ele>1503</ele>
        <time>2014-02-16T08:31:10Z</time>
      </trkpt>
      <trkpt lat="42.90552" lon="0.10349">
        <ele>1501</ele>
        <time>2014-02-16T08:31:21Z</time>
      </trkpt>
      <trkpt lat="42.90553" lon="0.10348">
        <ele>1503</ele>
        <time>2014-02-16T08:31:30Z</time>
      </trkpt>
      <trkpt lat="42.90555" lon="0.10346">
        <ele>1502</ele>
        <time>2014-02-16T08:31:42Z</time>
      </trkpt>
      <trkpt lat="42.90555" lon="0.10348">
        <ele>1502</ele>
        <time>2014-02-16T08:31:43Z</time>
      </trkpt>
      <trkpt lat="42.90549" lon="0.10378">
        <ele>1504</ele>
        <time>2014-02-16T08:31:57Z</time>
      </trkpt>
      <trkpt lat="42.90536" lon="0.10412">
        <ele>1506</ele>
        <time>2014-02-16T08:32:12Z</time>
      </trkpt>
      <trkpt lat="42.90524" lon="0.10446">
        <ele>1508</ele>
        <time>2014-02-16T08:32:28Z</time>
      </trkpt>
      <trkpt lat="42.9053" lon="0.10461">
        <ele>1510</ele>
        <time>2014-02-16T08:32:38Z</time>
      </trkpt>
      <trkpt lat="42.90531" lon="0.10463">
        <ele>1510</ele>
        <time>2014-02-16T08:32:40Z</time>
      </trkpt>
      <trkpt lat="42.90535" lon="0.10463">
        <ele>1510</ele>
        <time>2014-02-16T08:32:43Z</time>
      </trkpt>
      <trkpt lat="42.90536" lon="0.10462">
        <ele>1511</ele>
        <time>2014-02-16T08:32:44Z</time>
      </trkpt>
      <trkpt lat="42.90537" lon="0.10461">
        <ele>1510</ele>
        <time>2014-02-16T08:32:45Z</time>
      </trkpt>
      <trkpt lat="42.90539" lon="0.1046">
        <ele>1510</ele>
        <time>2014-02-16T08:32:46Z</time>
      </trkpt>
      <trkpt lat="42.9054" lon="0.1046">
        <ele>1511</ele>
        <time>2014-02-16T08:32:47Z</time>
      </trkpt>
      <trkpt lat="42.90541" lon="0.10459">
        <ele>1511</ele>
        <time>2014-02-16T08:32:48Z</time>
      </trkpt>
      <trkpt lat="42.90542" lon="0.10458">
        <ele>1510</ele>
        <time>2014-02-16T08:32:49Z</time>
      </trkpt>
      <trkpt lat="42.90543" lon="0.10456">
        <ele>1511</ele>
        <time>2014-02-16T08:32:50Z</time>
      </trkpt>
      <trkpt lat="42.90545" lon="0.10456">
        <ele>1511</ele>
        <time>2014-02-16T08:32:51Z</time>
      </trkpt>
      <trkpt lat="42.90544" lon="0.10459">
        <ele>1511</ele>
        <time>2014-02-16T08:32:55Z</time>
      </trkpt>
      <trkpt lat="42.90544" lon="0.1046">
        <ele>1511</ele>
        <time>2014-02-16T08:32:56Z</time>
      </trkpt>
      <trkpt lat="42.90544" lon="0.10462">
        <ele>1512</ele>
        <time>2014-02-16T08:32:57Z</time>
      </trkpt>
      <trkpt lat="42.90544" lon="0.10464">
        <ele>1511</ele>
        <time>2014-02-16T08:32:58Z</time>
      </trkpt>
      <trkpt lat="42.90543" lon="0.10465">
        <ele>1511</ele>
        <time>2014-02-16T08:32:59Z</time>
      </trkpt>
      <trkpt lat="42.90534" lon="0.10478">
        <ele>1512</ele>
        <time>2014-02-16T08:33:12Z</time>
      </trkpt>
      <trkpt lat="42.90531" lon="0.10481">
        <ele>1513</ele>
        <time>2014-02-16T08:33:22Z</time>
      </trkpt>
      <trkpt lat="42.9053" lon="0.10489">
        <ele>1515</ele>
        <time>2014-02-16T08:33:32Z</time>
      </trkpt>
      <trkpt lat="42.90535" lon="0.10492">
        <ele>1517</ele>
        <time>2014-02-16T08:33:45Z</time>
      </trkpt>
      <trkpt lat="42.90537" lon="0.10493">
        <ele>1518</ele>
        <time>2014-02-16T08:34:06Z</time>
      </trkpt>
      <trkpt lat="42.90533" lon="0.1049">
        <ele>1517</ele>
        <time>2014-02-16T08:34:29Z</time>
      </trkpt>
      <trkpt lat="42.90534" lon="0.10492">
        <ele>1517</ele>
        <time>2014-02-16T08:34:47Z</time>
      </trkpt>
      <trkpt lat="42.90532" lon="0.10488">
        <ele>1517</ele>
        <time>2014-02-16T08:35:05Z</time>
      </trkpt>
      <trkpt lat="42.90533" lon="0.10487">
        <ele>1517</ele>
        <time>2014-02-16T08:35:26Z</time>
      </trkpt>
      <trkpt lat="42.90533" lon="0.10489">
        <ele>1517</ele>
        <time>2014-02-16T08:35:47Z</time>
      </trkpt>
      <trkpt lat="42.90535" lon="0.10491">
        <ele>1518</ele>
        <time>2014-02-16T08:35:59Z</time>
      </trkpt>
      <trkpt lat="42.90536" lon="0.10491">
        <ele>1519</ele>
        <time>2014-02-16T08:36:08Z</time>
      </trkpt>
      <trkpt lat="42.90543" lon="0.10493">
        <ele>1521</ele>
        <time>2014-02-16T08:36:19Z</time>
      </trkpt>
      <trkpt lat="42.90542" lon="0.10493">
        <ele>1521</ele>
        <time>2014-02-16T08:36:35Z</time>
      </trkpt>
      <trkpt lat="42.90541" lon="0.10495">
        <ele>1521</ele>
        <time>2014-02-16T08:36:47Z</time>
      </trkpt>
      <trkpt lat="42.90543" lon="0.10492">
        <ele>1521</ele>
        <time>2014-02-16T08:37:01Z</time>
      </trkpt>
      <trkpt lat="42.90543" lon="0.10494">
        <ele>1521</ele>
        <time>2014-02-16T08:37:27Z</time>
      </trkpt>
      <trkpt lat="42.90545" lon="0.10495">
        <ele>1521</ele>
        <time>2014-02-16T08:37:46Z</time>
      </trkpt>
      <trkpt lat="42.90544" lon="0.10496">
        <ele>1521</ele>
        <time>2014-02-16T08:38:08Z</time>
      </trkpt>
      <trkpt lat="42.90543" lon="0.10496">
        <ele>1521</ele>
        <time>2014-02-16T08:38:30Z</time>
      </trkpt>
      <trkpt lat="42.90546" lon="0.10495">
        <ele>1521</ele>
        <time>2014-02-16T08:38:51Z</time>
      </trkpt>
      <trkpt lat="42.90543" lon="0.10496">
        <ele>1521</ele>
        <time>2014-02-16T08:39:09Z</time>
      </trkpt>
      <trkpt lat="42.90552" lon="0.10497">
        <ele>1523</ele>
        <time>2014-02-16T08:39:22Z</time>
      </trkpt>
      <trkpt lat="42.90554" lon="0.10499">
        <ele>1525</ele>
        <time>2014-02-16T08:39:25Z</time>
      </trkpt>
      <trkpt lat="42.90561" lon="0.105">
        <ele>1527</ele>
        <time>2014-02-16T08:39:37Z</time>
      </trkpt>
      <trkpt lat="42.9057" lon="0.10502">
        <ele>1530</ele>
        <time>2014-02-16T08:39:49Z</time>
      </trkpt>
      <trkpt lat="42.90578" lon="0.10507">
        <ele>1533</ele>
        <time>2014-02-16T08:40:02Z</time>
      </trkpt>
      <trkpt lat="42.90586" lon="0.10514">
        <ele>1536</ele>
        <time>2014-02-16T08:40:14Z</time>
      </trkpt>
      <trkpt lat="42.9059" lon="0.10523">
        <ele>1539</ele>
        <time>2014-02-16T08:40:25Z</time>
      </trkpt>
      <trkpt lat="42.90596" lon="0.10529">
        <ele>1541</ele>
        <time>2014-02-16T08:40:37Z</time>
      </trkpt>
      <trkpt lat="42.90599" lon="0.10537">
        <ele>1544</ele>
        <time>2014-02-16T08:40:49Z</time>
      </trkpt>
      <trkpt lat="42.90601" lon="0.1054">
        <ele>1545</ele>
        <time>2014-02-16T08:40:55Z</time>
      </trkpt>
      <trkpt lat="42.90603" lon="0.10546">
        <ele>1547</ele>
        <time>2014-02-16T08:41:02Z</time>
      </trkpt>
      <trkpt lat="42.90604" lon="0.1055">
        <ele>1548</ele>
        <time>2014-02-16T08:41:07Z</time>
      </trkpt>
      <trkpt lat="42.9061" lon="0.10561">
        <ele>1552</ele>
        <time>2014-02-16T08:41:21Z</time>
      </trkpt>
      <trkpt lat="42.9061" lon="0.10561">
        <ele>1551</ele>
        <time>2014-02-16T08:41:22Z</time>
      </trkpt>
      <trkpt lat="42.90614" lon="0.10575">
        <ele>1555</ele>
        <time>2014-02-16T08:41:35Z</time>
      </trkpt>
      <trkpt lat="42.90616" lon="0.10598">
        <ele>1556</ele>
        <time>2014-02-16T08:41:50Z</time>
      </trkpt>
      <trkpt lat="42.90615" lon="0.10621">
        <ele>1558</ele>
        <time>2014-02-16T08:42:05Z</time>
      </trkpt>
      <trkpt lat="42.9062" lon="0.10644">
        <ele>1559</ele>
        <time>2014-02-16T08:42:21Z</time>
      </trkpt>
      <trkpt lat="42.90623" lon="0.10659">
        <ele>1560</ele>
        <time>2014-02-16T08:42:32Z</time>
      </trkpt>
      <trkpt lat="42.90628" lon="0.10681">
        <ele>1563</ele>
        <time>2014-02-16T08:42:48Z</time>
      </trkpt>
      <trkpt lat="42.90629" lon="0.10692">
        <ele>1563</ele>
        <time>2014-02-16T08:42:56Z</time>
      </trkpt>
      <trkpt lat="42.90633" lon="0.10716">
        <ele>1565</ele>
        <time>2014-02-16T08:43:13Z</time>
      </trkpt>
      <trkpt lat="42.90633" lon="0.10738">
        <ele>1567</ele>
        <time>2014-02-16T08:43:27Z</time>
      </trkpt>
      <trkpt lat="42.90633" lon="0.10763">
        <ele>1569</ele>
        <time>2014-02-16T08:43:43Z</time>
      </trkpt>
      <trkpt lat="42.90632" lon="0.10786">
        <ele>1570</ele>
        <time>2014-02-16T08:43:59Z</time>
      </trkpt>
      <trkpt lat="42.90633" lon="0.10811">
        <ele>1572</ele>
        <time>2014-02-16T08:44:16Z</time>
      </trkpt>
      <trkpt lat="42.90638" lon="0.10835">
        <ele>1574</ele>
        <time>2014-02-16T08:44:33Z</time>
      </trkpt>
      <trkpt lat="42.9064" lon="0.10851">
        <ele>1575</ele>
        <time>2014-02-16T08:44:45Z</time>
      </trkpt>
      <trkpt lat="42.90641" lon="0.10874">
        <ele>1577</ele>
        <time>2014-02-16T08:45:00Z</time>
      </trkpt>
      <trkpt lat="42.90645" lon="0.10893">
        <ele>1578</ele>
        <time>2014-02-16T08:45:13Z</time>
      </trkpt>
      <trkpt lat="42.90647" lon="0.10915">
        <ele>1580</ele>
        <time>2014-02-16T08:45:29Z</time>
      </trkpt>
      <trkpt lat="42.90651" lon="0.10941">
        <ele>1582</ele>
        <time>2014-02-16T08:45:47Z</time>
      </trkpt>
      <trkpt lat="42.90656" lon="0.10964">
        <ele>1584</ele>
        <time>2014-02-16T08:46:02Z</time>
      </trkpt>
      <trkpt lat="42.90661" lon="0.10985">
        <ele>1585</ele>
        <time>2014-02-16T08:46:17Z</time>
      </trkpt>
      <trkpt lat="42.90668" lon="0.11006">
        <ele>1587</ele>
        <time>2014-02-16T08:46:34Z</time>
      </trkpt>
      <trkpt lat="42.90674" lon="0.11028">
        <ele>1588</ele>
        <time>2014-02-16T08:46:48Z</time>
      </trkpt>
      <trkpt lat="42.90682" lon="0.1105">
        <ele>1591</ele>
        <time>2014-02-16T08:47:05Z</time>
      </trkpt>
      <trkpt lat="42.90688" lon="0.11071">
        <ele>1594</ele>
        <time>2014-02-16T08:47:21Z</time>
      </trkpt>
      <trkpt lat="42.90693" lon="0.11097">
        <ele>1594</ele>
        <time>2014-02-16T08:47:37Z</time>
      </trkpt>
      <trkpt lat="42.90699" lon="0.11122">
        <ele>1595</ele>
        <time>2014-02-16T08:47:52Z</time>
      </trkpt>
      <trkpt lat="42.90705" lon="0.11142">
        <ele>1597</ele>
        <time>2014-02-16T08:48:06Z</time>
      </trkpt>
      <trkpt lat="42.90711" lon="0.11168">
        <ele>1599</ele>
        <time>2014-02-16T08:48:24Z</time>
      </trkpt>
      <trkpt lat="42.90713" lon="0.11175">
        <ele>1599</ele>
        <time>2014-02-16T08:48:29Z</time>
      </trkpt>
      <trkpt lat="42.90719" lon="0.11194">
        <ele>1603</ele>
        <time>2014-02-16T08:48:44Z</time>
      </trkpt>
      <trkpt lat="42.90719" lon="0.11197">
        <ele>1602</ele>
        <time>2014-02-16T08:48:46Z</time>
      </trkpt>
      <trkpt lat="42.90722" lon="0.11225">
        <ele>1603</ele>
        <time>2014-02-16T08:49:03Z</time>
      </trkpt>
      <trkpt lat="42.90722" lon="0.11252">
        <ele>1606</ele>
        <time>2014-02-16T08:49:20Z</time>
      </trkpt>
      <trkpt lat="42.90724" lon="0.11277">
        <ele>1607</ele>
        <time>2014-02-16T08:49:36Z</time>
      </trkpt>
      <trkpt lat="42.90724" lon="0.11303">
        <ele>1609</ele>
        <time>2014-02-16T08:49:53Z</time>
      </trkpt>
      <trkpt lat="42.90725" lon="0.11326">
        <ele>1610</ele>
        <time>2014-02-16T08:50:08Z</time>
      </trkpt>
      <trkpt lat="42.90727" lon="0.11354">
        <ele>1612</ele>
        <time>2014-02-16T08:50:26Z</time>
      </trkpt>
      <trkpt lat="42.9073" lon="0.11377">
        <ele>1615</ele>
        <time>2014-02-16T08:50:41Z</time>
      </trkpt>
      <trkpt lat="42.9074" lon="0.11396">
        <ele>1617</ele>
        <time>2014-02-16T08:50:56Z</time>
      </trkpt>
      <trkpt lat="42.90741" lon="0.11398">
        <ele>1617</ele>
        <time>2014-02-16T08:50:58Z</time>
      </trkpt>
      <trkpt lat="42.90748" lon="0.1141">
        <ele>1619</ele>
        <time>2014-02-16T08:51:10Z</time>
      </trkpt>
      <trkpt lat="42.90757" lon="0.11422">
        <ele>1621</ele>
        <time>2014-02-16T08:51:24Z</time>
      </trkpt>
      <trkpt lat="42.90767" lon="0.11432">
        <ele>1623</ele>
        <time>2014-02-16T08:51:37Z</time>
      </trkpt>
      <trkpt lat="42.90776" lon="0.11438">
        <ele>1624</ele>
        <time>2014-02-16T08:51:48Z</time>
      </trkpt>
      <trkpt lat="42.90778" lon="0.1144">
        <ele>1624</ele>
        <time>2014-02-16T08:52:01Z</time>
      </trkpt>
      <trkpt lat="42.90784" lon="0.11445">
        <ele>1625</ele>
        <time>2014-02-16T08:52:11Z</time>
      </trkpt>
      <trkpt lat="42.90787" lon="0.11445">
        <ele>1626</ele>
        <time>2014-02-16T08:52:14Z</time>
      </trkpt>
      <trkpt lat="42.90792" lon="0.11445">
        <ele>1627</ele>
        <time>2014-02-16T08:52:18Z</time>
      </trkpt>
      <trkpt lat="42.90801" lon="0.11445">
        <ele>1628</ele>
        <time>2014-02-16T08:52:32Z</time>
      </trkpt>
      <trkpt lat="42.90808" lon="0.11444">
        <ele>1631</ele>
        <time>2014-02-16T08:52:46Z</time>
      </trkpt>
      <trkpt lat="42.90809" lon="0.11445">
        <ele>1631</ele>
        <time>2014-02-16T08:52:47Z</time>
      </trkpt>
      <trkpt lat="42.90817" lon="0.11453">
        <ele>1632</ele>
        <time>2014-02-16T08:53:01Z</time>
      </trkpt>
      <trkpt lat="42.90821" lon="0.1146">
        <ele>1634</ele>
        <time>2014-02-16T08:53:08Z</time>
      </trkpt>
      <trkpt lat="42.90825" lon="0.11465">
        <ele>1635</ele>
        <time>2014-02-16T08:53:14Z</time>
      </trkpt>
      <trkpt lat="42.90831" lon="0.11471">
        <ele>1636</ele>
        <time>2014-02-16T08:53:21Z</time>
      </trkpt>
      <trkpt lat="42.90834" lon="0.11476">
        <ele>1637</ele>
        <time>2014-02-16T08:53:25Z</time>
      </trkpt>
      <trkpt lat="42.90842" lon="0.11492">
        <ele>1638</ele>
        <time>2014-02-16T08:53:39Z</time>
      </trkpt>
      <trkpt lat="42.90846" lon="0.115">
        <ele>1640</ele>
        <time>2014-02-16T08:53:46Z</time>
      </trkpt>
      <trkpt lat="42.90848" lon="0.11506">
        <ele>1641</ele>
        <time>2014-02-16T08:53:51Z</time>
      </trkpt>
      <trkpt lat="42.90851" lon="0.11509">
        <ele>1641</ele>
        <time>2014-02-16T08:53:54Z</time>
      </trkpt>
      <trkpt lat="42.90852" lon="0.11512">
        <ele>1641</ele>
        <time>2014-02-16T08:53:57Z</time>
      </trkpt>
      <trkpt lat="42.90854" lon="0.11521">
        <ele>1643</ele>
        <time>2014-02-16T08:54:09Z</time>
      </trkpt>
      <trkpt lat="42.90855" lon="0.11521">
        <ele>1643</ele>
        <time>2014-02-16T08:54:10Z</time>
      </trkpt>
      <trkpt lat="42.90859" lon="0.11531">
        <ele>1645</ele>
        <time>2014-02-16T08:54:22Z</time>
      </trkpt>
      <trkpt lat="42.90863" lon="0.11534">
        <ele>1647</ele>
        <time>2014-02-16T08:54:30Z</time>
      </trkpt>
      <trkpt lat="42.90867" lon="0.11538">
        <ele>1649</ele>
        <time>2014-02-16T08:54:37Z</time>
      </trkpt>
      <trkpt lat="42.9088" lon="0.11549">
        <ele>1650</ele>
        <time>2014-02-16T08:54:51Z</time>
      </trkpt>
      <trkpt lat="42.90887" lon="0.11559">
        <ele>1653</ele>
        <time>2014-02-16T08:55:03Z</time>
      </trkpt>
      <trkpt lat="42.90887" lon="0.1156">
        <ele>1653</ele>
        <time>2014-02-16T08:55:04Z</time>
      </trkpt>
      <trkpt lat="42.90888" lon="0.11567">
        <ele>1652</ele>
        <time>2014-02-16T08:55:09Z</time>
      </trkpt>
      <trkpt lat="42.90888" lon="0.11577">
        <ele>1654</ele>
        <time>2014-02-16T08:55:16Z</time>
      </trkpt>
      <trkpt lat="42.90896" lon="0.11589">
        <ele>1655</ele>
        <time>2014-02-16T08:55:30Z</time>
      </trkpt>
      <trkpt lat="42.90894" lon="0.11593">
        <ele>1656</ele>
        <time>2014-02-16T08:55:44Z</time>
      </trkpt>
      <trkpt lat="42.90892" lon="0.11595">
        <ele>1656</ele>
        <time>2014-02-16T08:55:48Z</time>
      </trkpt>
      <trkpt lat="42.90887" lon="0.11598">
        <ele>1656</ele>
        <time>2014-02-16T08:56:02Z</time>
      </trkpt>
      <trkpt lat="42.90881" lon="0.11601">
        <ele>1658</ele>
        <time>2014-02-16T08:56:13Z</time>
      </trkpt>
      <trkpt lat="42.90888" lon="0.11603">
        <ele>1661</ele>
        <time>2014-02-16T08:56:26Z</time>
      </trkpt>
      <trkpt lat="42.90892" lon="0.11607">
        <ele>1664</ele>
        <time>2014-02-16T08:56:40Z</time>
      </trkpt>
      <trkpt lat="42.90893" lon="0.11608">
        <ele>1665</ele>
        <time>2014-02-16T08:56:42Z</time>
      </trkpt>
      <trkpt lat="42.909" lon="0.11616">
        <ele>1668</ele>
        <time>2014-02-16T08:56:55Z</time>
      </trkpt>
      <trkpt lat="42.90908" lon="0.11625">
        <ele>1671</ele>
        <time>2014-02-16T08:57:07Z</time>
      </trkpt>
      <trkpt lat="42.90912" lon="0.11632">
        <ele>1673</ele>
        <time>2014-02-16T08:57:17Z</time>
      </trkpt>
      <trkpt lat="42.9092" lon="0.1164">
        <ele>1675</ele>
        <time>2014-02-16T08:57:30Z</time>
      </trkpt>
      <trkpt lat="42.90923" lon="0.11648">
        <ele>1678</ele>
        <time>2014-02-16T08:57:43Z</time>
      </trkpt>
      <trkpt lat="42.90931" lon="0.11655">
        <ele>1681</ele>
        <time>2014-02-16T08:57:57Z</time>
      </trkpt>
      <trkpt lat="42.90935" lon="0.11658">
        <ele>1683</ele>
        <time>2014-02-16T08:58:06Z</time>
      </trkpt>
      <trkpt lat="42.90944" lon="0.11665">
        <ele>1684</ele>
        <time>2014-02-16T08:58:19Z</time>
      </trkpt>
      <trkpt lat="42.90948" lon="0.11668">
        <ele>1685</ele>
        <time>2014-02-16T08:58:25Z</time>
      </trkpt>
      <trkpt lat="42.90953" lon="0.11676">
        <ele>1687</ele>
        <time>2014-02-16T08:58:39Z</time>
      </trkpt>
      <trkpt lat="42.90952" lon="0.11687">
        <ele>1690</ele>
        <time>2014-02-16T08:58:50Z</time>
      </trkpt>
      <trkpt lat="42.90956" lon="0.11691">
        <ele>1692</ele>
        <time>2014-02-16T08:58:56Z</time>
      </trkpt>
      <trkpt lat="42.90963" lon="0.11696">
        <ele>1693</ele>
        <time>2014-02-16T08:59:09Z</time>
      </trkpt>
      <trkpt lat="42.90967" lon="0.11705">
        <ele>1696</ele>
        <time>2014-02-16T08:59:21Z</time>
      </trkpt>
      <trkpt lat="42.90968" lon="0.11709">
        <ele>1697</ele>
        <time>2014-02-16T08:59:26Z</time>
      </trkpt>
      <trkpt lat="42.9097" lon="0.11713">
        <ele>1698</ele>
        <time>2014-02-16T08:59:29Z</time>
      </trkpt>
      <trkpt lat="42.90976" lon="0.11724">
        <ele>1699</ele>
        <time>2014-02-16T08:59:40Z</time>
      </trkpt>
      <trkpt lat="42.90979" lon="0.11732">
        <ele>1701</ele>
        <time>2014-02-16T08:59:51Z</time>
      </trkpt>
      <trkpt lat="42.90981" lon="0.11738">
        <ele>1703</ele>
        <time>2014-02-16T08:59:59Z</time>
      </trkpt>
      <trkpt lat="42.90986" lon="0.11744">
        <ele>1705</ele>
        <time>2014-02-16T09:00:10Z</time>
      </trkpt>
      <trkpt lat="42.90995" lon="0.11753">
        <ele>1707</ele>
        <time>2014-02-16T09:00:26Z</time>
      </trkpt>
      <trkpt lat="42.90999" lon="0.11759">
        <ele>1709</ele>
        <time>2014-02-16T09:00:37Z</time>
      </trkpt>
      <trkpt lat="42.91008" lon="0.11768">
        <ele>1712</ele>
        <time>2014-02-16T09:00:52Z</time>
      </trkpt>
      <trkpt lat="42.91015" lon="0.11778">
        <ele>1715</ele>
        <time>2014-02-16T09:01:08Z</time>
      </trkpt>
      <trkpt lat="42.91017" lon="0.11779">
        <ele>1715</ele>
        <time>2014-02-16T09:01:10Z</time>
      </trkpt>
      <trkpt lat="42.91024" lon="0.11789">
        <ele>1717</ele>
        <time>2014-02-16T09:01:20Z</time>
      </trkpt>
      <trkpt lat="42.9103" lon="0.11804">
        <ele>1719</ele>
        <time>2014-02-16T09:01:35Z</time>
      </trkpt>
      <trkpt lat="42.91033" lon="0.11813">
        <ele>1721</ele>
        <time>2014-02-16T09:01:47Z</time>
      </trkpt>
      <trkpt lat="42.91039" lon="0.11828">
        <ele>1723</ele>
        <time>2014-02-16T09:02:01Z</time>
      </trkpt>
      <trkpt lat="42.91044" lon="0.11828">
        <ele>1725</ele>
        <time>2014-02-16T09:02:11Z</time>
      </trkpt>
      <trkpt lat="42.91048" lon="0.11815">
        <ele>1727</ele>
        <time>2014-02-16T09:02:24Z</time>
      </trkpt>
      <trkpt lat="42.91051" lon="0.11819">
        <ele>1727</ele>
        <time>2014-02-16T09:02:35Z</time>
      </trkpt>
      <trkpt lat="42.91058" lon="0.11826">
        <ele>1729</ele>
        <time>2014-02-16T09:02:47Z</time>
      </trkpt>
      <trkpt lat="42.9106" lon="0.11828">
        <ele>1730</ele>
        <time>2014-02-16T09:02:52Z</time>
      </trkpt>
      <trkpt lat="42.91066" lon="0.11834">
        <ele>1732</ele>
        <time>2014-02-16T09:03:06Z</time>
      </trkpt>
      <trkpt lat="42.9107" lon="0.11841">
        <ele>1736</ele>
        <time>2014-02-16T09:03:21Z</time>
      </trkpt>
      <trkpt lat="42.91071" lon="0.11844">
        <ele>1736</ele>
        <time>2014-02-16T09:03:33Z</time>
      </trkpt>
      <trkpt lat="42.91075" lon="0.11841">
        <ele>1738</ele>
        <time>2014-02-16T09:03:45Z</time>
      </trkpt>
      <trkpt lat="42.91077" lon="0.11832">
        <ele>1740</ele>
        <time>2014-02-16T09:03:56Z</time>
      </trkpt>
      <trkpt lat="42.91081" lon="0.11836">
        <ele>1741</ele>
        <time>2014-02-16T09:04:11Z</time>
      </trkpt>
      <trkpt lat="42.91083" lon="0.11838">
        <ele>1741</ele>
        <time>2014-02-16T09:04:13Z</time>
      </trkpt>
      <trkpt lat="42.91089" lon="0.11845">
        <ele>1743</ele>
        <time>2014-02-16T09:04:25Z</time>
      </trkpt>
      <trkpt lat="42.91092" lon="0.11851">
        <ele>1745</ele>
        <time>2014-02-16T09:04:36Z</time>
      </trkpt>
      <trkpt lat="42.91101" lon="0.11858">
        <ele>1748</ele>
        <time>2014-02-16T09:04:49Z</time>
      </trkpt>
      <trkpt lat="42.91105" lon="0.1186">
        <ele>1749</ele>
        <time>2014-02-16T09:05:00Z</time>
      </trkpt>
      <trkpt lat="42.91113" lon="0.11867">
        <ele>1752</ele>
        <time>2014-02-16T09:05:17Z</time>
      </trkpt>
      <trkpt lat="42.91123" lon="0.11872">
        <ele>1755</ele>
        <time>2014-02-16T09:05:33Z</time>
      </trkpt>
      <trkpt lat="42.91124" lon="0.11865">
        <ele>1757</ele>
        <time>2014-02-16T09:05:45Z</time>
      </trkpt>
      <trkpt lat="42.91124" lon="0.11862">
        <ele>1757</ele>
        <time>2014-02-16T09:05:56Z</time>
      </trkpt>
      <trkpt lat="42.91128" lon="0.11862">
        <ele>1758</ele>
        <time>2014-02-16T09:06:12Z</time>
      </trkpt>
      <trkpt lat="42.91134" lon="0.11869">
        <ele>1759</ele>
        <time>2014-02-16T09:06:24Z</time>
      </trkpt>
      <trkpt lat="42.91141" lon="0.11875">
        <ele>1761</ele>
        <time>2014-02-16T09:06:35Z</time>
      </trkpt>
      <trkpt lat="42.91148" lon="0.11883">
        <ele>1763</ele>
        <time>2014-02-16T09:06:49Z</time>
      </trkpt>
      <trkpt lat="42.91153" lon="0.11888">
        <ele>1765</ele>
        <time>2014-02-16T09:07:04Z</time>
      </trkpt>
      <trkpt lat="42.91155" lon="0.11889">
        <ele>1766</ele>
        <time>2014-02-16T09:07:10Z</time>
      </trkpt>
      <trkpt lat="42.9116" lon="0.11895">
        <ele>1768</ele>
        <time>2014-02-16T09:07:20Z</time>
      </trkpt>
      <trkpt lat="42.91164" lon="0.11898">
        <ele>1768</ele>
        <time>2014-02-16T09:07:32Z</time>
      </trkpt>
      <trkpt lat="42.91163" lon="0.11896">
        <ele>1769</ele>
        <time>2014-02-16T09:07:51Z</time>
      </trkpt>
      <trkpt lat="42.91164" lon="0.11895">
        <ele>1770</ele>
        <time>2014-02-16T09:07:52Z</time>
      </trkpt>
      <trkpt lat="42.91164" lon="0.11885">
        <ele>1772</ele>
        <time>2014-02-16T09:08:06Z</time>
      </trkpt>
      <trkpt lat="42.91166" lon="0.11872">
        <ele>1775</ele>
        <time>2014-02-16T09:08:23Z</time>
      </trkpt>
      <trkpt lat="42.91164" lon="0.11863">
        <ele>1777</ele>
        <time>2014-02-16T09:08:38Z</time>
      </trkpt>
      <trkpt lat="42.91166" lon="0.11855">
        <ele>1778</ele>
        <time>2014-02-16T09:08:47Z</time>
      </trkpt>
      <trkpt lat="42.91166" lon="0.11841">
        <ele>1781</ele>
        <time>2014-02-16T09:09:00Z</time>
      </trkpt>
      <trkpt lat="42.9117" lon="0.11843">
        <ele>1781</ele>
        <time>2014-02-16T09:09:13Z</time>
      </trkpt>
      <trkpt lat="42.91176" lon="0.11847">
        <ele>1784</ele>
        <time>2014-02-16T09:09:27Z</time>
      </trkpt>
      <trkpt lat="42.91185" lon="0.11853">
        <ele>1787</ele>
        <time>2014-02-16T09:09:45Z</time>
      </trkpt>
      <trkpt lat="42.91191" lon="0.11858">
        <ele>1790</ele>
        <time>2014-02-16T09:10:00Z</time>
      </trkpt>
      <trkpt lat="42.91191" lon="0.11857">
        <ele>1790</ele>
        <time>2014-02-16T09:10:13Z</time>
      </trkpt>
      <trkpt lat="42.91186" lon="0.11845">
        <ele>1791</ele>
        <time>2014-02-16T09:10:30Z</time>
      </trkpt>
      <trkpt lat="42.91184" lon="0.11829">
        <ele>1794</ele>
        <time>2014-02-16T09:10:47Z</time>
      </trkpt>
      <trkpt lat="42.91183" lon="0.11814">
        <ele>1796</ele>
        <time>2014-02-16T09:11:01Z</time>
      </trkpt>
      <trkpt lat="42.91181" lon="0.11803">
        <ele>1800</ele>
        <time>2014-02-16T09:11:19Z</time>
      </trkpt>
      <trkpt lat="42.91179" lon="0.1179">
        <ele>1802</ele>
        <time>2014-02-16T09:11:33Z</time>
      </trkpt>
      <trkpt lat="42.91178" lon="0.11786">
        <ele>1802</ele>
        <time>2014-02-16T09:11:38Z</time>
      </trkpt>
      <trkpt lat="42.91177" lon="0.11771">
        <ele>1804</ele>
        <time>2014-02-16T09:11:55Z</time>
      </trkpt>
      <trkpt lat="42.91176" lon="0.11759">
        <ele>1806</ele>
        <time>2014-02-16T09:12:09Z</time>
      </trkpt>
      <trkpt lat="42.91178" lon="0.11746">
        <ele>1808</ele>
        <time>2014-02-16T09:12:22Z</time>
      </trkpt>
      <trkpt lat="42.91181" lon="0.11733">
        <ele>1811</ele>
        <time>2014-02-16T09:12:37Z</time>
      </trkpt>
      <trkpt lat="42.91183" lon="0.11733">
        <ele>1811</ele>
        <time>2014-02-16T09:12:52Z</time>
      </trkpt>
      <trkpt lat="42.91188" lon="0.11742">
        <ele>1814</ele>
        <time>2014-02-16T09:13:07Z</time>
      </trkpt>
      <trkpt lat="42.91197" lon="0.1175">
        <ele>1816</ele>
        <time>2014-02-16T09:13:24Z</time>
      </trkpt>
      <trkpt lat="42.91203" lon="0.11754">
        <ele>1818</ele>
        <time>2014-02-16T09:13:35Z</time>
      </trkpt>
      <trkpt lat="42.91208" lon="0.11759">
        <ele>1821</ele>
        <time>2014-02-16T09:13:49Z</time>
      </trkpt>
      <trkpt lat="42.91215" lon="0.11764">
        <ele>1823</ele>
        <time>2014-02-16T09:14:03Z</time>
      </trkpt>
      <trkpt lat="42.91222" lon="0.11771">
        <ele>1826</ele>
        <time>2014-02-16T09:14:21Z</time>
      </trkpt>
      <trkpt lat="42.91231" lon="0.11775">
        <ele>1829</ele>
        <time>2014-02-16T09:14:36Z</time>
      </trkpt>
      <trkpt lat="42.91241" lon="0.11779">
        <ele>1832</ele>
        <time>2014-02-16T09:14:53Z</time>
      </trkpt>
      <trkpt lat="42.91249" lon="0.11782">
        <ele>1834</ele>
        <time>2014-02-16T09:15:08Z</time>
      </trkpt>
      <trkpt lat="42.91256" lon="0.11785">
        <ele>1836</ele>
        <time>2014-02-16T09:15:22Z</time>
      </trkpt>
      <trkpt lat="42.91263" lon="0.11789">
        <ele>1838</ele>
        <time>2014-02-16T09:15:38Z</time>
      </trkpt>
      <trkpt lat="42.91271" lon="0.11792">
        <ele>1840</ele>
        <time>2014-02-16T09:15:53Z</time>
      </trkpt>
      <trkpt lat="42.91277" lon="0.11795">
        <ele>1843</ele>
        <time>2014-02-16T09:16:09Z</time>
      </trkpt>
      <trkpt lat="42.91285" lon="0.118">
        <ele>1846</ele>
        <time>2014-02-16T09:16:26Z</time>
      </trkpt>
      <trkpt lat="42.9129" lon="0.11801">
        <ele>1847</ele>
        <time>2014-02-16T09:16:37Z</time>
      </trkpt>
      <trkpt lat="42.91298" lon="0.11803">
        <ele>1850</ele>
        <time>2014-02-16T09:16:52Z</time>
      </trkpt>
      <trkpt lat="42.91307" lon="0.11805">
        <ele>1852</ele>
        <time>2014-02-16T09:17:05Z</time>
      </trkpt>
      <trkpt lat="42.91318" lon="0.11808">
        <ele>1855</ele>
        <time>2014-02-16T09:17:23Z</time>
      </trkpt>
      <trkpt lat="42.91322" lon="0.1181">
        <ele>1855</ele>
        <time>2014-02-16T09:17:29Z</time>
      </trkpt>
      <trkpt lat="42.9133" lon="0.11808">
        <ele>1857</ele>
        <time>2014-02-16T09:17:42Z</time>
      </trkpt>
      <trkpt lat="42.91336" lon="0.11807">
        <ele>1859</ele>
        <time>2014-02-16T09:17:52Z</time>
      </trkpt>
      <trkpt lat="42.91348" lon="0.11801">
        <ele>1861</ele>
        <time>2014-02-16T09:18:08Z</time>
      </trkpt>
      <trkpt lat="42.91359" lon="0.11796">
        <ele>1863</ele>
        <time>2014-02-16T09:18:28Z</time>
      </trkpt>
      <trkpt lat="42.91373" lon="0.1179">
        <ele>1865</ele>
        <time>2014-02-16T09:18:45Z</time>
      </trkpt>
      <trkpt lat="42.91382" lon="0.11789">
        <ele>1867</ele>
        <time>2014-02-16T09:18:57Z</time>
      </trkpt>
      <trkpt lat="42.91393" lon="0.11789">
        <ele>1868</ele>
        <time>2014-02-16T09:19:10Z</time>
      </trkpt>
      <trkpt lat="42.91401" lon="0.11786">
        <ele>1870</ele>
        <time>2014-02-16T09:19:24Z</time>
      </trkpt>
      <trkpt lat="42.91408" lon="0.11782">
        <ele>1872</ele>
        <time>2014-02-16T09:19:36Z</time>
      </trkpt>
      <trkpt lat="42.91414" lon="0.11777">
        <ele>1875</ele>
        <time>2014-02-16T09:19:52Z</time>
      </trkpt>
      <trkpt lat="42.91416" lon="0.11775">
        <ele>1876</ele>
        <time>2014-02-16T09:19:55Z</time>
      </trkpt>
      <trkpt lat="42.91425" lon="0.11768">
        <ele>1878</ele>
        <time>2014-02-16T09:20:11Z</time>
      </trkpt>
      <trkpt lat="42.91432" lon="0.11766">
        <ele>1880</ele>
        <time>2014-02-16T09:20:24Z</time>
      </trkpt>
      <trkpt lat="42.91441" lon="0.11766">
        <ele>1882</ele>
        <time>2014-02-16T09:20:44Z</time>
      </trkpt>
      <trkpt lat="42.91451" lon="0.11765">
        <ele>1885</ele>
        <time>2014-02-16T09:21:03Z</time>
      </trkpt>
      <trkpt lat="42.91461" lon="0.11757">
        <ele>1888</ele>
        <time>2014-02-16T09:21:18Z</time>
      </trkpt>
      <trkpt lat="42.91468" lon="0.11751">
        <ele>1890</ele>
        <time>2014-02-16T09:21:31Z</time>
      </trkpt>
      <trkpt lat="42.91477" lon="0.11745">
        <ele>1892</ele>
        <time>2014-02-16T09:21:47Z</time>
      </trkpt>
      <trkpt lat="42.9148" lon="0.11745">
        <ele>1894</ele>
        <time>2014-02-16T09:22:04Z</time>
      </trkpt>
      <trkpt lat="42.91479" lon="0.11746">
        <ele>1894</ele>
        <time>2014-02-16T09:22:19Z</time>
      </trkpt>
      <trkpt lat="42.91486" lon="0.11747">
        <ele>1895</ele>
        <time>2014-02-16T09:22:29Z</time>
      </trkpt>
      <trkpt lat="42.91492" lon="0.11754">
        <ele>1896</ele>
        <time>2014-02-16T09:22:40Z</time>
      </trkpt>
      <trkpt lat="42.91495" lon="0.11765">
        <ele>1898</ele>
        <time>2014-02-16T09:22:53Z</time>
      </trkpt>
      <trkpt lat="42.91495" lon="0.11775">
        <ele>1899</ele>
        <time>2014-02-16T09:23:04Z</time>
      </trkpt>
      <trkpt lat="42.91497" lon="0.11784">
        <ele>1902</ele>
        <time>2014-02-16T09:23:21Z</time>
      </trkpt>
      <trkpt lat="42.91499" lon="0.11796">
        <ele>1905</ele>
        <time>2014-02-16T09:23:38Z</time>
      </trkpt>
      <trkpt lat="42.91504" lon="0.11802">
        <ele>1908</ele>
        <time>2014-02-16T09:23:55Z</time>
      </trkpt>
      <trkpt lat="42.91512" lon="0.118">
        <ele>1910</ele>
        <time>2014-02-16T09:24:10Z</time>
      </trkpt>
      <trkpt lat="42.91512" lon="0.118">
        <ele>1910</ele>
        <time>2014-02-16T09:24:24Z</time>
      </trkpt>
      <trkpt lat="42.9151" lon="0.118">
        <ele>1910</ele>
        <time>2014-02-16T09:24:48Z</time>
      </trkpt>
      <trkpt lat="42.91511" lon="0.11801">
        <ele>1909</ele>
        <time>2014-02-16T09:25:20Z</time>
      </trkpt>
      <trkpt lat="42.91511" lon="0.11801">
        <ele>1910</ele>
        <time>2014-02-16T09:25:44Z</time>
      </trkpt>
      <trkpt lat="42.91514" lon="0.11803">
        <ele>1910</ele>
        <time>2014-02-16T09:26:07Z</time>
      </trkpt>
      <trkpt lat="42.91521" lon="0.11806">
        <ele>1912</ele>
        <time>2014-02-16T09:26:22Z</time>
      </trkpt>
      <trkpt lat="42.91528" lon="0.11813">
        <ele>1914</ele>
        <time>2014-02-16T09:26:36Z</time>
      </trkpt>
      <trkpt lat="42.91536" lon="0.11822">
        <ele>1917</ele>
        <time>2014-02-16T09:26:54Z</time>
      </trkpt>
      <trkpt lat="42.91541" lon="0.11829">
        <ele>1919</ele>
        <time>2014-02-16T09:27:07Z</time>
      </trkpt>
      <trkpt lat="42.91546" lon="0.11839">
        <ele>1921</ele>
        <time>2014-02-16T09:27:24Z</time>
      </trkpt>
      <trkpt lat="42.91551" lon="0.11846">
        <ele>1923</ele>
        <time>2014-02-16T09:27:38Z</time>
      </trkpt>
      <trkpt lat="42.91556" lon="0.11852">
        <ele>1925</ele>
        <time>2014-02-16T09:27:51Z</time>
      </trkpt>
      <trkpt lat="42.91562" lon="0.11861">
        <ele>1927</ele>
        <time>2014-02-16T09:28:07Z</time>
      </trkpt>
      <trkpt lat="42.91569" lon="0.11867">
        <ele>1929</ele>
        <time>2014-02-16T09:28:21Z</time>
      </trkpt>
      <trkpt lat="42.91574" lon="0.11871">
        <ele>1931</ele>
        <time>2014-02-16T09:28:33Z</time>
      </trkpt>
      <trkpt lat="42.91577" lon="0.11875">
        <ele>1933</ele>
        <time>2014-02-16T09:28:45Z</time>
      </trkpt>
      <trkpt lat="42.91581" lon="0.11884">
        <ele>1935</ele>
        <time>2014-02-16T09:28:58Z</time>
      </trkpt>
      <trkpt lat="42.91584" lon="0.11889">
        <ele>1936</ele>
        <time>2014-02-16T09:29:06Z</time>
      </trkpt>
      <trkpt lat="42.91587" lon="0.11897">
        <ele>1939</ele>
        <time>2014-02-16T09:29:22Z</time>
      </trkpt>
      <trkpt lat="42.91588" lon="0.11899">
        <ele>1939</ele>
        <time>2014-02-16T09:29:24Z</time>
      </trkpt>
      <trkpt lat="42.91592" lon="0.11895">
        <ele>1941</ele>
        <time>2014-02-16T09:29:35Z</time>
      </trkpt>
      <trkpt lat="42.91599" lon="0.11886">
        <ele>1943</ele>
        <time>2014-02-16T09:29:52Z</time>
      </trkpt>
      <trkpt lat="42.91599" lon="0.11878">
        <ele>1946</ele>
        <time>2014-02-16T09:30:06Z</time>
      </trkpt>
      <trkpt lat="42.91606" lon="0.11872">
        <ele>1947</ele>
        <time>2014-02-16T09:30:18Z</time>
      </trkpt>
      <trkpt lat="42.91615" lon="0.11877">
        <ele>1949</ele>
        <time>2014-02-16T09:30:32Z</time>
      </trkpt>
      <trkpt lat="42.91623" lon="0.11876">
        <ele>1953</ele>
        <time>2014-02-16T09:30:47Z</time>
      </trkpt>
      <trkpt lat="42.91631" lon="0.11873">
        <ele>1954</ele>
        <time>2014-02-16T09:31:01Z</time>
      </trkpt>
      <trkpt lat="42.91634" lon="0.11873">
        <ele>1955</ele>
        <time>2014-02-16T09:31:05Z</time>
      </trkpt>
      <trkpt lat="42.91643" lon="0.11868">
        <ele>1958</ele>
        <time>2014-02-16T09:31:23Z</time>
      </trkpt>
      <trkpt lat="42.91646" lon="0.11861">
        <ele>1960</ele>
        <time>2014-02-16T09:31:38Z</time>
      </trkpt>
      <trkpt lat="42.91654" lon="0.1186">
        <ele>1963</ele>
        <time>2014-02-16T09:31:52Z</time>
      </trkpt>
      <trkpt lat="42.9166" lon="0.11858">
        <ele>1965</ele>
        <time>2014-02-16T09:32:05Z</time>
      </trkpt>
      <trkpt lat="42.91664" lon="0.11864">
        <ele>1966</ele>
        <time>2014-02-16T09:32:22Z</time>
      </trkpt>
      <trkpt lat="42.91666" lon="0.11873">
        <ele>1969</ele>
        <time>2014-02-16T09:32:37Z</time>
      </trkpt>
      <trkpt lat="42.91671" lon="0.11886">
        <ele>1972</ele>
        <time>2014-02-16T09:32:54Z</time>
      </trkpt>
      <trkpt lat="42.91674" lon="0.11892">
        <ele>1974</ele>
        <time>2014-02-16T09:33:08Z</time>
      </trkpt>
      <trkpt lat="42.91678" lon="0.119">
        <ele>1975</ele>
        <time>2014-02-16T09:33:20Z</time>
      </trkpt>
      <trkpt lat="42.91683" lon="0.11906">
        <ele>1978</ele>
        <time>2014-02-16T09:33:35Z</time>
      </trkpt>
      <trkpt lat="42.9169" lon="0.11902">
        <ele>1981</ele>
        <time>2014-02-16T09:33:53Z</time>
      </trkpt>
      <trkpt lat="42.91699" lon="0.11896">
        <ele>1984</ele>
        <time>2014-02-16T09:34:07Z</time>
      </trkpt>
      <trkpt lat="42.91708" lon="0.11889">
        <ele>1986</ele>
        <time>2014-02-16T09:34:22Z</time>
      </trkpt>
      <trkpt lat="42.91714" lon="0.11888">
        <ele>1988</ele>
        <time>2014-02-16T09:34:33Z</time>
      </trkpt>
      <trkpt lat="42.91725" lon="0.11885">
        <ele>1991</ele>
        <time>2014-02-16T09:34:50Z</time>
      </trkpt>
      <trkpt lat="42.91732" lon="0.11882">
        <ele>1994</ele>
        <time>2014-02-16T09:35:03Z</time>
      </trkpt>
      <trkpt lat="42.91737" lon="0.11879">
        <ele>1996</ele>
        <time>2014-02-16T09:35:16Z</time>
      </trkpt>
      <trkpt lat="42.91744" lon="0.1188">
        <ele>1999</ele>
        <time>2014-02-16T09:35:31Z</time>
      </trkpt>
      <trkpt lat="42.91753" lon="0.11878">
        <ele>2002</ele>
        <time>2014-02-16T09:35:47Z</time>
      </trkpt>
      <trkpt lat="42.91763" lon="0.11874">
        <ele>2005</ele>
        <time>2014-02-16T09:36:06Z</time>
      </trkpt>
      <trkpt lat="42.91772" lon="0.11873">
        <ele>2007</ele>
        <time>2014-02-16T09:36:23Z</time>
      </trkpt>
      <trkpt lat="42.91782" lon="0.11872">
        <ele>2010</ele>
        <time>2014-02-16T09:36:38Z</time>
      </trkpt>
      <trkpt lat="42.9179" lon="0.11871">
        <ele>2012</ele>
        <time>2014-02-16T09:36:53Z</time>
      </trkpt>
      <trkpt lat="42.91801" lon="0.11868">
        <ele>2014</ele>
        <time>2014-02-16T09:37:14Z</time>
      </trkpt>
      <trkpt lat="42.9181" lon="0.11865">
        <ele>2016</ele>
        <time>2014-02-16T09:37:30Z</time>
      </trkpt>
      <trkpt lat="42.91819" lon="0.11857">
        <ele>2019</ele>
        <time>2014-02-16T09:37:47Z</time>
      </trkpt>
      <trkpt lat="42.91828" lon="0.11852">
        <ele>2022</ele>
        <time>2014-02-16T09:38:07Z</time>
      </trkpt>
      <trkpt lat="42.91836" lon="0.11845">
        <ele>2023</ele>
        <time>2014-02-16T09:38:22Z</time>
      </trkpt>
      <trkpt lat="42.91844" lon="0.11837">
        <ele>2025</ele>
        <time>2014-02-16T09:38:36Z</time>
      </trkpt>
      <trkpt lat="42.91844" lon="0.11827">
        <ele>2028</ele>
        <time>2014-02-16T09:38:56Z</time>
      </trkpt>
      <trkpt lat="42.91843" lon="0.11817">
        <ele>2031</ele>
        <time>2014-02-16T09:39:13Z</time>
      </trkpt>
      <trkpt lat="42.91848" lon="0.11805">
        <ele>2033</ele>
        <time>2014-02-16T09:39:28Z</time>
      </trkpt>
      <trkpt lat="42.91853" lon="0.11794">
        <ele>2036</ele>
        <time>2014-02-16T09:39:43Z</time>
      </trkpt>
      <trkpt lat="42.91859" lon="0.11786">
        <ele>2039</ele>
        <time>2014-02-16T09:40:00Z</time>
      </trkpt>
      <trkpt lat="42.91863" lon="0.11777">
        <ele>2040</ele>
        <time>2014-02-16T09:40:13Z</time>
      </trkpt>
      <trkpt lat="42.9187" lon="0.11769">
        <ele>2042</ele>
        <time>2014-02-16T09:40:31Z</time>
      </trkpt>
      <trkpt lat="42.91877" lon="0.11764">
        <ele>2044</ele>
        <time>2014-02-16T09:40:44Z</time>
      </trkpt>
      <trkpt lat="42.91881" lon="0.11766">
        <ele>2045</ele>
        <time>2014-02-16T09:40:54Z</time>
      </trkpt>
      <trkpt lat="42.91881" lon="0.11778">
        <ele>2048</ele>
        <time>2014-02-16T09:41:11Z</time>
      </trkpt>
      <trkpt lat="42.91885" lon="0.11788">
        <ele>2051</ele>
        <time>2014-02-16T09:41:26Z</time>
      </trkpt>
      <trkpt lat="42.9189" lon="0.11796">
        <ele>2053</ele>
        <time>2014-02-16T09:41:41Z</time>
      </trkpt>
      <trkpt lat="42.91896" lon="0.11797">
        <ele>2055</ele>
        <time>2014-02-16T09:41:54Z</time>
      </trkpt>
      <trkpt lat="42.91902" lon="0.11805">
        <ele>2057</ele>
        <time>2014-02-16T09:42:09Z</time>
      </trkpt>
      <trkpt lat="42.91905" lon="0.11814">
        <ele>2059</ele>
        <time>2014-02-16T09:42:24Z</time>
      </trkpt>
      <trkpt lat="42.91907" lon="0.11823">
        <ele>2061</ele>
        <time>2014-02-16T09:42:38Z</time>
      </trkpt>
      <trkpt lat="42.91909" lon="0.11831">
        <ele>2064</ele>
        <time>2014-02-16T09:42:53Z</time>
      </trkpt>
      <trkpt lat="42.91913" lon="0.11838">
        <ele>2066</ele>
        <time>2014-02-16T09:43:07Z</time>
      </trkpt>
      <trkpt lat="42.91918" lon="0.11846">
        <ele>2068</ele>
        <time>2014-02-16T09:43:23Z</time>
      </trkpt>
      <trkpt lat="42.91921" lon="0.11852">
        <ele>2070</ele>
        <time>2014-02-16T09:43:37Z</time>
      </trkpt>
      <trkpt lat="42.91923" lon="0.11855">
        <ele>2071</ele>
        <time>2014-02-16T09:43:50Z</time>
      </trkpt>
      <trkpt lat="42.91925" lon="0.11849">
        <ele>2071</ele>
        <time>2014-02-16T09:44:04Z</time>
      </trkpt>
      <trkpt lat="42.9193" lon="0.1184">
        <ele>2074</ele>
        <time>2014-02-16T09:44:19Z</time>
      </trkpt>
      <trkpt lat="42.91937" lon="0.11832">
        <ele>2076</ele>
        <time>2014-02-16T09:44:33Z</time>
      </trkpt>
      <trkpt lat="42.91948" lon="0.11829">
        <ele>2078</ele>
        <time>2014-02-16T09:44:48Z</time>
      </trkpt>
      <trkpt lat="42.91951" lon="0.11829">
        <ele>2079</ele>
        <time>2014-02-16T09:44:51Z</time>
      </trkpt>
      <trkpt lat="42.91958" lon="0.1183">
        <ele>2081</ele>
        <time>2014-02-16T09:45:03Z</time>
      </trkpt>
      <trkpt lat="42.91969" lon="0.11837">
        <ele>2082</ele>
        <time>2014-02-16T09:45:17Z</time>
      </trkpt>
      <trkpt lat="42.91976" lon="0.11841">
        <ele>2083</ele>
        <time>2014-02-16T09:45:30Z</time>
      </trkpt>
      <trkpt lat="42.91977" lon="0.11843">
        <ele>2084</ele>
        <time>2014-02-16T09:45:50Z</time>
      </trkpt>
      <trkpt lat="42.91985" lon="0.1185">
        <ele>2087</ele>
        <time>2014-02-16T09:46:06Z</time>
      </trkpt>
      <trkpt lat="42.91988" lon="0.11855">
        <ele>2088</ele>
        <time>2014-02-16T09:46:11Z</time>
      </trkpt>
      <trkpt lat="42.91994" lon="0.1186">
        <ele>2090</ele>
        <time>2014-02-16T09:46:23Z</time>
      </trkpt>
      <trkpt lat="42.91997" lon="0.11862">
        <ele>2091</ele>
        <time>2014-02-16T09:46:33Z</time>
      </trkpt>
      <trkpt lat="42.92003" lon="0.11866">
        <ele>2092</ele>
        <time>2014-02-16T09:46:46Z</time>
      </trkpt>
      <trkpt lat="42.92007" lon="0.1187">
        <ele>2094</ele>
        <time>2014-02-16T09:47:00Z</time>
      </trkpt>
      <trkpt lat="42.92009" lon="0.11875">
        <ele>2095</ele>
        <time>2014-02-16T09:47:11Z</time>
      </trkpt>
      <trkpt lat="42.92011" lon="0.11884">
        <ele>2097</ele>
        <time>2014-02-16T09:47:25Z</time>
      </trkpt>
      <trkpt lat="42.92009" lon="0.11884">
        <ele>2097</ele>
        <time>2014-02-16T09:47:45Z</time>
      </trkpt>
      <trkpt lat="42.92026" lon="0.1189">
        <ele>2099</ele>
        <time>2014-02-16T09:48:02Z</time>
      </trkpt>
      <trkpt lat="42.92031" lon="0.11892">
        <ele>2100</ele>
        <time>2014-02-16T09:48:09Z</time>
      </trkpt>
      <trkpt lat="42.92037" lon="0.11894">
        <ele>2101</ele>
        <time>2014-02-16T09:48:24Z</time>
      </trkpt>
      <trkpt lat="42.92035" lon="0.11891">
        <ele>2101</ele>
        <time>2014-02-16T09:48:46Z</time>
      </trkpt>
      <trkpt lat="42.92043" lon="0.11894">
        <ele>2102</ele>
        <time>2014-02-16T09:49:03Z</time>
      </trkpt>
      <trkpt lat="42.92044" lon="0.11895">
        <ele>2103</ele>
        <time>2014-02-16T09:49:10Z</time>
      </trkpt>
      <trkpt lat="42.92058" lon="0.11894">
        <ele>2104</ele>
        <time>2014-02-16T09:49:25Z</time>
      </trkpt>
      <trkpt lat="42.92074" lon="0.11894">
        <ele>2105</ele>
        <time>2014-02-16T09:49:40Z</time>
      </trkpt>
      <trkpt lat="42.92087" lon="0.11906">
        <ele>2106</ele>
        <time>2014-02-16T09:49:54Z</time>
      </trkpt>
      <trkpt lat="42.92096" lon="0.1192">
        <ele>2105</ele>
        <time>2014-02-16T09:50:08Z</time>
      </trkpt>
      <trkpt lat="42.92099" lon="0.11927">
        <ele>2106</ele>
        <time>2014-02-16T09:50:15Z</time>
      </trkpt>
      <trkpt lat="42.92103" lon="0.11934">
        <ele>2106</ele>
        <time>2014-02-16T09:50:27Z</time>
      </trkpt>
      <trkpt lat="42.92113" lon="0.11937">
        <ele>2108</ele>
        <time>2014-02-16T09:50:45Z</time>
      </trkpt>
      <trkpt lat="42.92122" lon="0.11937">
        <ele>2110</ele>
        <time>2014-02-16T09:51:03Z</time>
      </trkpt>
      <trkpt lat="42.92132" lon="0.11934">
        <ele>2114</ele>
        <time>2014-02-16T09:51:18Z</time>
      </trkpt>
      <trkpt lat="42.9214" lon="0.11932">
        <ele>2115</ele>
        <time>2014-02-16T09:51:32Z</time>
      </trkpt>
      <trkpt lat="42.92148" lon="0.1193">
        <ele>2118</ele>
        <time>2014-02-16T09:51:48Z</time>
      </trkpt>
      <trkpt lat="42.92155" lon="0.11931">
        <ele>2121</ele>
        <time>2014-02-16T09:52:03Z</time>
      </trkpt>
      <trkpt lat="42.92164" lon="0.1193">
        <ele>2122</ele>
        <time>2014-02-16T09:52:19Z</time>
      </trkpt>
      <trkpt lat="42.92173" lon="0.11931">
        <ele>2124</ele>
        <time>2014-02-16T09:52:35Z</time>
      </trkpt>
      <trkpt lat="42.92177" lon="0.11932">
        <ele>2126</ele>
        <time>2014-02-16T09:52:39Z</time>
      </trkpt>
      <trkpt lat="42.92186" lon="0.11934">
        <ele>2127</ele>
        <time>2014-02-16T09:52:56Z</time>
      </trkpt>
      <trkpt lat="42.92193" lon="0.11936">
        <ele>2129</ele>
        <time>2014-02-16T09:53:11Z</time>
      </trkpt>
      <trkpt lat="42.92201" lon="0.11937">
        <ele>2132</ele>
        <time>2014-02-16T09:53:27Z</time>
      </trkpt>
      <trkpt lat="42.92211" lon="0.11941">
        <ele>2135</ele>
        <time>2014-02-16T09:53:43Z</time>
      </trkpt>
      <trkpt lat="42.92217" lon="0.11946">
        <ele>2137</ele>
        <time>2014-02-16T09:54:00Z</time>
      </trkpt>
      <trkpt lat="42.92225" lon="0.11956">
        <ele>2140</ele>
        <time>2014-02-16T09:54:15Z</time>
      </trkpt>
      <trkpt lat="42.9223" lon="0.11964">
        <ele>2141</ele>
        <time>2014-02-16T09:54:30Z</time>
      </trkpt>
      <trkpt lat="42.92239" lon="0.11976">
        <ele>2143</ele>
        <time>2014-02-16T09:54:45Z</time>
      </trkpt>
      <trkpt lat="42.92243" lon="0.11982">
        <ele>2145</ele>
        <time>2014-02-16T09:55:01Z</time>
      </trkpt>
      <trkpt lat="42.92248" lon="0.11989">
        <ele>2148</ele>
        <time>2014-02-16T09:55:14Z</time>
      </trkpt>
      <trkpt lat="42.92256" lon="0.11998">
        <ele>2149</ele>
        <time>2014-02-16T09:55:32Z</time>
      </trkpt>
      <trkpt lat="42.92263" lon="0.12006">
        <ele>2152</ele>
        <time>2014-02-16T09:55:51Z</time>
      </trkpt>
      <trkpt lat="42.92272" lon="0.12014">
        <ele>2155</ele>
        <time>2014-02-16T09:56:07Z</time>
      </trkpt>
      <trkpt lat="42.92279" lon="0.12025">
        <ele>2159</ele>
        <time>2014-02-16T09:56:26Z</time>
      </trkpt>
      <trkpt lat="42.92282" lon="0.12036">
        <ele>2162</ele>
        <time>2014-02-16T09:56:45Z</time>
      </trkpt>
      <trkpt lat="42.92287" lon="0.12052">
        <ele>2164</ele>
        <time>2014-02-16T09:57:04Z</time>
      </trkpt>
      <trkpt lat="42.92293" lon="0.12055">
        <ele>2166</ele>
        <time>2014-02-16T09:57:18Z</time>
      </trkpt>
      <trkpt lat="42.923" lon="0.12054">
        <ele>2169</ele>
        <time>2014-02-16T09:57:34Z</time>
      </trkpt>
      <trkpt lat="42.92309" lon="0.12055">
        <ele>2172</ele>
        <time>2014-02-16T09:57:50Z</time>
      </trkpt>
      <trkpt lat="42.92315" lon="0.12054">
        <ele>2174</ele>
        <time>2014-02-16T09:58:03Z</time>
      </trkpt>
      <trkpt lat="42.92324" lon="0.12054">
        <ele>2175</ele>
        <time>2014-02-16T09:58:18Z</time>
      </trkpt>
      <trkpt lat="42.92329" lon="0.12049">
        <ele>2178</ele>
        <time>2014-02-16T09:58:30Z</time>
      </trkpt>
      <trkpt lat="42.92336" lon="0.1204">
        <ele>2180</ele>
        <time>2014-02-16T09:58:48Z</time>
      </trkpt>
      <trkpt lat="42.92341" lon="0.1203">
        <ele>2183</ele>
        <time>2014-02-16T09:59:05Z</time>
      </trkpt>
      <trkpt lat="42.92347" lon="0.12026">
        <ele>2186</ele>
        <time>2014-02-16T09:59:21Z</time>
      </trkpt>
      <trkpt lat="42.9235" lon="0.12031">
        <ele>2186</ele>
        <time>2014-02-16T09:59:27Z</time>
      </trkpt>
      <trkpt lat="42.92358" lon="0.12036">
        <ele>2188</ele>
        <time>2014-02-16T09:59:40Z</time>
      </trkpt>
      <trkpt lat="42.92361" lon="0.12036">
        <ele>2189</ele>
        <time>2014-02-16T09:59:44Z</time>
      </trkpt>
      <trkpt lat="42.92373" lon="0.12036">
        <ele>2190</ele>
        <time>2014-02-16T10:00:00Z</time>
      </trkpt>
      <trkpt lat="42.92379" lon="0.12034">
        <ele>2191</ele>
        <time>2014-02-16T10:00:10Z</time>
      </trkpt>
      <trkpt lat="42.92388" lon="0.12035">
        <ele>2192</ele>
        <time>2014-02-16T10:00:24Z</time>
      </trkpt>
      <trkpt lat="42.92399" lon="0.12036">
        <ele>2195</ele>
        <time>2014-02-16T10:00:44Z</time>
      </trkpt>
      <trkpt lat="42.92409" lon="0.12034">
        <ele>2197</ele>
        <time>2014-02-16T10:01:01Z</time>
      </trkpt>
      <trkpt lat="42.92419" lon="0.12033">
        <ele>2198</ele>
        <time>2014-02-16T10:01:13Z</time>
      </trkpt>
      <trkpt lat="42.92427" lon="0.12031">
        <ele>2201</ele>
        <time>2014-02-16T10:01:29Z</time>
      </trkpt>
      <trkpt lat="42.92434" lon="0.12027">
        <ele>2204</ele>
        <time>2014-02-16T10:01:46Z</time>
      </trkpt>
      <trkpt lat="42.92444" lon="0.12025">
        <ele>2206</ele>
        <time>2014-02-16T10:02:00Z</time>
      </trkpt>
      <trkpt lat="42.92457" lon="0.12027">
        <ele>2208</ele>
        <time>2014-02-16T10:02:15Z</time>
      </trkpt>
      <trkpt lat="42.92462" lon="0.12029">
        <ele>2210</ele>
        <time>2014-02-16T10:02:27Z</time>
      </trkpt>
      <trkpt lat="42.92468" lon="0.12029">
        <ele>2211</ele>
        <time>2014-02-16T10:02:38Z</time>
      </trkpt>
      <trkpt lat="42.92478" lon="0.12032">
        <ele>2214</ele>
        <time>2014-02-16T10:02:58Z</time>
      </trkpt>
      <trkpt lat="42.92492" lon="0.12036">
        <ele>2216</ele>
        <time>2014-02-16T10:03:20Z</time>
      </trkpt>
      <trkpt lat="42.92502" lon="0.12036">
        <ele>2218</ele>
        <time>2014-02-16T10:03:36Z</time>
      </trkpt>
      <trkpt lat="42.9251" lon="0.12035">
        <ele>2221</ele>
        <time>2014-02-16T10:03:55Z</time>
      </trkpt>
      <trkpt lat="42.92519" lon="0.12031">
        <ele>2224</ele>
        <time>2014-02-16T10:04:10Z</time>
      </trkpt>
      <trkpt lat="42.9253" lon="0.12025">
        <ele>2226</ele>
        <time>2014-02-16T10:04:28Z</time>
      </trkpt>
      <trkpt lat="42.92537" lon="0.12021">
        <ele>2227</ele>
        <time>2014-02-16T10:04:44Z</time>
      </trkpt>
      <trkpt lat="42.92547" lon="0.12015">
        <ele>2229</ele>
        <time>2014-02-16T10:05:00Z</time>
      </trkpt>
      <trkpt lat="42.92557" lon="0.12007">
        <ele>2232</ele>
        <time>2014-02-16T10:05:17Z</time>
      </trkpt>
      <trkpt lat="42.92564" lon="0.12001">
        <ele>2234</ele>
        <time>2014-02-16T10:05:31Z</time>
      </trkpt>
      <trkpt lat="42.92571" lon="0.11997">
        <ele>2235</ele>
        <time>2014-02-16T10:05:43Z</time>
      </trkpt>
      <trkpt lat="42.92577" lon="0.11994">
        <ele>2238</ele>
        <time>2014-02-16T10:05:55Z</time>
      </trkpt>
      <trkpt lat="42.92584" lon="0.11989">
        <ele>2240</ele>
        <time>2014-02-16T10:06:10Z</time>
      </trkpt>
      <trkpt lat="42.92591" lon="0.11986">
        <ele>2241</ele>
        <time>2014-02-16T10:06:23Z</time>
      </trkpt>
      <trkpt lat="42.92598" lon="0.11982">
        <ele>2243</ele>
        <time>2014-02-16T10:06:36Z</time>
      </trkpt>
      <trkpt lat="42.92603" lon="0.11981">
        <ele>2244</ele>
        <time>2014-02-16T10:06:47Z</time>
      </trkpt>
      <trkpt lat="42.92612" lon="0.11979">
        <ele>2246</ele>
        <time>2014-02-16T10:07:01Z</time>
      </trkpt>
      <trkpt lat="42.92627" lon="0.11977">
        <ele>2246</ele>
        <time>2014-02-16T10:07:17Z</time>
      </trkpt>
      <trkpt lat="42.92629" lon="0.11975">
        <ele>2246</ele>
        <time>2014-02-16T10:07:32Z</time>
      </trkpt>
      <trkpt lat="42.92628" lon="0.11973">
        <ele>2247</ele>
        <time>2014-02-16T10:07:52Z</time>
      </trkpt>
      <trkpt lat="42.9263" lon="0.11976">
        <ele>2247</ele>
        <time>2014-02-16T10:08:08Z</time>
      </trkpt>
      <trkpt lat="42.92633" lon="0.11978">
        <ele>2247</ele>
        <time>2014-02-16T10:08:24Z</time>
      </trkpt>
      <trkpt lat="42.92629" lon="0.11977">
        <ele>2246</ele>
        <time>2014-02-16T10:08:53Z</time>
      </trkpt>
      <trkpt lat="42.92632" lon="0.11978">
        <ele>2247</ele>
        <time>2014-02-16T10:09:07Z</time>
      </trkpt>
      <trkpt lat="42.92631" lon="0.11977">
        <ele>2247</ele>
        <time>2014-02-16T10:09:31Z</time>
      </trkpt>
      <trkpt lat="42.92632" lon="0.11978">
        <ele>2246</ele>
        <time>2014-02-16T10:10:00Z</time>
      </trkpt>
      <trkpt lat="42.92632" lon="0.11976">
        <ele>2246</ele>
        <time>2014-02-16T10:10:14Z</time>
      </trkpt>
      <trkpt lat="42.92632" lon="0.11974">
        <ele>2246</ele>
        <time>2014-02-16T10:10:35Z</time>
      </trkpt>
      <trkpt lat="42.92634" lon="0.11977">
        <ele>2245</ele>
        <time>2014-02-16T10:10:58Z</time>
      </trkpt>
      <trkpt lat="42.92636" lon="0.11977">
        <ele>2246</ele>
        <time>2014-02-16T10:11:10Z</time>
      </trkpt>
      <trkpt lat="42.92646" lon="0.11975">
        <ele>2247</ele>
        <time>2014-02-16T10:11:24Z</time>
      </trkpt>
      <trkpt lat="42.92657" lon="0.11971">
        <ele>2250</ele>
        <time>2014-02-16T10:11:40Z</time>
      </trkpt>
      <trkpt lat="42.92663" lon="0.11966">
        <ele>2252</ele>
        <time>2014-02-16T10:11:57Z</time>
      </trkpt>
      <trkpt lat="42.92673" lon="0.11961">
        <ele>2254</ele>
        <time>2014-02-16T10:12:13Z</time>
      </trkpt>
      <trkpt lat="42.92684" lon="0.11957">
        <ele>2255</ele>
        <time>2014-02-16T10:12:29Z</time>
      </trkpt>
      <trkpt lat="42.92686" lon="0.11957">
        <ele>2256</ele>
        <time>2014-02-16T10:12:44Z</time>
      </trkpt>
      <trkpt lat="42.92691" lon="0.11958">
        <ele>2256</ele>
        <time>2014-02-16T10:13:13Z</time>
      </trkpt>
      <trkpt lat="42.92702" lon="0.11954">
        <ele>2258</ele>
        <time>2014-02-16T10:13:28Z</time>
      </trkpt>
      <trkpt lat="42.9271" lon="0.11952">
        <ele>2258</ele>
        <time>2014-02-16T10:13:41Z</time>
      </trkpt>
      <trkpt lat="42.92717" lon="0.1195">
        <ele>2259</ele>
        <time>2014-02-16T10:13:54Z</time>
      </trkpt>
      <trkpt lat="42.92721" lon="0.11948">
        <ele>2260</ele>
        <time>2014-02-16T10:14:01Z</time>
      </trkpt>
      <trkpt lat="42.92732" lon="0.11947">
        <ele>2262</ele>
        <time>2014-02-16T10:14:15Z</time>
      </trkpt>
      <trkpt lat="42.9274" lon="0.11945">
        <ele>2264</ele>
        <time>2014-02-16T10:14:28Z</time>
      </trkpt>
      <trkpt lat="42.92744" lon="0.11945">
        <ele>2265</ele>
        <time>2014-02-16T10:14:34Z</time>
      </trkpt>
      <trkpt lat="42.92753" lon="0.11942">
        <ele>2267</ele>
        <time>2014-02-16T10:14:49Z</time>
      </trkpt>
      <trkpt lat="42.92761" lon="0.1194">
        <ele>2268</ele>
        <time>2014-02-16T10:15:02Z</time>
      </trkpt>
      <trkpt lat="42.9277" lon="0.11937">
        <ele>2271</ele>
        <time>2014-02-16T10:15:18Z</time>
      </trkpt>
      <trkpt lat="42.92772" lon="0.11935">
        <ele>2271</ele>
        <time>2014-02-16T10:15:23Z</time>
      </trkpt>
      <trkpt lat="42.92781" lon="0.11935">
        <ele>2272</ele>
        <time>2014-02-16T10:15:37Z</time>
      </trkpt>
      <trkpt lat="42.9279" lon="0.11934">
        <ele>2274</ele>
        <time>2014-02-16T10:15:50Z</time>
      </trkpt>
      <trkpt lat="42.92801" lon="0.11932">
        <ele>2276</ele>
        <time>2014-02-16T10:16:06Z</time>
      </trkpt>
      <trkpt lat="42.92811" lon="0.11928">
        <ele>2278</ele>
        <time>2014-02-16T10:16:22Z</time>
      </trkpt>
      <trkpt lat="42.92816" lon="0.11925">
        <ele>2279</ele>
        <time>2014-02-16T10:16:35Z</time>
      </trkpt>
      <trkpt lat="42.92822" lon="0.11923">
        <ele>2280</ele>
        <time>2014-02-16T10:16:46Z</time>
      </trkpt>
      <trkpt lat="42.9283" lon="0.11922">
        <ele>2281</ele>
        <time>2014-02-16T10:17:01Z</time>
      </trkpt>
      <trkpt lat="42.92837" lon="0.11921">
        <ele>2283</ele>
        <time>2014-02-16T10:17:16Z</time>
      </trkpt>
      <trkpt lat="42.92845" lon="0.1192">
        <ele>2284</ele>
        <time>2014-02-16T10:17:28Z</time>
      </trkpt>
      <trkpt lat="42.92852" lon="0.11919">
        <ele>2286</ele>
        <time>2014-02-16T10:17:45Z</time>
      </trkpt>
      <trkpt lat="42.9286" lon="0.11918">
        <ele>2288</ele>
        <time>2014-02-16T10:18:01Z</time>
      </trkpt>
      <trkpt lat="42.92867" lon="0.11918">
        <ele>2289</ele>
        <time>2014-02-16T10:18:15Z</time>
      </trkpt>
      <trkpt lat="42.92873" lon="0.11917">
        <ele>2291</ele>
        <time>2014-02-16T10:18:30Z</time>
      </trkpt>
      <trkpt lat="42.92881" lon="0.11915">
        <ele>2292</ele>
        <time>2014-02-16T10:18:46Z</time>
      </trkpt>
      <trkpt lat="42.92889" lon="0.11916">
        <ele>2293</ele>
        <time>2014-02-16T10:18:59Z</time>
      </trkpt>
      <trkpt lat="42.92896" lon="0.11914">
        <ele>2294</ele>
        <time>2014-02-16T10:19:11Z</time>
      </trkpt>
      <trkpt lat="42.92903" lon="0.11913">
        <ele>2295</ele>
        <time>2014-02-16T10:19:25Z</time>
      </trkpt>
      <trkpt lat="42.92908" lon="0.11912">
        <ele>2296</ele>
        <time>2014-02-16T10:19:40Z</time>
      </trkpt>
      <trkpt lat="42.9291" lon="0.11911">
        <ele>2298</ele>
        <time>2014-02-16T10:19:58Z</time>
      </trkpt>
      <trkpt lat="42.92916" lon="0.11911">
        <ele>2298</ele>
        <time>2014-02-16T10:20:18Z</time>
      </trkpt>
      <trkpt lat="42.92924" lon="0.11914">
        <ele>2300</ele>
        <time>2014-02-16T10:20:32Z</time>
      </trkpt>
      <trkpt lat="42.92931" lon="0.11915">
        <ele>2301</ele>
        <time>2014-02-16T10:20:48Z</time>
      </trkpt>
      <trkpt lat="42.9294" lon="0.11919">
        <ele>2304</ele>
        <time>2014-02-16T10:21:06Z</time>
      </trkpt>
      <trkpt lat="42.92951" lon="0.11923">
        <ele>2306</ele>
        <time>2014-02-16T10:21:24Z</time>
      </trkpt>
      <trkpt lat="42.92952" lon="0.11923">
        <ele>2307</ele>
        <time>2014-02-16T10:21:26Z</time>
      </trkpt>
      <trkpt lat="42.92961" lon="0.11926">
        <ele>2309</ele>
        <time>2014-02-16T10:21:44Z</time>
      </trkpt>
      <trkpt lat="42.92966" lon="0.11927">
        <ele>2311</ele>
        <time>2014-02-16T10:21:57Z</time>
      </trkpt>
      <trkpt lat="42.92974" lon="0.11931">
        <ele>2314</ele>
        <time>2014-02-16T10:22:12Z</time>
      </trkpt>
      <trkpt lat="42.92976" lon="0.11932">
        <ele>2314</ele>
        <time>2014-02-16T10:22:22Z</time>
      </trkpt>
      <trkpt lat="42.92977" lon="0.11936">
        <ele>2314</ele>
        <time>2014-02-16T10:22:34Z</time>
      </trkpt>
      <trkpt lat="42.92972" lon="0.11939">
        <ele>2315</ele>
        <time>2014-02-16T10:22:51Z</time>
      </trkpt>
      <trkpt lat="42.92967" lon="0.11943">
        <ele>2316</ele>
        <time>2014-02-16T10:23:05Z</time>
      </trkpt>
      <trkpt lat="42.92963" lon="0.11947">
        <ele>2319</ele>
        <time>2014-02-16T10:23:17Z</time>
      </trkpt>
      <trkpt lat="42.92956" lon="0.11952">
        <ele>2321</ele>
        <time>2014-02-16T10:23:32Z</time>
      </trkpt>
      <trkpt lat="42.92949" lon="0.11958">
        <ele>2323</ele>
        <time>2014-02-16T10:23:45Z</time>
      </trkpt>
      <trkpt lat="42.92947" lon="0.11959">
        <ele>2325</ele>
        <time>2014-02-16T10:23:58Z</time>
      </trkpt>
      <trkpt lat="42.92952" lon="0.11964">
        <ele>2326</ele>
        <time>2014-02-16T10:24:09Z</time>
      </trkpt>
      <trkpt lat="42.92959" lon="0.1197">
        <ele>2328</ele>
        <time>2014-02-16T10:24:25Z</time>
      </trkpt>
      <trkpt lat="42.92967" lon="0.11975">
        <ele>2331</ele>
        <time>2014-02-16T10:24:43Z</time>
      </trkpt>
      <trkpt lat="42.92973" lon="0.11979">
        <ele>2333</ele>
        <time>2014-02-16T10:24:59Z</time>
      </trkpt>
      <trkpt lat="42.92979" lon="0.11985">
        <ele>2335</ele>
        <time>2014-02-16T10:25:14Z</time>
      </trkpt>
      <trkpt lat="42.92985" lon="0.1199">
        <ele>2338</ele>
        <time>2014-02-16T10:25:29Z</time>
      </trkpt>
      <trkpt lat="42.92989" lon="0.11993">
        <ele>2339</ele>
        <time>2014-02-16T10:25:42Z</time>
      </trkpt>
      <trkpt lat="42.92983" lon="0.11998">
        <ele>2340</ele>
        <time>2014-02-16T10:25:55Z</time>
      </trkpt>
      <trkpt lat="42.92976" lon="0.12004">
        <ele>2343</ele>
        <time>2014-02-16T10:26:12Z</time>
      </trkpt>
      <trkpt lat="42.92969" lon="0.12011">
        <ele>2346</ele>
        <time>2014-02-16T10:26:28Z</time>
      </trkpt>
      <trkpt lat="42.92965" lon="0.12018">
        <ele>2348</ele>
        <time>2014-02-16T10:26:46Z</time>
      </trkpt>
      <trkpt lat="42.9296" lon="0.12025">
        <ele>2350</ele>
        <time>2014-02-16T10:27:04Z</time>
      </trkpt>
      <trkpt lat="42.9296" lon="0.12029">
        <ele>2352</ele>
        <time>2014-02-16T10:27:11Z</time>
      </trkpt>
      <trkpt lat="42.92966" lon="0.12033">
        <ele>2353</ele>
        <time>2014-02-16T10:27:25Z</time>
      </trkpt>
      <trkpt lat="42.92972" lon="0.12037">
        <ele>2355</ele>
        <time>2014-02-16T10:27:39Z</time>
      </trkpt>
      <trkpt lat="42.92979" lon="0.1204">
        <ele>2358</ele>
        <time>2014-02-16T10:27:55Z</time>
      </trkpt>
      <trkpt lat="42.92986" lon="0.12042">
        <ele>2361</ele>
        <time>2014-02-16T10:28:12Z</time>
      </trkpt>
      <trkpt lat="42.92992" lon="0.12046">
        <ele>2363</ele>
        <time>2014-02-16T10:28:26Z</time>
      </trkpt>
      <trkpt lat="42.92999" lon="0.12049">
        <ele>2364</ele>
        <time>2014-02-16T10:28:42Z</time>
      </trkpt>
      <trkpt lat="42.93002" lon="0.12053">
        <ele>2366</ele>
        <time>2014-02-16T10:28:55Z</time>
      </trkpt>
      <trkpt lat="42.92995" lon="0.12061">
        <ele>2368</ele>
        <time>2014-02-16T10:29:11Z</time>
      </trkpt>
      <trkpt lat="42.9299" lon="0.12067">
        <ele>2370</ele>
        <time>2014-02-16T10:29:27Z</time>
      </trkpt>
      <trkpt lat="42.92986" lon="0.12075">
        <ele>2373</ele>
        <time>2014-02-16T10:29:45Z</time>
      </trkpt>
      <trkpt lat="42.92982" lon="0.12084">
        <ele>2376</ele>
        <time>2014-02-16T10:30:00Z</time>
      </trkpt>
      <trkpt lat="42.92975" lon="0.12092">
        <ele>2377</ele>
        <time>2014-02-16T10:30:16Z</time>
      </trkpt>
      <trkpt lat="42.92974" lon="0.12096">
        <ele>2378</ele>
        <time>2014-02-16T10:30:31Z</time>
      </trkpt>
      <trkpt lat="42.92974" lon="0.12099">
        <ele>2380</ele>
        <time>2014-02-16T10:30:41Z</time>
      </trkpt>
      <trkpt lat="42.92981" lon="0.12105">
        <ele>2382</ele>
        <time>2014-02-16T10:30:57Z</time>
      </trkpt>
      <trkpt lat="42.92989" lon="0.12109">
        <ele>2384</ele>
        <time>2014-02-16T10:31:13Z</time>
      </trkpt>
      <trkpt lat="42.92995" lon="0.12112">
        <ele>2388</ele>
        <time>2014-02-16T10:31:28Z</time>
      </trkpt>
      <trkpt lat="42.92997" lon="0.12116">
        <ele>2389</ele>
        <time>2014-02-16T10:31:48Z</time>
      </trkpt>
      <trkpt lat="42.93003" lon="0.12116">
        <ele>2391</ele>
        <time>2014-02-16T10:32:02Z</time>
      </trkpt>
      <trkpt lat="42.9301" lon="0.12118">
        <ele>2394</ele>
        <time>2014-02-16T10:32:19Z</time>
      </trkpt>
      <trkpt lat="42.93017" lon="0.12119">
        <ele>2397</ele>
        <time>2014-02-16T10:32:36Z</time>
      </trkpt>
      <trkpt lat="42.93023" lon="0.12119">
        <ele>2398</ele>
        <time>2014-02-16T10:32:49Z</time>
      </trkpt>
      <trkpt lat="42.93024" lon="0.1212">
        <ele>2400</ele>
        <time>2014-02-16T10:33:03Z</time>
      </trkpt>
      <trkpt lat="42.9302" lon="0.12129">
        <ele>2401</ele>
        <time>2014-02-16T10:33:19Z</time>
      </trkpt>
      <trkpt lat="42.93019" lon="0.12137">
        <ele>2403</ele>
        <time>2014-02-16T10:33:33Z</time>
      </trkpt>
      <trkpt lat="42.93016" lon="0.12145">
        <ele>2405</ele>
        <time>2014-02-16T10:33:48Z</time>
      </trkpt>
      <trkpt lat="42.93013" lon="0.12151">
        <ele>2407</ele>
        <time>2014-02-16T10:34:01Z</time>
      </trkpt>
      <trkpt lat="42.93008" lon="0.12161">
        <ele>2409</ele>
        <time>2014-02-16T10:34:16Z</time>
      </trkpt>
      <trkpt lat="42.93003" lon="0.12169">
        <ele>2413</ele>
        <time>2014-02-16T10:34:33Z</time>
      </trkpt>
      <trkpt lat="42.93002" lon="0.12172">
        <ele>2414</ele>
        <time>2014-02-16T10:34:50Z</time>
      </trkpt>
      <trkpt lat="42.93008" lon="0.12176">
        <ele>2415</ele>
        <time>2014-02-16T10:35:02Z</time>
      </trkpt>
      <trkpt lat="42.93014" lon="0.12181">
        <ele>2417</ele>
        <time>2014-02-16T10:35:17Z</time>
      </trkpt>
      <trkpt lat="42.93017" lon="0.12184">
        <ele>2420</ele>
        <time>2014-02-16T10:35:30Z</time>
      </trkpt>
      <trkpt lat="42.93022" lon="0.12185">
        <ele>2422</ele>
        <time>2014-02-16T10:35:45Z</time>
      </trkpt>
      <trkpt lat="42.93024" lon="0.12185">
        <ele>2423</ele>
        <time>2014-02-16T10:35:54Z</time>
      </trkpt>
      <trkpt lat="42.93031" lon="0.12185">
        <ele>2425</ele>
        <time>2014-02-16T10:36:09Z</time>
      </trkpt>
      <trkpt lat="42.93037" lon="0.12185">
        <ele>2426</ele>
        <time>2014-02-16T10:36:24Z</time>
      </trkpt>
      <trkpt lat="42.93042" lon="0.12181">
        <ele>2428</ele>
        <time>2014-02-16T10:36:39Z</time>
      </trkpt>
      <trkpt lat="42.93045" lon="0.12183">
        <ele>2427</ele>
        <time>2014-02-16T10:36:54Z</time>
      </trkpt>
      <trkpt lat="42.93045" lon="0.12189">
        <ele>2429</ele>
        <time>2014-02-16T10:37:05Z</time>
      </trkpt>
      <trkpt lat="42.93044" lon="0.12195">
        <ele>2431</ele>
        <time>2014-02-16T10:37:19Z</time>
      </trkpt>
      <trkpt lat="42.93041" lon="0.12203">
        <ele>2433</ele>
        <time>2014-02-16T10:37:32Z</time>
      </trkpt>
      <trkpt lat="42.93039" lon="0.12211">
        <ele>2435</ele>
        <time>2014-02-16T10:37:47Z</time>
      </trkpt>
      <trkpt lat="42.93034" lon="0.12218">
        <ele>2437</ele>
        <time>2014-02-16T10:38:01Z</time>
      </trkpt>
      <trkpt lat="42.93029" lon="0.12226">
        <ele>2440</ele>
        <time>2014-02-16T10:38:16Z</time>
      </trkpt>
      <trkpt lat="42.93024" lon="0.12233">
        <ele>2441</ele>
        <time>2014-02-16T10:38:29Z</time>
      </trkpt>
      <trkpt lat="42.9302" lon="0.12237">
        <ele>2444</ele>
        <time>2014-02-16T10:38:43Z</time>
      </trkpt>
      <trkpt lat="42.9302" lon="0.1224">
        <ele>2444</ele>
        <time>2014-02-16T10:38:58Z</time>
      </trkpt>
      <trkpt lat="42.93026" lon="0.12243">
        <ele>2447</ele>
        <time>2014-02-16T10:39:13Z</time>
      </trkpt>
      <trkpt lat="42.93036" lon="0.12246">
        <ele>2449</ele>
        <time>2014-02-16T10:39:28Z</time>
      </trkpt>
      <trkpt lat="42.93042" lon="0.12249">
        <ele>2451</ele>
        <time>2014-02-16T10:39:45Z</time>
      </trkpt>
      <trkpt lat="42.93049" lon="0.12251">
        <ele>2452</ele>
        <time>2014-02-16T10:40:00Z</time>
      </trkpt>
      <trkpt lat="42.9305" lon="0.12251">
        <ele>2454</ele>
        <time>2014-02-16T10:40:18Z</time>
      </trkpt>
      <trkpt lat="42.93057" lon="0.12248">
        <ele>2455</ele>
        <time>2014-02-16T10:40:31Z</time>
      </trkpt>
      <trkpt lat="42.93052" lon="0.12257">
        <ele>2457</ele>
        <time>2014-02-16T10:40:44Z</time>
      </trkpt>
      <trkpt lat="42.93047" lon="0.12265">
        <ele>2460</ele>
        <time>2014-02-16T10:41:02Z</time>
      </trkpt>
      <trkpt lat="42.93039" lon="0.12273">
        <ele>2463</ele>
        <time>2014-02-16T10:41:17Z</time>
      </trkpt>
      <trkpt lat="42.93034" lon="0.12279">
        <ele>2464</ele>
        <time>2014-02-16T10:41:31Z</time>
      </trkpt>
      <trkpt lat="42.9303" lon="0.12285">
        <ele>2465</ele>
        <time>2014-02-16T10:41:44Z</time>
      </trkpt>
      <trkpt lat="42.93034" lon="0.1228">
        <ele>2465</ele>
        <time>2014-02-16T10:41:56Z</time>
      </trkpt>
      <trkpt lat="42.93038" lon="0.12283">
        <ele>2467</ele>
        <time>2014-02-16T10:42:08Z</time>
      </trkpt>
      <trkpt lat="42.93046" lon="0.12285">
        <ele>2469</ele>
        <time>2014-02-16T10:42:22Z</time>
      </trkpt>
      <trkpt lat="42.93057" lon="0.12288">
        <ele>2472</ele>
        <time>2014-02-16T10:42:41Z</time>
      </trkpt>
      <trkpt lat="42.93065" lon="0.12288">
        <ele>2475</ele>
        <time>2014-02-16T10:42:58Z</time>
      </trkpt>
      <trkpt lat="42.93072" lon="0.12288">
        <ele>2476</ele>
        <time>2014-02-16T10:43:14Z</time>
      </trkpt>
      <trkpt lat="42.93075" lon="0.12287">
        <ele>2477</ele>
        <time>2014-02-16T10:43:33Z</time>
      </trkpt>
      <trkpt lat="42.93079" lon="0.12283">
        <ele>2478</ele>
        <time>2014-02-16T10:43:48Z</time>
      </trkpt>
      <trkpt lat="42.93074" lon="0.12293">
        <ele>2479</ele>
        <time>2014-02-16T10:44:02Z</time>
      </trkpt>
      <trkpt lat="42.9307" lon="0.123">
        <ele>2481</ele>
        <time>2014-02-16T10:44:14Z</time>
      </trkpt>
      <trkpt lat="42.93065" lon="0.12309">
        <ele>2483</ele>
        <time>2014-02-16T10:44:28Z</time>
      </trkpt>
      <trkpt lat="42.93061" lon="0.12315">
        <ele>2486</ele>
        <time>2014-02-16T10:44:42Z</time>
      </trkpt>
      <trkpt lat="42.93056" lon="0.12322">
        <ele>2488</ele>
        <time>2014-02-16T10:44:59Z</time>
      </trkpt>
      <trkpt lat="42.93052" lon="0.12327">
        <ele>2490</ele>
        <time>2014-02-16T10:45:14Z</time>
      </trkpt>
      <trkpt lat="42.9305" lon="0.12328">
        <ele>2491</ele>
        <time>2014-02-16T10:45:28Z</time>
      </trkpt>
      <trkpt lat="42.93056" lon="0.12332">
        <ele>2492</ele>
        <time>2014-02-16T10:45:41Z</time>
      </trkpt>
      <trkpt lat="42.93062" lon="0.12337">
        <ele>2496</ele>
        <time>2014-02-16T10:45:57Z</time>
      </trkpt>
      <trkpt lat="42.93071" lon="0.12339">
        <ele>2498</ele>
        <time>2014-02-16T10:46:17Z</time>
      </trkpt>
      <trkpt lat="42.9308" lon="0.12338">
        <ele>2501</ele>
        <time>2014-02-16T10:46:33Z</time>
      </trkpt>
      <trkpt lat="42.93086" lon="0.12337">
        <ele>2503</ele>
        <time>2014-02-16T10:46:48Z</time>
      </trkpt>
      <trkpt lat="42.93088" lon="0.12336">
        <ele>2504</ele>
        <time>2014-02-16T10:47:06Z</time>
      </trkpt>
      <trkpt lat="42.93092" lon="0.12334">
        <ele>2504</ele>
        <time>2014-02-16T10:47:21Z</time>
      </trkpt>
      <trkpt lat="42.93089" lon="0.12344">
        <ele>2506</ele>
        <time>2014-02-16T10:47:36Z</time>
      </trkpt>
      <trkpt lat="42.93085" lon="0.12351">
        <ele>2508</ele>
        <time>2014-02-16T10:47:49Z</time>
      </trkpt>
      <trkpt lat="42.93079" lon="0.12361">
        <ele>2512</ele>
        <time>2014-02-16T10:48:07Z</time>
      </trkpt>
      <trkpt lat="42.9308" lon="0.12359">
        <ele>2511</ele>
        <time>2014-02-16T10:48:28Z</time>
      </trkpt>
      <trkpt lat="42.93077" lon="0.12361">
        <ele>2512</ele>
        <time>2014-02-16T10:48:47Z</time>
      </trkpt>
      <trkpt lat="42.93077" lon="0.12364">
        <ele>2512</ele>
        <time>2014-02-16T10:48:59Z</time>
      </trkpt>
      <trkpt lat="42.9308" lon="0.12365">
        <ele>2513</ele>
        <time>2014-02-16T10:49:15Z</time>
      </trkpt>
      <trkpt lat="42.93089" lon="0.12363">
        <ele>2516</ele>
        <time>2014-02-16T10:49:32Z</time>
      </trkpt>
      <trkpt lat="42.93096" lon="0.12361">
        <ele>2519</ele>
        <time>2014-02-16T10:49:49Z</time>
      </trkpt>
      <trkpt lat="42.931" lon="0.12358">
        <ele>2518</ele>
        <time>2014-02-16T10:50:02Z</time>
      </trkpt>
      <trkpt lat="42.93099" lon="0.12365">
        <ele>2520</ele>
        <time>2014-02-16T10:50:17Z</time>
      </trkpt>
      <trkpt lat="42.93094" lon="0.12374">
        <ele>2522</ele>
        <time>2014-02-16T10:50:30Z</time>
      </trkpt>
      <trkpt lat="42.9309" lon="0.12385">
        <ele>2525</ele>
        <time>2014-02-16T10:50:47Z</time>
      </trkpt>
      <trkpt lat="42.93089" lon="0.12386">
        <ele>2526</ele>
        <time>2014-02-16T10:51:00Z</time>
      </trkpt>
      <trkpt lat="42.93089" lon="0.12386">
        <ele>2527</ele>
        <time>2014-02-16T10:51:13Z</time>
      </trkpt>
      <trkpt lat="42.93094" lon="0.12387">
        <ele>2528</ele>
        <time>2014-02-16T10:51:25Z</time>
      </trkpt>
      <trkpt lat="42.93098" lon="0.12386">
        <ele>2529</ele>
        <time>2014-02-16T10:51:43Z</time>
      </trkpt>
      <trkpt lat="42.93098" lon="0.12388">
        <ele>2529</ele>
        <time>2014-02-16T10:51:55Z</time>
      </trkpt>
      <trkpt lat="42.93093" lon="0.12395">
        <ele>2531</ele>
        <time>2014-02-16T10:52:06Z</time>
      </trkpt>
      <trkpt lat="42.9309" lon="0.12399">
        <ele>2533</ele>
        <time>2014-02-16T10:52:18Z</time>
      </trkpt>
      <trkpt lat="42.93089" lon="0.124">
        <ele>2533</ele>
        <time>2014-02-16T10:52:32Z</time>
      </trkpt>
      <trkpt lat="42.93088" lon="0.12403">
        <ele>2534</ele>
        <time>2014-02-16T10:52:45Z</time>
      </trkpt>
      <trkpt lat="42.93087" lon="0.12405">
        <ele>2534</ele>
        <time>2014-02-16T10:52:56Z</time>
      </trkpt>
      <trkpt lat="42.93094" lon="0.12404">
        <ele>2536</ele>
        <time>2014-02-16T10:53:08Z</time>
      </trkpt>
      <trkpt lat="42.93097" lon="0.12401">
        <ele>2537</ele>
        <time>2014-02-16T10:53:24Z</time>
      </trkpt>
      <trkpt lat="42.931" lon="0.12402">
        <ele>2537</ele>
        <time>2014-02-16T10:53:42Z</time>
      </trkpt>
      <trkpt lat="42.931" lon="0.12402">
        <ele>2538</ele>
        <time>2014-02-16T10:54:01Z</time>
      </trkpt>
      <trkpt lat="42.93103" lon="0.12401">
        <ele>2538</ele>
        <time>2014-02-16T10:54:18Z</time>
      </trkpt>
      <trkpt lat="42.93102" lon="0.12405">
        <ele>2539</ele>
        <time>2014-02-16T10:54:30Z</time>
      </trkpt>
      <trkpt lat="42.931" lon="0.12409">
        <ele>2540</ele>
        <time>2014-02-16T10:54:40Z</time>
      </trkpt>
      <trkpt lat="42.93098" lon="0.12411">
        <ele>2540</ele>
        <time>2014-02-16T10:54:54Z</time>
      </trkpt>
      <trkpt lat="42.93096" lon="0.12414">
        <ele>2541</ele>
        <time>2014-02-16T10:55:04Z</time>
      </trkpt>
      <trkpt lat="42.93093" lon="0.12418">
        <ele>2542</ele>
        <time>2014-02-16T10:55:20Z</time>
      </trkpt>
      <trkpt lat="42.93091" lon="0.12421">
        <ele>2543</ele>
        <time>2014-02-16T10:55:30Z</time>
      </trkpt>
      <trkpt lat="42.93089" lon="0.12422">
        <ele>2544</ele>
        <time>2014-02-16T10:55:41Z</time>
      </trkpt>
      <trkpt lat="42.93088" lon="0.12423">
        <ele>2545</ele>
        <time>2014-02-16T10:56:02Z</time>
      </trkpt>
      <trkpt lat="42.93087" lon="0.12426">
        <ele>2546</ele>
        <time>2014-02-16T10:56:15Z</time>
      </trkpt>
      <trkpt lat="42.93088" lon="0.12428">
        <ele>2547</ele>
        <time>2014-02-16T10:56:28Z</time>
      </trkpt>
      <trkpt lat="42.93091" lon="0.12429">
        <ele>2547</ele>
        <time>2014-02-16T10:56:46Z</time>
      </trkpt>
      <trkpt lat="42.93091" lon="0.12429">
        <ele>2548</ele>
        <time>2014-02-16T10:57:02Z</time>
      </trkpt>
      <trkpt lat="42.93095" lon="0.1243">
        <ele>2549</ele>
        <time>2014-02-16T10:57:14Z</time>
      </trkpt>
      <trkpt lat="42.93097" lon="0.12431">
        <ele>2549</ele>
        <time>2014-02-16T10:57:37Z</time>
      </trkpt>
      <trkpt lat="42.93098" lon="0.12431">
        <ele>2550</ele>
        <time>2014-02-16T10:57:54Z</time>
      </trkpt>
      <trkpt lat="42.93099" lon="0.12429">
        <ele>2550</ele>
        <time>2014-02-16T10:58:12Z</time>
      </trkpt>
      <trkpt lat="42.93096" lon="0.12435">
        <ele>2551</ele>
        <time>2014-02-16T10:58:26Z</time>
      </trkpt>
      <trkpt lat="42.93092" lon="0.12439">
        <ele>2552</ele>
        <time>2014-02-16T10:58:43Z</time>
      </trkpt>
      <trkpt lat="42.93089" lon="0.12442">
        <ele>2553</ele>
        <time>2014-02-16T10:58:54Z</time>
      </trkpt>
      <trkpt lat="42.93088" lon="0.12444">
        <ele>2554</ele>
        <time>2014-02-16T10:59:16Z</time>
      </trkpt>
      <trkpt lat="42.93091" lon="0.12445">
        <ele>2555</ele>
        <time>2014-02-16T10:59:27Z</time>
      </trkpt>
      <trkpt lat="42.93096" lon="0.12444">
        <ele>2556</ele>
        <time>2014-02-16T10:59:41Z</time>
      </trkpt>
      <trkpt lat="42.93098" lon="0.12443">
        <ele>2555</ele>
        <time>2014-02-16T11:00:00Z</time>
      </trkpt>
      <trkpt lat="42.93096" lon="0.12448">
        <ele>2556</ele>
        <time>2014-02-16T11:00:14Z</time>
      </trkpt>
      <trkpt lat="42.93093" lon="0.12452">
        <ele>2558</ele>
        <time>2014-02-16T11:00:24Z</time>
      </trkpt>
      <trkpt lat="42.93091" lon="0.12453">
        <ele>2559</ele>
        <time>2014-02-16T11:00:35Z</time>
      </trkpt>
      <trkpt lat="42.93098" lon="0.12457">
        <ele>2560</ele>
        <time>2014-02-16T11:00:48Z</time>
      </trkpt>
      <trkpt lat="42.93102" lon="0.12458">
        <ele>2561</ele>
        <time>2014-02-16T11:01:01Z</time>
      </trkpt>
      <trkpt lat="42.93102" lon="0.12461">
        <ele>2561</ele>
        <time>2014-02-16T11:01:18Z</time>
      </trkpt>
      <trkpt lat="42.93102" lon="0.12464">
        <ele>2562</ele>
        <time>2014-02-16T11:01:27Z</time>
      </trkpt>
      <trkpt lat="42.93101" lon="0.12461">
        <ele>2562</ele>
        <time>2014-02-16T11:01:48Z</time>
      </trkpt>
      <trkpt lat="42.93101" lon="0.12462">
        <ele>2562</ele>
        <time>2014-02-16T11:02:01Z</time>
      </trkpt>
      <trkpt lat="42.93101" lon="0.12463">
        <ele>2562</ele>
        <time>2014-02-16T11:02:23Z</time>
      </trkpt>
      <trkpt lat="42.93099" lon="0.12463">
        <ele>2562</ele>
        <time>2014-02-16T11:02:37Z</time>
      </trkpt>
      <trkpt lat="42.93099" lon="0.12461">
        <ele>2562</ele>
        <time>2014-02-16T11:03:01Z</time>
      </trkpt>
      <trkpt lat="42.931" lon="0.12462">
        <ele>2562</ele>
        <time>2014-02-16T11:03:23Z</time>
      </trkpt>
      <trkpt lat="42.93099" lon="0.12464">
        <ele>2562</ele>
        <time>2014-02-16T11:03:42Z</time>
      </trkpt>
      <trkpt lat="42.931" lon="0.12466">
        <ele>2563</ele>
        <time>2014-02-16T11:04:05Z</time>
      </trkpt>
      <trkpt lat="42.93099" lon="0.12464">
        <ele>2562</ele>
        <time>2014-02-16T11:04:26Z</time>
      </trkpt>
      <trkpt lat="42.93101" lon="0.12463">
        <ele>2562</ele>
        <time>2014-02-16T11:04:49Z</time>
      </trkpt>
      <trkpt lat="42.93099" lon="0.12465">
        <ele>2561</ele>
        <time>2014-02-16T11:05:07Z</time>
      </trkpt>
      <trkpt lat="42.93098" lon="0.12464">
        <ele>2561</ele>
        <time>2014-02-16T11:05:33Z</time>
      </trkpt>
      <trkpt lat="42.93099" lon="0.12466">
        <ele>2562</ele>
        <time>2014-02-16T11:06:14Z</time>
      </trkpt>
      <trkpt lat="42.931" lon="0.12464">
        <ele>2562</ele>
        <time>2014-02-16T11:06:55Z</time>
      </trkpt>
      <trkpt lat="42.931" lon="0.12462">
        <ele>2563</ele>
        <time>2014-02-16T11:07:30Z</time>
      </trkpt>
      <trkpt lat="42.931" lon="0.12467">
        <ele>2562</ele>
        <time>2014-02-16T11:08:00Z</time>
      </trkpt>
      <trkpt lat="42.93099" lon="0.12468">
        <ele>2562</ele>
        <time>2014-02-16T11:08:30Z</time>
      </trkpt>
      <trkpt lat="42.93102" lon="0.12464">
        <ele>2561</ele>
        <time>2014-02-16T11:09:04Z</time>
      </trkpt>
      <trkpt lat="42.93103" lon="0.12471">
        <ele>2561</ele>
        <time>2014-02-16T11:09:31Z</time>
      </trkpt>
      <trkpt lat="42.93105" lon="0.12468">
        <ele>2561</ele>
        <time>2014-02-16T11:10:05Z</time>
      </trkpt>
      <trkpt lat="42.93116" lon="0.1247">
        <ele>2561</ele>
        <time>2014-02-16T11:10:46Z</time>
      </trkpt>
      <trkpt lat="42.93111" lon="0.12466">
        <ele>2562</ele>
        <time>2014-02-16T11:11:23Z</time>
      </trkpt>
      <trkpt lat="42.93114" lon="0.12464">
        <ele>2562</ele>
        <time>2014-02-16T11:12:01Z</time>
      </trkpt>
      <trkpt lat="42.93115" lon="0.12466">
        <ele>2563</ele>
        <time>2014-02-16T11:12:41Z</time>
      </trkpt>
      <trkpt lat="42.93106" lon="0.12467">
        <ele>2563</ele>
        <time>2014-02-16T11:13:20Z</time>
      </trkpt>
      <trkpt lat="42.93104" lon="0.12469">
        <ele>2563</ele>
        <time>2014-02-16T11:14:00Z</time>
      </trkpt>
      <trkpt lat="42.93101" lon="0.12466">
        <ele>2564</ele>
        <time>2014-02-16T11:14:35Z</time>
      </trkpt>
      <trkpt lat="42.93097" lon="0.12467">
        <ele>2564</ele>
        <time>2014-02-16T11:15:08Z</time>
      </trkpt>
      <trkpt lat="42.93103" lon="0.12471">
        <ele>2564</ele>
        <time>2014-02-16T11:16:01Z</time>
      </trkpt>
      <trkpt lat="42.93099" lon="0.1247">
        <ele>2563</ele>
        <time>2014-02-16T11:16:52Z</time>
      </trkpt>
      <trkpt lat="42.93101" lon="0.1247">
        <ele>2563</ele>
        <time>2014-02-16T11:17:38Z</time>
      </trkpt>
      <trkpt lat="42.931" lon="0.12469">
        <ele>2563</ele>
        <time>2014-02-16T11:18:14Z</time>
      </trkpt>
      <trkpt lat="42.931" lon="0.12471">
        <ele>2563</ele>
        <time>2014-02-16T11:19:02Z</time>
      </trkpt>
      <trkpt lat="42.93107" lon="0.12472">
        <ele>2563</ele>
        <time>2014-02-16T11:19:44Z</time>
      </trkpt>
      <trkpt lat="42.93106" lon="0.1247">
        <ele>2563</ele>
        <time>2014-02-16T11:20:26Z</time>
      </trkpt>
      <trkpt lat="42.93097" lon="0.1247">
        <ele>2563</ele>
        <time>2014-02-16T11:21:06Z</time>
      </trkpt>
      <trkpt lat="42.93099" lon="0.12471">
        <ele>2562</ele>
        <time>2014-02-16T11:21:47Z</time>
      </trkpt>
      <trkpt lat="42.93099" lon="0.12466">
        <ele>2562</ele>
        <time>2014-02-16T11:22:21Z</time>
      </trkpt>
      <trkpt lat="42.93101" lon="0.12468">
        <ele>2562</ele>
        <time>2014-02-16T11:22:54Z</time>
      </trkpt>
      <trkpt lat="42.93101" lon="0.12461">
        <ele>2562</ele>
        <time>2014-02-16T11:23:25Z</time>
      </trkpt>
      <trkpt lat="42.93101" lon="0.12464">
        <ele>2562</ele>
        <time>2014-02-16T11:23:41Z</time>
      </trkpt>
      <trkpt lat="42.93103" lon="0.12469">
        <ele>2562</ele>
        <time>2014-02-16T11:24:10Z</time>
      </trkpt>
      <trkpt lat="42.93104" lon="0.12471">
        <ele>2562</ele>
        <time>2014-02-16T11:24:40Z</time>
      </trkpt>
      <trkpt lat="42.93101" lon="0.12469">
        <ele>2562</ele>
        <time>2014-02-16T11:25:20Z</time>
      </trkpt>
      <trkpt lat="42.93099" lon="0.12465">
        <ele>2562</ele>
        <time>2014-02-16T11:25:44Z</time>
      </trkpt>
      <trkpt lat="42.93096" lon="0.12463">
        <ele>2562</ele>
        <time>2014-02-16T11:26:13Z</time>
      </trkpt>
      <trkpt lat="42.9309" lon="0.12462">
        <ele>2562</ele>
        <time>2014-02-16T11:26:56Z</time>
      </trkpt>
      <trkpt lat="42.93091" lon="0.12464">
        <ele>2562</ele>
        <time>2014-02-16T11:27:31Z</time>
      </trkpt>
      <trkpt lat="42.93087" lon="0.12464">
        <ele>2562</ele>
        <time>2014-02-16T11:28:13Z</time>
      </trkpt>
      <trkpt lat="42.93084" lon="0.12467">
        <ele>2563</ele>
        <time>2014-02-16T11:28:56Z</time>
      </trkpt>
      <trkpt lat="42.93085" lon="0.1247">
        <ele>2562</ele>
        <time>2014-02-16T11:29:40Z</time>
      </trkpt>
      <trkpt lat="42.93086" lon="0.12467">
        <ele>2563</ele>
        <time>2014-02-16T11:30:18Z</time>
      </trkpt>
      <trkpt lat="42.93081" lon="0.12469">
        <ele>2563</ele>
        <time>2014-02-16T11:31:04Z</time>
      </trkpt>
      <trkpt lat="42.93088" lon="0.12469">
        <ele>2563</ele>
        <time>2014-02-16T11:31:43Z</time>
      </trkpt>
      <trkpt lat="42.9309" lon="0.12468">
        <ele>2563</ele>
        <time>2014-02-16T11:32:26Z</time>
      </trkpt>
      <trkpt lat="42.93088" lon="0.12465">
        <ele>2564</ele>
        <time>2014-02-16T11:33:07Z</time>
      </trkpt>
      <trkpt lat="42.93092" lon="0.1246">
        <ele>2564</ele>
        <time>2014-02-16T11:33:45Z</time>
      </trkpt>
      <trkpt lat="42.93089" lon="0.12461">
        <ele>2564</ele>
        <time>2014-02-16T11:34:30Z</time>
      </trkpt>
      <trkpt lat="42.93086" lon="0.12463">
        <ele>2564</ele>
        <time>2014-02-16T11:35:12Z</time>
      </trkpt>
      <trkpt lat="42.93088" lon="0.12465">
        <ele>2564</ele>
        <time>2014-02-16T11:35:52Z</time>
      </trkpt>
      <trkpt lat="42.93086" lon="0.12461">
        <ele>2564</ele>
        <time>2014-02-16T11:36:34Z</time>
      </trkpt>
      <trkpt lat="42.93088" lon="0.12465">
        <ele>2564</ele>
        <time>2014-02-16T11:37:09Z</time>
      </trkpt>
      <trkpt lat="42.93094" lon="0.12463">
        <ele>2564</ele>
        <time>2014-02-16T11:37:50Z</time>
      </trkpt>
      <trkpt lat="42.93091" lon="0.12456">
        <ele>2565</ele>
        <time>2014-02-16T11:38:24Z</time>
      </trkpt>
      <trkpt lat="42.93088" lon="0.12454">
        <ele>2565</ele>
        <time>2014-02-16T11:39:03Z</time>
      </trkpt>
      <trkpt lat="42.93085" lon="0.12455">
        <ele>2565</ele>
        <time>2014-02-16T11:39:32Z</time>
      </trkpt>
      <trkpt lat="42.93087" lon="0.1246">
        <ele>2565</ele>
        <time>2014-02-16T11:40:06Z</time>
      </trkpt>
      <trkpt lat="42.93089" lon="0.12466">
        <ele>2566</ele>
        <time>2014-02-16T11:40:38Z</time>
      </trkpt>
      <trkpt lat="42.93091" lon="0.12465">
        <ele>2566</ele>
        <time>2014-02-16T11:41:21Z</time>
      </trkpt>
      <trkpt lat="42.93104" lon="0.12469">
        <ele>2567</ele>
        <time>2014-02-16T11:41:54Z</time>
      </trkpt>
      <trkpt lat="42.93101" lon="0.12466">
        <ele>2567</ele>
        <time>2014-02-16T11:42:30Z</time>
      </trkpt>
      <trkpt lat="42.931" lon="0.12463">
        <ele>2567</ele>
        <time>2014-02-16T11:43:11Z</time>
      </trkpt>
      <trkpt lat="42.93098" lon="0.12464">
        <ele>2567</ele>
        <time>2014-02-16T11:43:49Z</time>
      </trkpt>
      <trkpt lat="42.93091" lon="0.12469">
        <ele>2567</ele>
        <time>2014-02-16T11:44:32Z</time>
      </trkpt>
      <trkpt lat="42.93089" lon="0.12469">
        <ele>2566</ele>
        <time>2014-02-16T11:45:10Z</time>
      </trkpt>
      <trkpt lat="42.93086" lon="0.12463">
        <ele>2566</ele>
        <time>2014-02-16T11:45:48Z</time>
      </trkpt>
      <trkpt lat="42.93086" lon="0.12458">
        <ele>2566</ele>
        <time>2014-02-16T11:46:31Z</time>
      </trkpt>
      <trkpt lat="42.93091" lon="0.12453">
        <ele>2566</ele>
        <time>2014-02-16T11:47:15Z</time>
      </trkpt>
      <trkpt lat="42.93095" lon="0.12454">
        <ele>2566</ele>
        <time>2014-02-16T11:48:06Z</time>
      </trkpt>
      <trkpt lat="42.93095" lon="0.12456">
        <ele>2566</ele>
        <time>2014-02-16T11:48:49Z</time>
      </trkpt>
      <trkpt lat="42.93095" lon="0.12455">
        <ele>2566</ele>
        <time>2014-02-16T11:49:34Z</time>
      </trkpt>
      <trkpt lat="42.93095" lon="0.12454">
        <ele>2565</ele>
        <time>2014-02-16T11:50:24Z</time>
      </trkpt>
      <trkpt lat="42.93096" lon="0.12452">
        <ele>2565</ele>
        <time>2014-02-16T11:51:12Z</time>
      </trkpt>
      <trkpt lat="42.93095" lon="0.12451">
        <ele>2565</ele>
        <time>2014-02-16T11:51:57Z</time>
      </trkpt>
      <trkpt lat="42.931" lon="0.12453">
        <ele>2564</ele>
        <time>2014-02-16T11:52:38Z</time>
      </trkpt>
      <trkpt lat="42.93098" lon="0.12454">
        <ele>2564</ele>
        <time>2014-02-16T11:53:33Z</time>
      </trkpt>
      <trkpt lat="42.93101" lon="0.12454">
        <ele>2564</ele>
        <time>2014-02-16T11:54:29Z</time>
      </trkpt>
      <trkpt lat="42.93102" lon="0.12458">
        <ele>2564</ele>
        <time>2014-02-16T11:55:08Z</time>
      </trkpt>
      <trkpt lat="42.93098" lon="0.12457">
        <ele>2563</ele>
        <time>2014-02-16T11:55:58Z</time>
      </trkpt>
      <trkpt lat="42.93099" lon="0.1246">
        <ele>2563</ele>
        <time>2014-02-16T11:56:38Z</time>
      </trkpt>
      <trkpt lat="42.93101" lon="0.12462">
        <ele>2564</ele>
        <time>2014-02-16T11:57:20Z</time>
      </trkpt>
      <trkpt lat="42.93098" lon="0.12459">
        <ele>2563</ele>
        <time>2014-02-16T11:58:03Z</time>
      </trkpt>
      <trkpt lat="42.93096" lon="0.1246">
        <ele>2563</ele>
        <time>2014-02-16T11:58:42Z</time>
      </trkpt>
      <trkpt lat="42.93089" lon="0.12453">
        <ele>2563</ele>
        <time>2014-02-16T11:59:17Z</time>
      </trkpt>
      <trkpt lat="42.93094" lon="0.12453">
        <ele>2562</ele>
        <time>2014-02-16T11:59:54Z</time>
      </trkpt>
      <trkpt lat="42.93098" lon="0.12454">
        <ele>2563</ele>
        <time>2014-02-16T12:00:33Z</time>
      </trkpt>
      <trkpt lat="42.93096" lon="0.12449">
        <ele>2562</ele>
        <time>2014-02-16T12:01:10Z</time>
      </trkpt>
      <trkpt lat="42.93098" lon="0.12454">
        <ele>2562</ele>
        <time>2014-02-16T12:01:50Z</time>
      </trkpt>
      <trkpt lat="42.93101" lon="0.12461">
        <ele>2562</ele>
        <time>2014-02-16T12:02:28Z</time>
      </trkpt>
      <trkpt lat="42.93097" lon="0.12466">
        <ele>2562</ele>
        <time>2014-02-16T12:03:03Z</time>
      </trkpt>
      <trkpt lat="42.93095" lon="0.12464">
        <ele>2562</ele>
        <time>2014-02-16T12:03:32Z</time>
      </trkpt>
      <trkpt lat="42.93093" lon="0.12462">
        <ele>2562</ele>
        <time>2014-02-16T12:04:11Z</time>
      </trkpt>
      <trkpt lat="42.93098" lon="0.1246">
        <ele>2562</ele>
        <time>2014-02-16T12:04:47Z</time>
      </trkpt>
      <trkpt lat="42.93101" lon="0.12458">
        <ele>2562</ele>
        <time>2014-02-16T12:05:31Z</time>
      </trkpt>
      <trkpt lat="42.93102" lon="0.12459">
        <ele>2562</ele>
        <time>2014-02-16T12:06:08Z</time>
      </trkpt>
      <trkpt lat="42.93101" lon="0.12458">
        <ele>2562</ele>
        <time>2014-02-16T12:06:51Z</time>
      </trkpt>
      <trkpt lat="42.93099" lon="0.12456">
        <ele>2561</ele>
        <time>2014-02-16T12:07:24Z</time>
      </trkpt>
      <trkpt lat="42.93101" lon="0.12456">
        <ele>2562</ele>
        <time>2014-02-16T12:08:04Z</time>
      </trkpt>
      <trkpt lat="42.931" lon="0.12455">
        <ele>2562</ele>
        <time>2014-02-16T12:08:51Z</time>
      </trkpt>
      <trkpt lat="42.931" lon="0.12456">
        <ele>2562</ele>
        <time>2014-02-16T12:09:38Z</time>
      </trkpt>
      <trkpt lat="42.93103" lon="0.12451">
        <ele>2563</ele>
        <time>2014-02-16T12:10:18Z</time>
      </trkpt>
      <trkpt lat="42.93102" lon="0.12453">
        <ele>2563</ele>
        <time>2014-02-16T12:10:36Z</time>
      </trkpt>
      <trkpt lat="42.93102" lon="0.12454">
        <ele>2563</ele>
        <time>2014-02-16T12:11:01Z</time>
      </trkpt>
      <trkpt lat="42.93103" lon="0.12464">
        <ele>2563</ele>
        <time>2014-02-16T12:11:17Z</time>
      </trkpt>
      <trkpt lat="42.93103" lon="0.12463">
        <ele>2563</ele>
        <time>2014-02-16T12:11:40Z</time>
      </trkpt>
      <trkpt lat="42.93103" lon="0.12464">
        <ele>2563</ele>
        <time>2014-02-16T12:11:59Z</time>
      </trkpt>
      <trkpt lat="42.93102" lon="0.12462">
        <ele>2563</ele>
        <time>2014-02-16T12:12:20Z</time>
      </trkpt>
      <trkpt lat="42.93103" lon="0.12467">
        <ele>2563</ele>
        <time>2014-02-16T12:12:35Z</time>
      </trkpt>
      <trkpt lat="42.93102" lon="0.12465">
        <ele>2563</ele>
        <time>2014-02-16T12:12:56Z</time>
      </trkpt>
      <trkpt lat="42.93101" lon="0.12462">
        <ele>2562</ele>
        <time>2014-02-16T12:13:11Z</time>
      </trkpt>
      <trkpt lat="42.93102" lon="0.12462">
        <ele>2563</ele>
        <time>2014-02-16T12:13:40Z</time>
      </trkpt>
      <trkpt lat="42.93101" lon="0.12464">
        <ele>2562</ele>
        <time>2014-02-16T12:14:01Z</time>
      </trkpt>
      <trkpt lat="42.93099" lon="0.12461">
        <ele>2562</ele>
        <time>2014-02-16T12:14:19Z</time>
      </trkpt>
      <trkpt lat="42.931" lon="0.12465">
        <ele>2561</ele>
        <time>2014-02-16T12:14:42Z</time>
      </trkpt>
      <trkpt lat="42.93099" lon="0.12465">
        <ele>2561</ele>
        <time>2014-02-16T12:14:43Z</time>
      </trkpt>
      <trkpt lat="42.93088" lon="0.1246">
        <ele>2559</ele>
        <time>2014-02-16T12:14:52Z</time>
      </trkpt>
      <trkpt lat="42.93082" lon="0.12458">
        <ele>2558</ele>
        <time>2014-02-16T12:14:56Z</time>
      </trkpt>
      <trkpt lat="42.93067" lon="0.12451">
        <ele>2555</ele>
        <time>2014-02-16T12:15:07Z</time>
      </trkpt>
      <trkpt lat="42.9307" lon="0.12445">
        <ele>2552</ele>
        <time>2014-02-16T12:15:11Z</time>
      </trkpt>
      <trkpt lat="42.93076" lon="0.12439">
        <ele>2549</ele>
        <time>2014-02-16T12:15:18Z</time>
      </trkpt>
      <trkpt lat="42.93079" lon="0.12435">
        <ele>2548</ele>
        <time>2014-02-16T12:15:21Z</time>
      </trkpt>
      <trkpt lat="42.93086" lon="0.12427">
        <ele>2544</ele>
        <time>2014-02-16T12:15:30Z</time>
      </trkpt>
      <trkpt lat="42.93085" lon="0.12427">
        <ele>2544</ele>
        <time>2014-02-16T12:15:31Z</time>
      </trkpt>
      <trkpt lat="42.93085" lon="0.12427">
        <ele>2542</ele>
        <time>2014-02-16T12:15:45Z</time>
      </trkpt>
      <trkpt lat="42.93082" lon="0.12427">
        <ele>2543</ele>
        <time>2014-02-16T12:16:14Z</time>
      </trkpt>
      <trkpt lat="42.93081" lon="0.12431">
        <ele>2543</ele>
        <time>2014-02-16T12:16:47Z</time>
      </trkpt>
      <trkpt lat="42.93081" lon="0.12427">
        <ele>2543</ele>
        <time>2014-02-16T12:17:12Z</time>
      </trkpt>
      <trkpt lat="42.93084" lon="0.12424">
        <ele>2541</ele>
        <time>2014-02-16T12:17:25Z</time>
      </trkpt>
      <trkpt lat="42.93081" lon="0.12424">
        <ele>2541</ele>
        <time>2014-02-16T12:17:50Z</time>
      </trkpt>
      <trkpt lat="42.93081" lon="0.12419">
        <ele>2540</ele>
        <time>2014-02-16T12:18:11Z</time>
      </trkpt>
      <trkpt lat="42.93082" lon="0.12416">
        <ele>2538</ele>
        <time>2014-02-16T12:18:33Z</time>
      </trkpt>
      <trkpt lat="42.93086" lon="0.12409">
        <ele>2536</ele>
        <time>2014-02-16T12:18:40Z</time>
      </trkpt>
      <trkpt lat="42.93083" lon="0.12403">
        <ele>2533</ele>
        <time>2014-02-16T12:18:44Z</time>
      </trkpt>
      <trkpt lat="42.93082" lon="0.12397">
        <ele>2531</ele>
        <time>2014-02-16T12:18:47Z</time>
      </trkpt>
      <trkpt lat="42.93086" lon="0.12391">
        <ele>2528</ele>
        <time>2014-02-16T12:18:50Z</time>
      </trkpt>
      <trkpt lat="42.93087" lon="0.12389">
        <ele>2527</ele>
        <time>2014-02-16T12:18:51Z</time>
      </trkpt>
      <trkpt lat="42.93084" lon="0.12384">
        <ele>2525</ele>
        <time>2014-02-16T12:18:54Z</time>
      </trkpt>
      <trkpt lat="42.93081" lon="0.12384">
        <ele>2523</ele>
        <time>2014-02-16T12:18:56Z</time>
      </trkpt>
      <trkpt lat="42.93078" lon="0.12381">
        <ele>2522</ele>
        <time>2014-02-16T12:19:05Z</time>
      </trkpt>
      <trkpt lat="42.93079" lon="0.12381">
        <ele>2520</ele>
        <time>2014-02-16T12:19:13Z</time>
      </trkpt>
      <trkpt lat="42.9308" lon="0.12372">
        <ele>2516</ele>
        <time>2014-02-16T12:19:17Z</time>
      </trkpt>
      <trkpt lat="42.93083" lon="0.12368">
        <ele>2515</ele>
        <time>2014-02-16T12:19:19Z</time>
      </trkpt>
      <trkpt lat="42.93081" lon="0.12363">
        <ele>2513</ele>
        <time>2014-02-16T12:19:22Z</time>
      </trkpt>
      <trkpt lat="42.9308" lon="0.12363">
        <ele>2512</ele>
        <time>2014-02-16T12:19:23Z</time>
      </trkpt>
      <trkpt lat="42.93079" lon="0.12354">
        <ele>2509</ele>
        <time>2014-02-16T12:19:27Z</time>
      </trkpt>
      <trkpt lat="42.93075" lon="0.12348">
        <ele>2505</ele>
        <time>2014-02-16T12:19:31Z</time>
      </trkpt>
      <trkpt lat="42.93073" lon="0.12348">
        <ele>2504</ele>
        <time>2014-02-16T12:19:32Z</time>
      </trkpt>
      <trkpt lat="42.93073" lon="0.1234">
        <ele>2500</ele>
        <time>2014-02-16T12:19:36Z</time>
      </trkpt>
      <trkpt lat="42.9307" lon="0.12332">
        <ele>2497</ele>
        <time>2014-02-16T12:19:39Z</time>
      </trkpt>
      <trkpt lat="42.93068" lon="0.12326">
        <ele>2492</ele>
        <time>2014-02-16T12:19:41Z</time>
      </trkpt>
      <trkpt lat="42.93068" lon="0.12317">
        <ele>2488</ele>
        <time>2014-02-16T12:19:44Z</time>
      </trkpt>
      <trkpt lat="42.93064" lon="0.1231">
        <ele>2484</ele>
        <time>2014-02-16T12:19:47Z</time>
      </trkpt>
      <trkpt lat="42.93067" lon="0.12307">
        <ele>2483</ele>
        <time>2014-02-16T12:19:49Z</time>
      </trkpt>
      <trkpt lat="42.93067" lon="0.12307">
        <ele>2482</ele>
        <time>2014-02-16T12:20:01Z</time>
      </trkpt>
      <trkpt lat="42.93065" lon="0.12309">
        <ele>2483</ele>
        <time>2014-02-16T12:20:22Z</time>
      </trkpt>
      <trkpt lat="42.93066" lon="0.1231">
        <ele>2483</ele>
        <time>2014-02-16T12:20:43Z</time>
      </trkpt>
      <trkpt lat="42.93066" lon="0.12309">
        <ele>2483</ele>
        <time>2014-02-16T12:20:47Z</time>
      </trkpt>
      <trkpt lat="42.9306" lon="0.12296">
        <ele>2479</ele>
        <time>2014-02-16T12:20:52Z</time>
      </trkpt>
      <trkpt lat="42.93061" lon="0.12284">
        <ele>2475</ele>
        <time>2014-02-16T12:20:55Z</time>
      </trkpt>
      <trkpt lat="42.93058" lon="0.12282">
        <ele>2470</ele>
        <time>2014-02-16T12:20:56Z</time>
      </trkpt>
      <trkpt lat="42.93054" lon="0.12281">
        <ele>2470</ele>
        <time>2014-02-16T12:20:57Z</time>
      </trkpt>
      <trkpt lat="42.93053" lon="0.12275">
        <ele>2465</ele>
        <time>2014-02-16T12:20:59Z</time>
      </trkpt>
      <trkpt lat="42.93055" lon="0.12272">
        <ele>2465</ele>
        <time>2014-02-16T12:21:00Z</time>
      </trkpt>
      <trkpt lat="42.93051" lon="0.12264">
        <ele>2460</ele>
        <time>2014-02-16T12:21:03Z</time>
      </trkpt>
      <trkpt lat="42.9305" lon="0.1226">
        <ele>2460</ele>
        <time>2014-02-16T12:21:04Z</time>
      </trkpt>
      <trkpt lat="42.93046" lon="0.12251">
        <ele>2454</ele>
        <time>2014-02-16T12:21:07Z</time>
      </trkpt>
      <trkpt lat="42.93046" lon="0.12249">
        <ele>2455</ele>
        <time>2014-02-16T12:21:08Z</time>
      </trkpt>
      <trkpt lat="42.93044" lon="0.12246">
        <ele>2452</ele>
        <time>2014-02-16T12:21:09Z</time>
      </trkpt>
      <trkpt lat="42.93043" lon="0.12242">
        <ele>2449</ele>
        <time>2014-02-16T12:21:10Z</time>
      </trkpt>
      <trkpt lat="42.93044" lon="0.12236">
        <ele>2449</ele>
        <time>2014-02-16T12:21:12Z</time>
      </trkpt>
      <trkpt lat="42.9304" lon="0.12232">
        <ele>2443</ele>
        <time>2014-02-16T12:21:14Z</time>
      </trkpt>
      <trkpt lat="42.9304" lon="0.12225">
        <ele>2442</ele>
        <time>2014-02-16T12:21:16Z</time>
      </trkpt>
      <trkpt lat="42.93038" lon="0.1222">
        <ele>2440</ele>
        <time>2014-02-16T12:21:17Z</time>
      </trkpt>
      <trkpt lat="42.93035" lon="0.12209">
        <ele>2435</ele>
        <time>2014-02-16T12:21:19Z</time>
      </trkpt>
      <trkpt lat="42.93031" lon="0.12198">
        <ele>2430</ele>
        <time>2014-02-16T12:21:21Z</time>
      </trkpt>
      <trkpt lat="42.93032" lon="0.12187">
        <ele>2429</ele>
        <time>2014-02-16T12:21:23Z</time>
      </trkpt>
      <trkpt lat="42.93028" lon="0.12179">
        <ele>2424</ele>
        <time>2014-02-16T12:21:25Z</time>
      </trkpt>
      <trkpt lat="42.93029" lon="0.12174">
        <ele>2422</ele>
        <time>2014-02-16T12:21:27Z</time>
      </trkpt>
      <trkpt lat="42.93028" lon="0.12176">
        <ele>2422</ele>
        <time>2014-02-16T12:21:43Z</time>
      </trkpt>
      <trkpt lat="42.93028" lon="0.12175">
        <ele>2422</ele>
        <time>2014-02-16T12:21:44Z</time>
      </trkpt>
      <trkpt lat="42.93026" lon="0.12164">
        <ele>2418</ele>
        <time>2014-02-16T12:21:48Z</time>
      </trkpt>
      <trkpt lat="42.93026" lon="0.12154">
        <ele>2415</ele>
        <time>2014-02-16T12:21:50Z</time>
      </trkpt>
      <trkpt lat="42.93028" lon="0.12146">
        <ele>2414</ele>
        <time>2014-02-16T12:21:52Z</time>
      </trkpt>
      <trkpt lat="42.93024" lon="0.12136">
        <ele>2409</ele>
        <time>2014-02-16T12:21:54Z</time>
      </trkpt>
      <trkpt lat="42.93024" lon="0.12125">
        <ele>2406</ele>
        <time>2014-02-16T12:21:56Z</time>
      </trkpt>
      <trkpt lat="42.93022" lon="0.1211">
        <ele>2396</ele>
        <time>2014-02-16T12:21:59Z</time>
      </trkpt>
      <trkpt lat="42.93022" lon="0.12107">
        <ele>2397</ele>
        <time>2014-02-16T12:22:00Z</time>
      </trkpt>
      <trkpt lat="42.9302" lon="0.121">
        <ele>2391</ele>
        <time>2014-02-16T12:22:02Z</time>
      </trkpt>
      <trkpt lat="42.9302" lon="0.12092">
        <ele>2389</ele>
        <time>2014-02-16T12:22:04Z</time>
      </trkpt>
      <trkpt lat="42.93019" lon="0.12084">
        <ele>2383</ele>
        <time>2014-02-16T12:22:06Z</time>
      </trkpt>
      <trkpt lat="42.93018" lon="0.12072">
        <ele>2379</ele>
        <time>2014-02-16T12:22:09Z</time>
      </trkpt>
      <trkpt lat="42.9302" lon="0.12059">
        <ele>2375</ele>
        <time>2014-02-16T12:22:12Z</time>
      </trkpt>
      <trkpt lat="42.93021" lon="0.12054">
        <ele>2371</ele>
        <time>2014-02-16T12:22:13Z</time>
      </trkpt>
      <trkpt lat="42.9302" lon="0.12039">
        <ele>2365</ele>
        <time>2014-02-16T12:22:16Z</time>
      </trkpt>
      <trkpt lat="42.93021" lon="0.12024">
        <ele>2361</ele>
        <time>2014-02-16T12:22:19Z</time>
      </trkpt>
      <trkpt lat="42.93023" lon="0.12018">
        <ele>2358</ele>
        <time>2014-02-16T12:22:20Z</time>
      </trkpt>
      <trkpt lat="42.93028" lon="0.12012">
        <ele>2354</ele>
        <time>2014-02-16T12:22:23Z</time>
      </trkpt>
      <trkpt lat="42.93029" lon="0.12013">
        <ele>2354</ele>
        <time>2014-02-16T12:22:24Z</time>
      </trkpt>
      <trkpt lat="42.9303" lon="0.12018">
        <ele>2355</ele>
        <time>2014-02-16T12:22:37Z</time>
      </trkpt>
      <trkpt lat="42.93032" lon="0.12005">
        <ele>2351</ele>
        <time>2014-02-16T12:22:42Z</time>
      </trkpt>
      <trkpt lat="42.93031" lon="0.11996">
        <ele>2347</ele>
        <time>2014-02-16T12:22:44Z</time>
      </trkpt>
      <trkpt lat="42.9303" lon="0.11992">
        <ele>2345</ele>
        <time>2014-02-16T12:22:45Z</time>
      </trkpt>
      <trkpt lat="42.93026" lon="0.11976">
        <ele>2337</ele>
        <time>2014-02-16T12:22:48Z</time>
      </trkpt>
      <trkpt lat="42.93023" lon="0.11967">
        <ele>2333</ele>
        <time>2014-02-16T12:22:50Z</time>
      </trkpt>
      <trkpt lat="42.9302" lon="0.11963">
        <ele>2329</ele>
        <time>2014-02-16T12:22:51Z</time>
      </trkpt>
      <trkpt lat="42.9302" lon="0.11958">
        <ele>2325</ele>
        <time>2014-02-16T12:22:52Z</time>
      </trkpt>
      <trkpt lat="42.93021" lon="0.11948">
        <ele>2321</ele>
        <time>2014-02-16T12:22:55Z</time>
      </trkpt>
      <trkpt lat="42.93014" lon="0.11949">
        <ele>2318</ele>
        <time>2014-02-16T12:22:57Z</time>
      </trkpt>
      <trkpt lat="42.93008" lon="0.11951">
        <ele>2316</ele>
        <time>2014-02-16T12:22:59Z</time>
      </trkpt>
      <trkpt lat="42.93004" lon="0.11929">
        <ele>2310</ele>
        <time>2014-02-16T12:23:04Z</time>
      </trkpt>
      <trkpt lat="42.93005" lon="0.11915">
        <ele>2307</ele>
        <time>2014-02-16T12:23:06Z</time>
      </trkpt>
      <trkpt lat="42.93001" lon="0.11903">
        <ele>2301</ele>
        <time>2014-02-16T12:23:08Z</time>
      </trkpt>
      <trkpt lat="42.93001" lon="0.11896">
        <ele>2301</ele>
        <time>2014-02-16T12:23:09Z</time>
      </trkpt>
      <trkpt lat="42.93" lon="0.11889">
        <ele>2297</ele>
        <time>2014-02-16T12:23:10Z</time>
      </trkpt>
      <trkpt lat="42.92999" lon="0.11876">
        <ele>2292</ele>
        <time>2014-02-16T12:23:12Z</time>
      </trkpt>
      <trkpt lat="42.92995" lon="0.11863">
        <ele>2288</ele>
        <time>2014-02-16T12:23:14Z</time>
      </trkpt>
      <trkpt lat="42.92992" lon="0.11849">
        <ele>2282</ele>
        <time>2014-02-16T12:23:16Z</time>
      </trkpt>
      <trkpt lat="42.92991" lon="0.11842">
        <ele>2279</ele>
        <time>2014-02-16T12:23:17Z</time>
      </trkpt>
      <trkpt lat="42.92987" lon="0.11832">
        <ele>2276</ele>
        <time>2014-02-16T12:23:19Z</time>
      </trkpt>
      <trkpt lat="42.92983" lon="0.11832">
        <ele>2271</ele>
        <time>2014-02-16T12:23:23Z</time>
      </trkpt>
      <trkpt lat="42.92982" lon="0.11835">
        <ele>2272</ele>
        <time>2014-02-16T12:23:37Z</time>
      </trkpt>
      <trkpt lat="42.92982" lon="0.11838">
        <ele>2272</ele>
        <time>2014-02-16T12:23:57Z</time>
      </trkpt>
      <trkpt lat="42.92981" lon="0.11837">
        <ele>2272</ele>
        <time>2014-02-16T12:24:02Z</time>
      </trkpt>
      <trkpt lat="42.92967" lon="0.11818">
        <ele>2266</ele>
        <time>2014-02-16T12:24:10Z</time>
      </trkpt>
      <trkpt lat="42.92964" lon="0.11814">
        <ele>2267</ele>
        <time>2014-02-16T12:24:11Z</time>
      </trkpt>
      <trkpt lat="42.9296" lon="0.11809">
        <ele>2263</ele>
        <time>2014-02-16T12:24:12Z</time>
      </trkpt>
      <trkpt lat="42.92949" lon="0.11787">
        <ele>2256</ele>
        <time>2014-02-16T12:24:16Z</time>
      </trkpt>
      <trkpt lat="42.92948" lon="0.11781">
        <ele>2255</ele>
        <time>2014-02-16T12:24:17Z</time>
      </trkpt>
      <trkpt lat="42.92939" lon="0.11775">
        <ele>2252</ele>
        <time>2014-02-16T12:24:19Z</time>
      </trkpt>
      <trkpt lat="42.92928" lon="0.11771">
        <ele>2249</ele>
        <time>2014-02-16T12:24:22Z</time>
      </trkpt>
      <trkpt lat="42.9292" lon="0.11767">
        <ele>2245</ele>
        <time>2014-02-16T12:24:24Z</time>
      </trkpt>
      <trkpt lat="42.92917" lon="0.11769">
        <ele>2244</ele>
        <time>2014-02-16T12:24:25Z</time>
      </trkpt>
      <trkpt lat="42.92903" lon="0.11761">
        <ele>2242</ele>
        <time>2014-02-16T12:24:29Z</time>
      </trkpt>
      <trkpt lat="42.92895" lon="0.11751">
        <ele>2241</ele>
        <time>2014-02-16T12:24:31Z</time>
      </trkpt>
      <trkpt lat="42.92887" lon="0.11749">
        <ele>2238</ele>
        <time>2014-02-16T12:24:33Z</time>
      </trkpt>
      <trkpt lat="42.92878" lon="0.1175">
        <ele>2237</ele>
        <time>2014-02-16T12:24:35Z</time>
      </trkpt>
      <trkpt lat="42.9287" lon="0.11754">
        <ele>2237</ele>
        <time>2014-02-16T12:24:37Z</time>
      </trkpt>
      <trkpt lat="42.92859" lon="0.1176">
        <ele>2236</ele>
        <time>2014-02-16T12:24:43Z</time>
      </trkpt>
      <trkpt lat="42.92841" lon="0.11772">
        <ele>2233</ele>
        <time>2014-02-16T12:24:49Z</time>
      </trkpt>
      <trkpt lat="42.92827" lon="0.11785">
        <ele>2231</ele>
        <time>2014-02-16T12:24:53Z</time>
      </trkpt>
      <trkpt lat="42.92804" lon="0.118">
        <ele>2227</ele>
        <time>2014-02-16T12:25:01Z</time>
      </trkpt>
      <trkpt lat="42.92797" lon="0.11801">
        <ele>2227</ele>
        <time>2014-02-16T12:25:03Z</time>
      </trkpt>
      <trkpt lat="42.92789" lon="0.11805">
        <ele>2226</ele>
        <time>2014-02-16T12:25:05Z</time>
      </trkpt>
      <trkpt lat="42.92771" lon="0.11815">
        <ele>2223</ele>
        <time>2014-02-16T12:25:13Z</time>
      </trkpt>
      <trkpt lat="42.9277" lon="0.11813">
        <ele>2223</ele>
        <time>2014-02-16T12:25:16Z</time>
      </trkpt>
      <trkpt lat="42.92758" lon="0.11806">
        <ele>2222</ele>
        <time>2014-02-16T12:25:25Z</time>
      </trkpt>
      <trkpt lat="42.92736" lon="0.1181">
        <ele>2219</ele>
        <time>2014-02-16T12:25:31Z</time>
      </trkpt>
      <trkpt lat="42.92725" lon="0.11813">
        <ele>2218</ele>
        <time>2014-02-16T12:25:33Z</time>
      </trkpt>
      <trkpt lat="42.92719" lon="0.11813">
        <ele>2217</ele>
        <time>2014-02-16T12:25:34Z</time>
      </trkpt>
      <trkpt lat="42.92712" lon="0.11812">
        <ele>2217</ele>
        <time>2014-02-16T12:25:35Z</time>
      </trkpt>
      <trkpt lat="42.92704" lon="0.11806">
        <ele>2215</ele>
        <time>2014-02-16T12:25:37Z</time>
      </trkpt>
      <trkpt lat="42.92697" lon="0.11797">
        <ele>2215</ele>
        <time>2014-02-16T12:25:45Z</time>
      </trkpt>
      <trkpt lat="42.92698" lon="0.1179">
        <ele>2215</ele>
        <time>2014-02-16T12:25:56Z</time>
      </trkpt>
      <trkpt lat="42.92699" lon="0.11789">
        <ele>2215</ele>
        <time>2014-02-16T12:25:58Z</time>
      </trkpt>
      <trkpt lat="42.927" lon="0.11786">
        <ele>2215</ele>
        <time>2014-02-16T12:26:00Z</time>
      </trkpt>
      <trkpt lat="42.92706" lon="0.11768">
        <ele>2215</ele>
        <time>2014-02-16T12:26:10Z</time>
      </trkpt>
      <trkpt lat="42.92705" lon="0.11764">
        <ele>2215</ele>
        <time>2014-02-16T12:26:13Z</time>
      </trkpt>
      <trkpt lat="42.92706" lon="0.1176">
        <ele>2215</ele>
        <time>2014-02-16T12:26:23Z</time>
      </trkpt>
      <trkpt lat="42.92704" lon="0.11762">
        <ele>2215</ele>
        <time>2014-02-16T12:26:38Z</time>
      </trkpt>
      <trkpt lat="42.92704" lon="0.11762">
        <ele>2215</ele>
        <time>2014-02-16T12:26:54Z</time>
      </trkpt>
      <trkpt lat="42.92702" lon="0.11756">
        <ele>2215</ele>
        <time>2014-02-16T12:27:12Z</time>
      </trkpt>
      <trkpt lat="42.92704" lon="0.11751">
        <ele>2215</ele>
        <time>2014-02-16T12:27:31Z</time>
      </trkpt>
      <trkpt lat="42.927" lon="0.11751">
        <ele>2215</ele>
        <time>2014-02-16T12:27:49Z</time>
      </trkpt>
      <trkpt lat="42.92697" lon="0.11749">
        <ele>2216</ele>
        <time>2014-02-16T12:28:13Z</time>
      </trkpt>
      <trkpt lat="42.92697" lon="0.11748">
        <ele>2216</ele>
        <time>2014-02-16T12:28:46Z</time>
      </trkpt>
      <trkpt lat="42.927" lon="0.11751">
        <ele>2216</ele>
        <time>2014-02-16T12:29:20Z</time>
      </trkpt>
      <trkpt lat="42.92699" lon="0.11747">
        <ele>2217</ele>
        <time>2014-02-16T12:29:47Z</time>
      </trkpt>
      <trkpt lat="42.92707" lon="0.11755">
        <ele>2218</ele>
        <time>2014-02-16T12:30:24Z</time>
      </trkpt>
      <trkpt lat="42.92708" lon="0.11755">
        <ele>2218</ele>
        <time>2014-02-16T12:30:59Z</time>
      </trkpt>
      <trkpt lat="42.92708" lon="0.11756">
        <ele>2219</ele>
        <time>2014-02-16T12:31:33Z</time>
      </trkpt>
      <trkpt lat="42.92708" lon="0.1176">
        <ele>2219</ele>
        <time>2014-02-16T12:32:06Z</time>
      </trkpt>
      <trkpt lat="42.92707" lon="0.11765">
        <ele>2220</ele>
        <time>2014-02-16T12:32:40Z</time>
      </trkpt>
      <trkpt lat="42.92709" lon="0.11766">
        <ele>2219</ele>
        <time>2014-02-16T12:33:17Z</time>
      </trkpt>
      <trkpt lat="42.92709" lon="0.11766">
        <ele>2219</ele>
        <time>2014-02-16T12:33:51Z</time>
      </trkpt>
      <trkpt lat="42.92709" lon="0.11764">
        <ele>2219</ele>
        <time>2014-02-16T12:34:32Z</time>
      </trkpt>
      <trkpt lat="42.9271" lon="0.11763">
        <ele>2219</ele>
        <time>2014-02-16T12:35:09Z</time>
      </trkpt>
      <trkpt lat="42.9271" lon="0.11764">
        <ele>2219</ele>
        <time>2014-02-16T12:35:46Z</time>
      </trkpt>
      <trkpt lat="42.9271" lon="0.11766">
        <ele>2218</ele>
        <time>2014-02-16T12:36:22Z</time>
      </trkpt>
      <trkpt lat="42.92711" lon="0.1176">
        <ele>2219</ele>
        <time>2014-02-16T12:37:00Z</time>
      </trkpt>
      <trkpt lat="42.9271" lon="0.11759">
        <ele>2219</ele>
        <time>2014-02-16T12:37:39Z</time>
      </trkpt>
      <trkpt lat="42.92708" lon="0.1176">
        <ele>2218</ele>
        <time>2014-02-16T12:38:06Z</time>
      </trkpt>
      <trkpt lat="42.92707" lon="0.11762">
        <ele>2219</ele>
        <time>2014-02-16T12:38:40Z</time>
      </trkpt>
      <trkpt lat="42.92706" lon="0.11758">
        <ele>2218</ele>
        <time>2014-02-16T12:39:12Z</time>
      </trkpt>
      <trkpt lat="42.92704" lon="0.11758">
        <ele>2217</ele>
        <time>2014-02-16T12:39:48Z</time>
      </trkpt>
      <trkpt lat="42.92705" lon="0.11756">
        <ele>2218</ele>
        <time>2014-02-16T12:40:23Z</time>
      </trkpt>
      <trkpt lat="42.92706" lon="0.11754">
        <ele>2218</ele>
        <time>2014-02-16T12:41:00Z</time>
      </trkpt>
      <trkpt lat="42.92709" lon="0.1176">
        <ele>2218</ele>
        <time>2014-02-16T12:41:35Z</time>
      </trkpt>
      <trkpt lat="42.92707" lon="0.11759">
        <ele>2217</ele>
        <time>2014-02-16T12:42:18Z</time>
      </trkpt>
      <trkpt lat="42.92709" lon="0.11761">
        <ele>2218</ele>
        <time>2014-02-16T12:42:54Z</time>
      </trkpt>
      <trkpt lat="42.9271" lon="0.11761">
        <ele>2217</ele>
        <time>2014-02-16T12:43:20Z</time>
      </trkpt>
      <trkpt lat="42.9271" lon="0.11761">
        <ele>2217</ele>
        <time>2014-02-16T12:43:50Z</time>
      </trkpt>
      <trkpt lat="42.92709" lon="0.11759">
        <ele>2217</ele>
        <time>2014-02-16T12:44:26Z</time>
      </trkpt>
      <trkpt lat="42.9271" lon="0.11762">
        <ele>2217</ele>
        <time>2014-02-16T12:44:57Z</time>
      </trkpt>
      <trkpt lat="42.9271" lon="0.11762">
        <ele>2217</ele>
        <time>2014-02-16T12:45:32Z</time>
      </trkpt>
      <trkpt lat="42.92709" lon="0.11762">
        <ele>2216</ele>
        <time>2014-02-16T12:46:09Z</time>
      </trkpt>
      <trkpt lat="42.92709" lon="0.11762">
        <ele>2216</ele>
        <time>2014-02-16T12:46:33Z</time>
      </trkpt>
      <trkpt lat="42.9271" lon="0.11763">
        <ele>2217</ele>
        <time>2014-02-16T12:46:51Z</time>
      </trkpt>
      <trkpt lat="42.92709" lon="0.11764">
        <ele>2217</ele>
        <time>2014-02-16T12:47:10Z</time>
      </trkpt>
      <trkpt lat="42.92709" lon="0.11764">
        <ele>2217</ele>
        <time>2014-02-16T12:47:30Z</time>
      </trkpt>
      <trkpt lat="42.92709" lon="0.11762">
        <ele>2217</ele>
        <time>2014-02-16T12:47:51Z</time>
      </trkpt>
      <trkpt lat="42.92709" lon="0.11763">
        <ele>2218</ele>
        <time>2014-02-16T12:48:15Z</time>
      </trkpt>
      <trkpt lat="42.92709" lon="0.11762">
        <ele>2217</ele>
        <time>2014-02-16T12:48:36Z</time>
      </trkpt>
      <trkpt lat="42.92706" lon="0.1176">
        <ele>2217</ele>
        <time>2014-02-16T12:48:50Z</time>
      </trkpt>
      <trkpt lat="42.92706" lon="0.1176">
        <ele>2218</ele>
        <time>2014-02-16T12:49:09Z</time>
      </trkpt>
      <trkpt lat="42.92706" lon="0.11761">
        <ele>2217</ele>
        <time>2014-02-16T12:49:22Z</time>
      </trkpt>
      <trkpt lat="42.92697" lon="0.11767">
        <ele>2218</ele>
        <time>2014-02-16T12:49:33Z</time>
      </trkpt>
      <trkpt lat="42.92694" lon="0.11768">
        <ele>2219</ele>
        <time>2014-02-16T12:49:36Z</time>
      </trkpt>
      <trkpt lat="42.92678" lon="0.11784">
        <ele>2221</ele>
        <time>2014-02-16T12:49:54Z</time>
      </trkpt>
      <trkpt lat="42.92667" lon="0.11797">
        <ele>2223</ele>
        <time>2014-02-16T12:50:07Z</time>
      </trkpt>
      <trkpt lat="42.92653" lon="0.11812">
        <ele>2224</ele>
        <time>2014-02-16T12:50:22Z</time>
      </trkpt>
      <trkpt lat="42.9264" lon="0.11825">
        <ele>2227</ele>
        <time>2014-02-16T12:50:37Z</time>
      </trkpt>
      <trkpt lat="42.92628" lon="0.11831">
        <ele>2228</ele>
        <time>2014-02-16T12:50:51Z</time>
      </trkpt>
      <trkpt lat="42.92627" lon="0.11831">
        <ele>2229</ele>
        <time>2014-02-16T12:50:52Z</time>
      </trkpt>
      <trkpt lat="42.92614" lon="0.11839">
        <ele>2230</ele>
        <time>2014-02-16T12:51:05Z</time>
      </trkpt>
      <trkpt lat="42.92607" lon="0.11855">
        <ele>2231</ele>
        <time>2014-02-16T12:51:18Z</time>
      </trkpt>
      <trkpt lat="42.92607" lon="0.11879">
        <ele>2232</ele>
        <time>2014-02-16T12:51:32Z</time>
      </trkpt>
      <trkpt lat="42.92608" lon="0.1189">
        <ele>2232</ele>
        <time>2014-02-16T12:51:39Z</time>
      </trkpt>
      <trkpt lat="42.92607" lon="0.11896">
        <ele>2233</ele>
        <time>2014-02-16T12:51:43Z</time>
      </trkpt>
      <trkpt lat="42.92606" lon="0.11903">
        <ele>2233</ele>
        <time>2014-02-16T12:51:49Z</time>
      </trkpt>
      <trkpt lat="42.92608" lon="0.1192">
        <ele>2235</ele>
        <time>2014-02-16T12:52:02Z</time>
      </trkpt>
      <trkpt lat="42.9261" lon="0.11929">
        <ele>2236</ele>
        <time>2014-02-16T12:52:15Z</time>
      </trkpt>
      <trkpt lat="42.9261" lon="0.11924">
        <ele>2236</ele>
        <time>2014-02-16T12:52:47Z</time>
      </trkpt>
      <trkpt lat="42.92611" lon="0.1193">
        <ele>2236</ele>
        <time>2014-02-16T12:52:59Z</time>
      </trkpt>
      <trkpt lat="42.92615" lon="0.11939">
        <ele>2237</ele>
        <time>2014-02-16T12:53:05Z</time>
      </trkpt>
      <trkpt lat="42.92626" lon="0.11961">
        <ele>2238</ele>
        <time>2014-02-16T12:53:22Z</time>
      </trkpt>
      <trkpt lat="42.92632" lon="0.11971">
        <ele>2241</ele>
        <time>2014-02-16T12:53:35Z</time>
      </trkpt>
      <trkpt lat="42.92635" lon="0.11974">
        <ele>2242</ele>
        <time>2014-02-16T12:53:40Z</time>
      </trkpt>
      <trkpt lat="42.92641" lon="0.11984">
        <ele>2245</ele>
        <time>2014-02-16T12:53:55Z</time>
      </trkpt>
      <trkpt lat="42.92643" lon="0.11986">
        <ele>2246</ele>
        <time>2014-02-16T12:53:58Z</time>
      </trkpt>
      <trkpt lat="42.92642" lon="0.11993">
        <ele>2248</ele>
        <time>2014-02-16T12:54:05Z</time>
      </trkpt>
      <trkpt lat="42.92642" lon="0.11997">
        <ele>2249</ele>
        <time>2014-02-16T12:54:19Z</time>
      </trkpt>
      <trkpt lat="42.92639" lon="0.12008">
        <ele>2251</ele>
        <time>2014-02-16T12:54:31Z</time>
      </trkpt>
      <trkpt lat="42.92637" lon="0.12027">
        <ele>2253</ele>
        <time>2014-02-16T12:54:46Z</time>
      </trkpt>
      <trkpt lat="42.92637" lon="0.12044">
        <ele>2255</ele>
        <time>2014-02-16T12:55:02Z</time>
      </trkpt>
      <trkpt lat="42.92635" lon="0.12059">
        <ele>2257</ele>
        <time>2014-02-16T12:55:16Z</time>
      </trkpt>
      <trkpt lat="42.92634" lon="0.12074">
        <ele>2259</ele>
        <time>2014-02-16T12:55:30Z</time>
      </trkpt>
      <trkpt lat="42.92632" lon="0.12087">
        <ele>2262</ele>
        <time>2014-02-16T12:55:44Z</time>
      </trkpt>
      <trkpt lat="42.92632" lon="0.12101">
        <ele>2265</ele>
        <time>2014-02-16T12:55:58Z</time>
      </trkpt>
      <trkpt lat="42.9263" lon="0.12112">
        <ele>2267</ele>
        <time>2014-02-16T12:56:13Z</time>
      </trkpt>
      <trkpt lat="42.92629" lon="0.12124">
        <ele>2269</ele>
        <time>2014-02-16T12:56:28Z</time>
      </trkpt>
      <trkpt lat="42.92628" lon="0.12133">
        <ele>2271</ele>
        <time>2014-02-16T12:56:39Z</time>
      </trkpt>
      <trkpt lat="42.92628" lon="0.12143">
        <ele>2273</ele>
        <time>2014-02-16T12:56:53Z</time>
      </trkpt>
      <trkpt lat="42.92628" lon="0.12146">
        <ele>2273</ele>
        <time>2014-02-16T12:56:56Z</time>
      </trkpt>
      <trkpt lat="42.92627" lon="0.12157">
        <ele>2275</ele>
        <time>2014-02-16T12:57:09Z</time>
      </trkpt>
      <trkpt lat="42.92627" lon="0.12164">
        <ele>2275</ele>
        <time>2014-02-16T12:57:26Z</time>
      </trkpt>
      <trkpt lat="42.92628" lon="0.12166">
        <ele>2275</ele>
        <time>2014-02-16T12:57:40Z</time>
      </trkpt>
      <trkpt lat="42.9263" lon="0.12168">
        <ele>2275</ele>
        <time>2014-02-16T12:58:07Z</time>
      </trkpt>
      <trkpt lat="42.92632" lon="0.12167">
        <ele>2275</ele>
        <time>2014-02-16T12:58:39Z</time>
      </trkpt>
      <trkpt lat="42.92634" lon="0.12164">
        <ele>2275</ele>
        <time>2014-02-16T12:59:06Z</time>
      </trkpt>
      <trkpt lat="42.9263" lon="0.12163">
        <ele>2275</ele>
        <time>2014-02-16T12:59:27Z</time>
      </trkpt>
      <trkpt lat="42.92628" lon="0.12164">
        <ele>2275</ele>
        <time>2014-02-16T12:59:42Z</time>
      </trkpt>
      <trkpt lat="42.92626" lon="0.12164">
        <ele>2275</ele>
        <time>2014-02-16T13:00:04Z</time>
      </trkpt>
      <trkpt lat="42.92627" lon="0.12162">
        <ele>2275</ele>
        <time>2014-02-16T13:00:24Z</time>
      </trkpt>
      <trkpt lat="42.92628" lon="0.12164">
        <ele>2275</ele>
        <time>2014-02-16T13:00:48Z</time>
      </trkpt>
      <trkpt lat="42.92626" lon="0.12164">
        <ele>2275</ele>
        <time>2014-02-16T13:01:04Z</time>
      </trkpt>
      <trkpt lat="42.92627" lon="0.12169">
        <ele>2276</ele>
        <time>2014-02-16T13:01:18Z</time>
      </trkpt>
      <trkpt lat="42.92626" lon="0.1217">
        <ele>2276</ele>
        <time>2014-02-16T13:01:33Z</time>
      </trkpt>
      <trkpt lat="42.92627" lon="0.1217">
        <ele>2275</ele>
        <time>2014-02-16T13:01:57Z</time>
      </trkpt>
      <trkpt lat="42.92627" lon="0.12168">
        <ele>2275</ele>
        <time>2014-02-16T13:02:19Z</time>
      </trkpt>
      <trkpt lat="42.92628" lon="0.12167">
        <ele>2276</ele>
        <time>2014-02-16T13:02:38Z</time>
      </trkpt>
      <trkpt lat="42.92626" lon="0.12175">
        <ele>2277</ele>
        <time>2014-02-16T13:02:48Z</time>
      </trkpt>
      <trkpt lat="42.92623" lon="0.12181">
        <ele>2277</ele>
        <time>2014-02-16T13:03:05Z</time>
      </trkpt>
      <trkpt lat="42.92621" lon="0.12195">
        <ele>2281</ele>
        <time>2014-02-16T13:03:22Z</time>
      </trkpt>
      <trkpt lat="42.92618" lon="0.12211">
        <ele>2284</ele>
        <time>2014-02-16T13:03:38Z</time>
      </trkpt>
      <trkpt lat="42.92613" lon="0.12224">
        <ele>2286</ele>
        <time>2014-02-16T13:03:51Z</time>
      </trkpt>
      <trkpt lat="42.92612" lon="0.1223">
        <ele>2288</ele>
        <time>2014-02-16T13:03:58Z</time>
      </trkpt>
      <trkpt lat="42.92609" lon="0.12245">
        <ele>2291</ele>
        <time>2014-02-16T13:04:14Z</time>
      </trkpt>
      <trkpt lat="42.92605" lon="0.12257">
        <ele>2293</ele>
        <time>2014-02-16T13:04:29Z</time>
      </trkpt>
      <trkpt lat="42.92603" lon="0.12271">
        <ele>2296</ele>
        <time>2014-02-16T13:04:47Z</time>
      </trkpt>
      <trkpt lat="42.92604" lon="0.12272">
        <ele>2296</ele>
        <time>2014-02-16T13:04:48Z</time>
      </trkpt>
      <trkpt lat="42.92602" lon="0.12283">
        <ele>2297</ele>
        <time>2014-02-16T13:04:58Z</time>
      </trkpt>
      <trkpt lat="42.926" lon="0.12294">
        <ele>2300</ele>
        <time>2014-02-16T13:05:14Z</time>
      </trkpt>
      <trkpt lat="42.92597" lon="0.12304">
        <ele>2301</ele>
        <time>2014-02-16T13:05:26Z</time>
      </trkpt>
      <trkpt lat="42.92593" lon="0.12316">
        <ele>2304</ele>
        <time>2014-02-16T13:05:40Z</time>
      </trkpt>
      <trkpt lat="42.92589" lon="0.12329">
        <ele>2307</ele>
        <time>2014-02-16T13:05:55Z</time>
      </trkpt>
      <trkpt lat="42.92587" lon="0.12343">
        <ele>2309</ele>
        <time>2014-02-16T13:06:12Z</time>
      </trkpt>
      <trkpt lat="42.92583" lon="0.12353">
        <ele>2312</ele>
        <time>2014-02-16T13:06:28Z</time>
      </trkpt>
      <trkpt lat="42.92578" lon="0.12363">
        <ele>2314</ele>
        <time>2014-02-16T13:06:43Z</time>
      </trkpt>
      <trkpt lat="42.92574" lon="0.12375">
        <ele>2316</ele>
        <time>2014-02-16T13:06:58Z</time>
      </trkpt>
      <trkpt lat="42.92572" lon="0.1238">
        <ele>2317</ele>
        <time>2014-02-16T13:07:07Z</time>
      </trkpt>
      <trkpt lat="42.92567" lon="0.12393">
        <ele>2320</ele>
        <time>2014-02-16T13:07:24Z</time>
      </trkpt>
      <trkpt lat="42.92563" lon="0.12406">
        <ele>2323</ele>
        <time>2014-02-16T13:07:39Z</time>
      </trkpt>
      <trkpt lat="42.92561" lon="0.12413">
        <ele>2324</ele>
        <time>2014-02-16T13:07:56Z</time>
      </trkpt>
      <trkpt lat="42.92556" lon="0.12421">
        <ele>2327</ele>
        <time>2014-02-16T13:08:11Z</time>
      </trkpt>
      <trkpt lat="42.92547" lon="0.1243">
        <ele>2330</ele>
        <time>2014-02-16T13:08:29Z</time>
      </trkpt>
      <trkpt lat="42.92542" lon="0.12438">
        <ele>2333</ele>
        <time>2014-02-16T13:08:44Z</time>
      </trkpt>
      <trkpt lat="42.92534" lon="0.12448">
        <ele>2336</ele>
        <time>2014-02-16T13:09:00Z</time>
      </trkpt>
      <trkpt lat="42.92527" lon="0.12456">
        <ele>2339</ele>
        <time>2014-02-16T13:09:15Z</time>
      </trkpt>
      <trkpt lat="42.92519" lon="0.12467">
        <ele>2341</ele>
        <time>2014-02-16T13:09:33Z</time>
      </trkpt>
      <trkpt lat="42.92515" lon="0.12474">
        <ele>2344</ele>
        <time>2014-02-16T13:09:43Z</time>
      </trkpt>
      <trkpt lat="42.9251" lon="0.1248">
        <ele>2345</ele>
        <time>2014-02-16T13:09:57Z</time>
      </trkpt>
      <trkpt lat="42.92502" lon="0.12486">
        <ele>2349</ele>
        <time>2014-02-16T13:10:10Z</time>
      </trkpt>
      <trkpt lat="42.925" lon="0.12484">
        <ele>2349</ele>
        <time>2014-02-16T13:10:28Z</time>
      </trkpt>
      <trkpt lat="42.92501" lon="0.12486">
        <ele>2349</ele>
        <time>2014-02-16T13:10:39Z</time>
      </trkpt>
      <trkpt lat="42.92509" lon="0.12493">
        <ele>2352</ele>
        <time>2014-02-16T13:10:53Z</time>
      </trkpt>
      <trkpt lat="42.92518" lon="0.12499">
        <ele>2354</ele>
        <time>2014-02-16T13:11:07Z</time>
      </trkpt>
      <trkpt lat="42.92525" lon="0.12504">
        <ele>2357</ele>
        <time>2014-02-16T13:11:22Z</time>
      </trkpt>
      <trkpt lat="42.92534" lon="0.12504">
        <ele>2360</ele>
        <time>2014-02-16T13:11:35Z</time>
      </trkpt>
      <trkpt lat="42.92543" lon="0.12504">
        <ele>2362</ele>
        <time>2014-02-16T13:11:47Z</time>
      </trkpt>
      <trkpt lat="42.92549" lon="0.12503">
        <ele>2364</ele>
        <time>2014-02-16T13:11:59Z</time>
      </trkpt>
      <trkpt lat="42.9255" lon="0.12506">
        <ele>2364</ele>
        <time>2014-02-16T13:12:14Z</time>
      </trkpt>
      <trkpt lat="42.92554" lon="0.12505">
        <ele>2365</ele>
        <time>2014-02-16T13:12:32Z</time>
      </trkpt>
      <trkpt lat="42.92559" lon="0.12504">
        <ele>2367</ele>
        <time>2014-02-16T13:12:45Z</time>
      </trkpt>
      <trkpt lat="42.92567" lon="0.12505">
        <ele>2369</ele>
        <time>2014-02-16T13:12:56Z</time>
      </trkpt>
      <trkpt lat="42.92575" lon="0.12504">
        <ele>2372</ele>
        <time>2014-02-16T13:13:10Z</time>
      </trkpt>
      <trkpt lat="42.92578" lon="0.12505">
        <ele>2372</ele>
        <time>2014-02-16T13:13:23Z</time>
      </trkpt>
      <trkpt lat="42.92583" lon="0.12505">
        <ele>2374</ele>
        <time>2014-02-16T13:13:41Z</time>
      </trkpt>
      <trkpt lat="42.92587" lon="0.12502">
        <ele>2375</ele>
        <time>2014-02-16T13:13:56Z</time>
      </trkpt>
      <trkpt lat="42.92586" lon="0.12503">
        <ele>2376</ele>
        <time>2014-02-16T13:14:10Z</time>
      </trkpt>
      <trkpt lat="42.92585" lon="0.12503">
        <ele>2376</ele>
        <time>2014-02-16T13:14:21Z</time>
      </trkpt>
      <trkpt lat="42.92583" lon="0.12505">
        <ele>2377</ele>
        <time>2014-02-16T13:14:34Z</time>
      </trkpt>
      <trkpt lat="42.92578" lon="0.12514">
        <ele>2379</ele>
        <time>2014-02-16T13:14:50Z</time>
      </trkpt>
      <trkpt lat="42.92572" lon="0.12522">
        <ele>2382</ele>
        <time>2014-02-16T13:15:03Z</time>
      </trkpt>
      <trkpt lat="42.92566" lon="0.1253">
        <ele>2384</ele>
        <time>2014-02-16T13:15:18Z</time>
      </trkpt>
      <trkpt lat="42.92561" lon="0.12536">
        <ele>2387</ele>
        <time>2014-02-16T13:15:30Z</time>
      </trkpt>
      <trkpt lat="42.92559" lon="0.12541">
        <ele>2388</ele>
        <time>2014-02-16T13:15:52Z</time>
      </trkpt>
      <trkpt lat="42.92554" lon="0.12549">
        <ele>2390</ele>
        <time>2014-02-16T13:16:06Z</time>
      </trkpt>
      <trkpt lat="42.9255" lon="0.12552">
        <ele>2391</ele>
        <time>2014-02-16T13:16:20Z</time>
      </trkpt>
      <trkpt lat="42.92551" lon="0.12553">
        <ele>2391</ele>
        <time>2014-02-16T13:16:33Z</time>
      </trkpt>
      <trkpt lat="42.92556" lon="0.12556">
        <ele>2392</ele>
        <time>2014-02-16T13:16:51Z</time>
      </trkpt>
      <trkpt lat="42.92564" lon="0.12556">
        <ele>2394</ele>
        <time>2014-02-16T13:17:03Z</time>
      </trkpt>
      <trkpt lat="42.92571" lon="0.12558">
        <ele>2396</ele>
        <time>2014-02-16T13:17:17Z</time>
      </trkpt>
      <trkpt lat="42.92578" lon="0.12555">
        <ele>2398</ele>
        <time>2014-02-16T13:17:29Z</time>
      </trkpt>
      <trkpt lat="42.92577" lon="0.12555">
        <ele>2398</ele>
        <time>2014-02-16T13:17:46Z</time>
      </trkpt>
      <trkpt lat="42.92576" lon="0.12555">
        <ele>2399</ele>
        <time>2014-02-16T13:17:59Z</time>
      </trkpt>
      <trkpt lat="42.92569" lon="0.12565">
        <ele>2401</ele>
        <time>2014-02-16T13:18:14Z</time>
      </trkpt>
      <trkpt lat="42.92563" lon="0.1257">
        <ele>2403</ele>
        <time>2014-02-16T13:18:29Z</time>
      </trkpt>
      <trkpt lat="42.92563" lon="0.12569">
        <ele>2403</ele>
        <time>2014-02-16T13:18:46Z</time>
      </trkpt>
      <trkpt lat="42.92561" lon="0.1257">
        <ele>2403</ele>
        <time>2014-02-16T13:19:10Z</time>
      </trkpt>
      <trkpt lat="42.92561" lon="0.12569">
        <ele>2403</ele>
        <time>2014-02-16T13:19:27Z</time>
      </trkpt>
      <trkpt lat="42.92561" lon="0.12569">
        <ele>2402</ele>
        <time>2014-02-16T13:19:29Z</time>
      </trkpt>
      <trkpt lat="42.92559" lon="0.12568">
        <ele>2402</ele>
        <time>2014-02-16T13:19:51Z</time>
      </trkpt>
      <trkpt lat="42.92557" lon="0.12565">
        <ele>2402</ele>
        <time>2014-02-16T13:20:19Z</time>
      </trkpt>
      <trkpt lat="42.92558" lon="0.1257">
        <ele>2402</ele>
        <time>2014-02-16T13:20:46Z</time>
      </trkpt>
      <trkpt lat="42.92559" lon="0.12577">
        <ele>2402</ele>
        <time>2014-02-16T13:21:16Z</time>
      </trkpt>
      <trkpt lat="42.92557" lon="0.12574">
        <ele>2402</ele>
        <time>2014-02-16T13:21:43Z</time>
      </trkpt>
      <trkpt lat="42.92552" lon="0.12569">
        <ele>2402</ele>
        <time>2014-02-16T13:22:11Z</time>
      </trkpt>
      <trkpt lat="42.92551" lon="0.12567">
        <ele>2402</ele>
        <time>2014-02-16T13:22:45Z</time>
      </trkpt>
      <trkpt lat="42.92553" lon="0.12567">
        <ele>2402</ele>
        <time>2014-02-16T13:22:55Z</time>
      </trkpt>
      <trkpt lat="42.92557" lon="0.12559">
        <ele>2402</ele>
        <time>2014-02-16T13:23:25Z</time>
      </trkpt>
      <trkpt lat="42.92559" lon="0.12564">
        <ele>2402</ele>
        <time>2014-02-16T13:23:58Z</time>
      </trkpt>
      <trkpt lat="42.92557" lon="0.12568">
        <ele>2402</ele>
        <time>2014-02-16T13:24:27Z</time>
      </trkpt>
      <trkpt lat="42.92561" lon="0.1257">
        <ele>2403</ele>
        <time>2014-02-16T13:24:49Z</time>
      </trkpt>
      <trkpt lat="42.92562" lon="0.12568">
        <ele>2403</ele>
        <time>2014-02-16T13:25:05Z</time>
      </trkpt>
      <trkpt lat="42.92562" lon="0.12566">
        <ele>2403</ele>
        <time>2014-02-16T13:25:25Z</time>
      </trkpt>
      <trkpt lat="42.92564" lon="0.12564">
        <ele>2403</ele>
        <time>2014-02-16T13:25:47Z</time>
      </trkpt>
      <trkpt lat="42.92561" lon="0.12564">
        <ele>2403</ele>
        <time>2014-02-16T13:26:07Z</time>
      </trkpt>
      <trkpt lat="42.92561" lon="0.12565">
        <ele>2403</ele>
        <time>2014-02-16T13:26:24Z</time>
      </trkpt>
      <trkpt lat="42.92563" lon="0.12566">
        <ele>2403</ele>
        <time>2014-02-16T13:26:41Z</time>
      </trkpt>
      <trkpt lat="42.92562" lon="0.12567">
        <ele>2402</ele>
        <time>2014-02-16T13:26:50Z</time>
      </trkpt>
      <trkpt lat="42.92566" lon="0.12559">
        <ele>2401</ele>
        <time>2014-02-16T13:26:55Z</time>
      </trkpt>
      <trkpt lat="42.92563" lon="0.12557">
        <ele>2398</ele>
        <time>2014-02-16T13:26:57Z</time>
      </trkpt>
      <trkpt lat="42.92561" lon="0.12554">
        <ele>2398</ele>
        <time>2014-02-16T13:26:58Z</time>
      </trkpt>
      <trkpt lat="42.92562" lon="0.12551">
        <ele>2394</ele>
        <time>2014-02-16T13:26:59Z</time>
      </trkpt>
      <trkpt lat="42.92563" lon="0.12549">
        <ele>2394</ele>
        <time>2014-02-16T13:27:00Z</time>
      </trkpt>
      <trkpt lat="42.92561" lon="0.12546">
        <ele>2391</ele>
        <time>2014-02-16T13:27:02Z</time>
      </trkpt>
      <trkpt lat="42.92559" lon="0.12538">
        <ele>2387</ele>
        <time>2014-02-16T13:27:06Z</time>
      </trkpt>
      <trkpt lat="42.9256" lon="0.12535">
        <ele>2386</ele>
        <time>2014-02-16T13:27:07Z</time>
      </trkpt>
      <trkpt lat="42.92557" lon="0.12532">
        <ele>2382</ele>
        <time>2014-02-16T13:27:09Z</time>
      </trkpt>
      <trkpt lat="42.92556" lon="0.12526">
        <ele>2379</ele>
        <time>2014-02-16T13:27:11Z</time>
      </trkpt>
      <trkpt lat="42.92554" lon="0.12516">
        <ele>2375</ele>
        <time>2014-02-16T13:27:14Z</time>
      </trkpt>
      <trkpt lat="42.92553" lon="0.12509">
        <ele>2371</ele>
        <time>2014-02-16T13:27:16Z</time>
      </trkpt>
      <trkpt lat="42.92554" lon="0.12505">
        <ele>2371</ele>
        <time>2014-02-16T13:27:17Z</time>
      </trkpt>
      <trkpt lat="42.9255" lon="0.12501">
        <ele>2366</ele>
        <time>2014-02-16T13:27:19Z</time>
      </trkpt>
      <trkpt lat="42.9255" lon="0.12495">
        <ele>2362</ele>
        <time>2014-02-16T13:27:21Z</time>
      </trkpt>
      <trkpt lat="42.92547" lon="0.12488">
        <ele>2359</ele>
        <time>2014-02-16T13:27:25Z</time>
      </trkpt>
      <trkpt lat="42.92544" lon="0.12481">
        <ele>2354</ele>
        <time>2014-02-16T13:27:27Z</time>
      </trkpt>
      <trkpt lat="42.92541" lon="0.12472">
        <ele>2350</ele>
        <time>2014-02-16T13:27:30Z</time>
      </trkpt>
      <trkpt lat="42.92539" lon="0.12464">
        <ele>2346</ele>
        <time>2014-02-16T13:27:32Z</time>
      </trkpt>
      <trkpt lat="42.9254" lon="0.12461">
        <ele>2343</ele>
        <time>2014-02-16T13:27:33Z</time>
      </trkpt>
      <trkpt lat="42.92536" lon="0.12453">
        <ele>2340</ele>
        <time>2014-02-16T13:27:36Z</time>
      </trkpt>
      <trkpt lat="42.92529" lon="0.12451">
        <ele>2337</ele>
        <time>2014-02-16T13:27:38Z</time>
      </trkpt>
      <trkpt lat="42.92527" lon="0.1245">
        <ele>2337</ele>
        <time>2014-02-16T13:27:39Z</time>
      </trkpt>
      <trkpt lat="42.92525" lon="0.12451">
        <ele>2337</ele>
        <time>2014-02-16T13:27:56Z</time>
      </trkpt>
      <trkpt lat="42.92525" lon="0.12451">
        <ele>2337</ele>
        <time>2014-02-16T13:27:57Z</time>
      </trkpt>
      <trkpt lat="42.9253" lon="0.1244">
        <ele>2334</ele>
        <time>2014-02-16T13:28:02Z</time>
      </trkpt>
      <trkpt lat="42.92531" lon="0.12434">
        <ele>2331</ele>
        <time>2014-02-16T13:28:05Z</time>
      </trkpt>
      <trkpt lat="42.9253" lon="0.12426">
        <ele>2325</ele>
        <time>2014-02-16T13:28:09Z</time>
      </trkpt>
      <trkpt lat="42.92529" lon="0.12415">
        <ele>2319</ele>
        <time>2014-02-16T13:28:12Z</time>
      </trkpt>
      <trkpt lat="42.92528" lon="0.12412">
        <ele>2319</ele>
        <time>2014-02-16T13:28:13Z</time>
      </trkpt>
      <trkpt lat="42.92528" lon="0.12406">
        <ele>2315</ele>
        <time>2014-02-16T13:28:15Z</time>
      </trkpt>
      <trkpt lat="42.92528" lon="0.12399">
        <ele>2312</ele>
        <time>2014-02-16T13:28:17Z</time>
      </trkpt>
      <trkpt lat="42.92527" lon="0.12391">
        <ele>2308</ele>
        <time>2014-02-16T13:28:19Z</time>
      </trkpt>
      <trkpt lat="42.92528" lon="0.12386">
        <ele>2307</ele>
        <time>2014-02-16T13:28:20Z</time>
      </trkpt>
      <trkpt lat="42.92525" lon="0.12379">
        <ele>2302</ele>
        <time>2014-02-16T13:28:23Z</time>
      </trkpt>
      <trkpt lat="42.92526" lon="0.12362">
        <ele>2296</ele>
        <time>2014-02-16T13:28:26Z</time>
      </trkpt>
      <trkpt lat="42.92523" lon="0.12354">
        <ele>2291</ele>
        <time>2014-02-16T13:28:28Z</time>
      </trkpt>
      <trkpt lat="42.92523" lon="0.12343">
        <ele>2287</ele>
        <time>2014-02-16T13:28:30Z</time>
      </trkpt>
      <trkpt lat="42.92523" lon="0.12338">
        <ele>2285</ele>
        <time>2014-02-16T13:28:31Z</time>
      </trkpt>
      <trkpt lat="42.92521" lon="0.12334">
        <ele>2283</ele>
        <time>2014-02-16T13:28:32Z</time>
      </trkpt>
      <trkpt lat="42.92514" lon="0.12329">
        <ele>2279</ele>
        <time>2014-02-16T13:28:34Z</time>
      </trkpt>
      <trkpt lat="42.92511" lon="0.12325">
        <ele>2278</ele>
        <time>2014-02-16T13:28:35Z</time>
      </trkpt>
      <trkpt lat="42.9251" lon="0.1232">
        <ele>2276</ele>
        <time>2014-02-16T13:28:36Z</time>
      </trkpt>
      <trkpt lat="42.92508" lon="0.12307">
        <ele>2273</ele>
        <time>2014-02-16T13:28:39Z</time>
      </trkpt>
      <trkpt lat="42.92507" lon="0.12304">
        <ele>2271</ele>
        <time>2014-02-16T13:28:40Z</time>
      </trkpt>
      <trkpt lat="42.92504" lon="0.12294">
        <ele>2267</ele>
        <time>2014-02-16T13:28:42Z</time>
      </trkpt>
      <trkpt lat="42.925" lon="0.1228">
        <ele>2263</ele>
        <time>2014-02-16T13:28:44Z</time>
      </trkpt>
      <trkpt lat="42.92493" lon="0.12266">
        <ele>2258</ele>
        <time>2014-02-16T13:28:46Z</time>
      </trkpt>
      <trkpt lat="42.92492" lon="0.12259">
        <ele>2257</ele>
        <time>2014-02-16T13:28:47Z</time>
      </trkpt>
      <trkpt lat="42.92485" lon="0.12231">
        <ele>2247</ele>
        <time>2014-02-16T13:28:51Z</time>
      </trkpt>
      <trkpt lat="42.92484" lon="0.12224">
        <ele>2243</ele>
        <time>2014-02-16T13:28:52Z</time>
      </trkpt>
      <trkpt lat="42.92486" lon="0.12206">
        <ele>2240</ele>
        <time>2014-02-16T13:28:55Z</time>
      </trkpt>
      <trkpt lat="42.92484" lon="0.12199">
        <ele>2239</ele>
        <time>2014-02-16T13:28:56Z</time>
      </trkpt>
      <trkpt lat="42.92481" lon="0.12185">
        <ele>2234</ele>
        <time>2014-02-16T13:28:58Z</time>
      </trkpt>
      <trkpt lat="42.92478" lon="0.12179">
        <ele>2233</ele>
        <time>2014-02-16T13:28:59Z</time>
      </trkpt>
      <trkpt lat="42.92474" lon="0.12175">
        <ele>2230</ele>
        <time>2014-02-16T13:29:00Z</time>
      </trkpt>
      <trkpt lat="42.92467" lon="0.12161">
        <ele>2226</ele>
        <time>2014-02-16T13:29:02Z</time>
      </trkpt>
      <trkpt lat="42.92462" lon="0.12146">
        <ele>2220</ele>
        <time>2014-02-16T13:29:04Z</time>
      </trkpt>
      <trkpt lat="42.92465" lon="0.12128">
        <ele>2217</ele>
        <time>2014-02-16T13:29:07Z</time>
      </trkpt>
      <trkpt lat="42.92464" lon="0.1212">
        <ele>2216</ele>
        <time>2014-02-16T13:29:08Z</time>
      </trkpt>
      <trkpt lat="42.92455" lon="0.12081">
        <ele>2212</ele>
        <time>2014-02-16T13:29:12Z</time>
      </trkpt>
      <trkpt lat="42.92452" lon="0.12067">
        <ele>2211</ele>
        <time>2014-02-16T13:29:14Z</time>
      </trkpt>
      <trkpt lat="42.92449" lon="0.12055">
        <ele>2210</ele>
        <time>2014-02-16T13:29:16Z</time>
      </trkpt>
      <trkpt lat="42.92448" lon="0.12024">
        <ele>2206</ele>
        <time>2014-02-16T13:29:22Z</time>
      </trkpt>
      <trkpt lat="42.92452" lon="0.12028">
        <ele>2206</ele>
        <time>2014-02-16T13:29:29Z</time>
      </trkpt>
      <trkpt lat="42.92459" lon="0.1205">
        <ele>2206</ele>
        <time>2014-02-16T13:29:51Z</time>
      </trkpt>
      <trkpt lat="42.92442" lon="0.12053">
        <ele>2201</ele>
        <time>2014-02-16T13:29:55Z</time>
      </trkpt>
      <trkpt lat="42.92434" lon="0.1205">
        <ele>2200</ele>
        <time>2014-02-16T13:29:57Z</time>
      </trkpt>
      <trkpt lat="42.92424" lon="0.12052">
        <ele>2196</ele>
        <time>2014-02-16T13:29:59Z</time>
      </trkpt>
      <trkpt lat="42.92404" lon="0.12049">
        <ele>2190</ele>
        <time>2014-02-16T13:30:03Z</time>
      </trkpt>
      <trkpt lat="42.9239" lon="0.12047">
        <ele>2185</ele>
        <time>2014-02-16T13:30:06Z</time>
      </trkpt>
      <trkpt lat="42.92385" lon="0.12048">
        <ele>2185</ele>
        <time>2014-02-16T13:30:07Z</time>
      </trkpt>
      <trkpt lat="42.92376" lon="0.12049">
        <ele>2182</ele>
        <time>2014-02-16T13:30:09Z</time>
      </trkpt>
      <trkpt lat="42.92368" lon="0.12045">
        <ele>2181</ele>
        <time>2014-02-16T13:30:11Z</time>
      </trkpt>
      <trkpt lat="42.92364" lon="0.12048">
        <ele>2180</ele>
        <time>2014-02-16T13:30:20Z</time>
      </trkpt>
      <trkpt lat="42.92362" lon="0.12049">
        <ele>2181</ele>
        <time>2014-02-16T13:30:37Z</time>
      </trkpt>
      <trkpt lat="42.92362" lon="0.12049">
        <ele>2181</ele>
        <time>2014-02-16T13:31:00Z</time>
      </trkpt>
      <trkpt lat="42.92362" lon="0.1205">
        <ele>2180</ele>
        <time>2014-02-16T13:31:18Z</time>
      </trkpt>
      <trkpt lat="42.92354" lon="0.1204">
        <ele>2179</ele>
        <time>2014-02-16T13:31:22Z</time>
      </trkpt>
      <trkpt lat="42.92353" lon="0.12036">
        <ele>2178</ele>
        <time>2014-02-16T13:31:23Z</time>
      </trkpt>
      <trkpt lat="42.9235" lon="0.12034">
        <ele>2178</ele>
        <time>2014-02-16T13:31:24Z</time>
      </trkpt>
      <trkpt lat="42.92348" lon="0.12036">
        <ele>2176</ele>
        <time>2014-02-16T13:31:25Z</time>
      </trkpt>
      <trkpt lat="42.92345" lon="0.12039">
        <ele>2176</ele>
        <time>2014-02-16T13:31:26Z</time>
      </trkpt>
      <trkpt lat="42.92342" lon="0.12041">
        <ele>2175</ele>
        <time>2014-02-16T13:31:27Z</time>
      </trkpt>
      <trkpt lat="42.92339" lon="0.12039">
        <ele>2173</ele>
        <time>2014-02-16T13:31:28Z</time>
      </trkpt>
      <trkpt lat="42.92336" lon="0.12034">
        <ele>2171</ele>
        <time>2014-02-16T13:31:29Z</time>
      </trkpt>
      <trkpt lat="42.92333" lon="0.12033">
        <ele>2171</ele>
        <time>2014-02-16T13:31:30Z</time>
      </trkpt>
      <trkpt lat="42.92329" lon="0.12034">
        <ele>2169</ele>
        <time>2014-02-16T13:31:31Z</time>
      </trkpt>
      <trkpt lat="42.92325" lon="0.12034">
        <ele>2168</ele>
        <time>2014-02-16T13:31:32Z</time>
      </trkpt>
      <trkpt lat="42.9232" lon="0.12033">
        <ele>2165</ele>
        <time>2014-02-16T13:31:33Z</time>
      </trkpt>
      <trkpt lat="42.9231" lon="0.12032">
        <ele>2162</ele>
        <time>2014-02-16T13:31:35Z</time>
      </trkpt>
      <trkpt lat="42.92305" lon="0.12032">
        <ele>2160</ele>
        <time>2014-02-16T13:31:36Z</time>
      </trkpt>
      <trkpt lat="42.92301" lon="0.12028">
        <ele>2159</ele>
        <time>2014-02-16T13:31:37Z</time>
      </trkpt>
      <trkpt lat="42.92297" lon="0.12023">
        <ele>2158</ele>
        <time>2014-02-16T13:31:38Z</time>
      </trkpt>
      <trkpt lat="42.92292" lon="0.12022">
        <ele>2155</ele>
        <time>2014-02-16T13:31:39Z</time>
      </trkpt>
      <trkpt lat="42.92285" lon="0.12017">
        <ele>2151</ele>
        <time>2014-02-16T13:31:41Z</time>
      </trkpt>
      <trkpt lat="42.92274" lon="0.12002">
        <ele>2147</ele>
        <time>2014-02-16T13:31:44Z</time>
      </trkpt>
      <trkpt lat="42.92263" lon="0.1199">
        <ele>2142</ele>
        <time>2014-02-16T13:31:47Z</time>
      </trkpt>
      <trkpt lat="42.92259" lon="0.11985">
        <ele>2140</ele>
        <time>2014-02-16T13:31:48Z</time>
      </trkpt>
      <trkpt lat="42.92256" lon="0.11981">
        <ele>2140</ele>
        <time>2014-02-16T13:31:49Z</time>
      </trkpt>
      <trkpt lat="42.92249" lon="0.11972">
        <ele>2136</ele>
        <time>2014-02-16T13:31:51Z</time>
      </trkpt>
      <trkpt lat="42.92239" lon="0.1196">
        <ele>2132</ele>
        <time>2014-02-16T13:31:54Z</time>
      </trkpt>
      <trkpt lat="42.92235" lon="0.11958">
        <ele>2132</ele>
        <time>2014-02-16T13:31:55Z</time>
      </trkpt>
      <trkpt lat="42.92224" lon="0.11958">
        <ele>2131</ele>
        <time>2014-02-16T13:32:01Z</time>
      </trkpt>
      <trkpt lat="42.92223" lon="0.11957">
        <ele>2130</ele>
        <time>2014-02-16T13:32:04Z</time>
      </trkpt>
      <trkpt lat="42.92219" lon="0.11955">
        <ele>2129</ele>
        <time>2014-02-16T13:32:15Z</time>
      </trkpt>
      <trkpt lat="42.92206" lon="0.11936">
        <ele>2126</ele>
        <time>2014-02-16T13:32:21Z</time>
      </trkpt>
      <trkpt lat="42.92199" lon="0.11929">
        <ele>2123</ele>
        <time>2014-02-16T13:32:23Z</time>
      </trkpt>
      <trkpt lat="42.9219" lon="0.11929">
        <ele>2120</ele>
        <time>2014-02-16T13:32:25Z</time>
      </trkpt>
      <trkpt lat="42.92177" lon="0.11925">
        <ele>2116</ele>
        <time>2014-02-16T13:32:28Z</time>
      </trkpt>
      <trkpt lat="42.92164" lon="0.11914">
        <ele>2112</ele>
        <time>2014-02-16T13:32:31Z</time>
      </trkpt>
      <trkpt lat="42.9215" lon="0.11906">
        <ele>2107</ele>
        <time>2014-02-16T13:32:34Z</time>
      </trkpt>
      <trkpt lat="42.92134" lon="0.119">
        <ele>2103</ele>
        <time>2014-02-16T13:32:37Z</time>
      </trkpt>
      <trkpt lat="42.9212" lon="0.11892">
        <ele>2100</ele>
        <time>2014-02-16T13:32:40Z</time>
      </trkpt>
      <trkpt lat="42.92111" lon="0.11885">
        <ele>2097</ele>
        <time>2014-02-16T13:32:42Z</time>
      </trkpt>
      <trkpt lat="42.92101" lon="0.1188">
        <ele>2095</ele>
        <time>2014-02-16T13:32:44Z</time>
      </trkpt>
      <trkpt lat="42.92069" lon="0.11863">
        <ele>2092</ele>
        <time>2014-02-16T13:32:51Z</time>
      </trkpt>
      <trkpt lat="42.92067" lon="0.11864">
        <ele>2093</ele>
        <time>2014-02-16T13:33:03Z</time>
      </trkpt>
      <trkpt lat="42.92069" lon="0.11863">
        <ele>2092</ele>
        <time>2014-02-16T13:33:30Z</time>
      </trkpt>
      <trkpt lat="42.92069" lon="0.11864">
        <ele>2092</ele>
        <time>2014-02-16T13:33:41Z</time>
      </trkpt>
      <trkpt lat="42.92065" lon="0.11864">
        <ele>2092</ele>
        <time>2014-02-16T13:33:43Z</time>
      </trkpt>
      <trkpt lat="42.92058" lon="0.11865">
        <ele>2091</ele>
        <time>2014-02-16T13:33:45Z</time>
      </trkpt>
      <trkpt lat="42.92053" lon="0.11869">
        <ele>2091</ele>
        <time>2014-02-16T13:33:47Z</time>
      </trkpt>
      <trkpt lat="42.92047" lon="0.11868">
        <ele>2089</ele>
        <time>2014-02-16T13:33:49Z</time>
      </trkpt>
      <trkpt lat="42.92044" lon="0.11863">
        <ele>2088</ele>
        <time>2014-02-16T13:33:50Z</time>
      </trkpt>
      <trkpt lat="42.92043" lon="0.11858">
        <ele>2087</ele>
        <time>2014-02-16T13:33:51Z</time>
      </trkpt>
      <trkpt lat="42.92039" lon="0.11855">
        <ele>2085</ele>
        <time>2014-02-16T13:33:52Z</time>
      </trkpt>
      <trkpt lat="42.92036" lon="0.11851">
        <ele>2084</ele>
        <time>2014-02-16T13:33:53Z</time>
      </trkpt>
      <trkpt lat="42.92035" lon="0.11844">
        <ele>2082</ele>
        <time>2014-02-16T13:33:54Z</time>
      </trkpt>
      <trkpt lat="42.92032" lon="0.11838">
        <ele>2080</ele>
        <time>2014-02-16T13:33:55Z</time>
      </trkpt>
      <trkpt lat="42.92027" lon="0.11835">
        <ele>2078</ele>
        <time>2014-02-16T13:33:56Z</time>
      </trkpt>
      <trkpt lat="42.92022" lon="0.11834">
        <ele>2077</ele>
        <time>2014-02-16T13:33:57Z</time>
      </trkpt>
      <trkpt lat="42.92017" lon="0.11834">
        <ele>2075</ele>
        <time>2014-02-16T13:33:58Z</time>
      </trkpt>
      <trkpt lat="42.92013" lon="0.11832">
        <ele>2075</ele>
        <time>2014-02-16T13:33:59Z</time>
      </trkpt>
      <trkpt lat="42.9201" lon="0.11827">
        <ele>2073</ele>
        <time>2014-02-16T13:34:00Z</time>
      </trkpt>
      <trkpt lat="42.92007" lon="0.11822">
        <ele>2074</ele>
        <time>2014-02-16T13:34:01Z</time>
      </trkpt>
      <trkpt lat="42.92003" lon="0.11818">
        <ele>2071</ele>
        <time>2014-02-16T13:34:02Z</time>
      </trkpt>
      <trkpt lat="42.91999" lon="0.11811">
        <ele>2071</ele>
        <time>2014-02-16T13:34:03Z</time>
      </trkpt>
      <trkpt lat="42.91995" lon="0.11806">
        <ele>2069</ele>
        <time>2014-02-16T13:34:04Z</time>
      </trkpt>
      <trkpt lat="42.91992" lon="0.11801">
        <ele>2067</ele>
        <time>2014-02-16T13:34:05Z</time>
      </trkpt>
      <trkpt lat="42.9199" lon="0.11795">
        <ele>2067</ele>
        <time>2014-02-16T13:34:06Z</time>
      </trkpt>
      <trkpt lat="42.91987" lon="0.11788">
        <ele>2066</ele>
        <time>2014-02-16T13:34:07Z</time>
      </trkpt>
      <trkpt lat="42.91982" lon="0.11785">
        <ele>2064</ele>
        <time>2014-02-16T13:34:08Z</time>
      </trkpt>
      <trkpt lat="42.91977" lon="0.11783">
        <ele>2064</ele>
        <time>2014-02-16T13:34:09Z</time>
      </trkpt>
      <trkpt lat="42.91954" lon="0.11771">
        <ele>2060</ele>
        <time>2014-02-16T13:34:13Z</time>
      </trkpt>
      <trkpt lat="42.91942" lon="0.11767">
        <ele>2058</ele>
        <time>2014-02-16T13:34:15Z</time>
      </trkpt>
      <trkpt lat="42.91937" lon="0.11766">
        <ele>2057</ele>
        <time>2014-02-16T13:34:16Z</time>
      </trkpt>
      <trkpt lat="42.9193" lon="0.11768">
        <ele>2055</ele>
        <time>2014-02-16T13:34:18Z</time>
      </trkpt>
      <trkpt lat="42.9192" lon="0.11772">
        <ele>2055</ele>
        <time>2014-02-16T13:34:21Z</time>
      </trkpt>
      <trkpt lat="42.91916" lon="0.11774">
        <ele>2053</ele>
        <time>2014-02-16T13:34:22Z</time>
      </trkpt>
      <trkpt lat="42.91913" lon="0.11777">
        <ele>2053</ele>
        <time>2014-02-16T13:34:23Z</time>
      </trkpt>
      <trkpt lat="42.91911" lon="0.11778">
        <ele>2052</ele>
        <time>2014-02-16T13:34:24Z</time>
      </trkpt>
      <trkpt lat="42.91906" lon="0.11778">
        <ele>2051</ele>
        <time>2014-02-16T13:34:25Z</time>
      </trkpt>
      <trkpt lat="42.91898" lon="0.11767">
        <ele>2046</ele>
        <time>2014-02-16T13:34:28Z</time>
      </trkpt>
      <trkpt lat="42.91894" lon="0.11768">
        <ele>2044</ele>
        <time>2014-02-16T13:34:29Z</time>
      </trkpt>
      <trkpt lat="42.91891" lon="0.11771">
        <ele>2043</ele>
        <time>2014-02-16T13:34:30Z</time>
      </trkpt>
      <trkpt lat="42.91886" lon="0.11772">
        <ele>2042</ele>
        <time>2014-02-16T13:34:31Z</time>
      </trkpt>
      <trkpt lat="42.91883" lon="0.11769">
        <ele>2039</ele>
        <time>2014-02-16T13:34:32Z</time>
      </trkpt>
      <trkpt lat="42.9188" lon="0.11765">
        <ele>2038</ele>
        <time>2014-02-16T13:34:33Z</time>
      </trkpt>
      <trkpt lat="42.91875" lon="0.11761">
        <ele>2036</ele>
        <time>2014-02-16T13:34:34Z</time>
      </trkpt>
      <trkpt lat="42.91869" lon="0.11763">
        <ele>2033</ele>
        <time>2014-02-16T13:34:35Z</time>
      </trkpt>
      <trkpt lat="42.91862" lon="0.11767">
        <ele>2030</ele>
        <time>2014-02-16T13:34:36Z</time>
      </trkpt>
      <trkpt lat="42.91854" lon="0.1177">
        <ele>2027</ele>
        <time>2014-02-16T13:34:37Z</time>
      </trkpt>
      <trkpt lat="42.91843" lon="0.11766">
        <ele>2026</ele>
        <time>2014-02-16T13:34:39Z</time>
      </trkpt>
      <trkpt lat="42.91838" lon="0.11755">
        <ele>2025</ele>
        <time>2014-02-16T13:34:41Z</time>
      </trkpt>
      <trkpt lat="42.91829" lon="0.11748">
        <ele>2022</ele>
        <time>2014-02-16T13:34:46Z</time>
      </trkpt>
      <trkpt lat="42.9183" lon="0.11746">
        <ele>2022</ele>
        <time>2014-02-16T13:34:59Z</time>
      </trkpt>
      <trkpt lat="42.91821" lon="0.11743">
        <ele>2019</ele>
        <time>2014-02-16T13:35:02Z</time>
      </trkpt>
      <trkpt lat="42.91809" lon="0.1175">
        <ele>2017</ele>
        <time>2014-02-16T13:35:06Z</time>
      </trkpt>
      <trkpt lat="42.91785" lon="0.11749">
        <ele>2014</ele>
        <time>2014-02-16T13:35:13Z</time>
      </trkpt>
      <trkpt lat="42.91783" lon="0.11747">
        <ele>2013</ele>
        <time>2014-02-16T13:35:14Z</time>
      </trkpt>
      <trkpt lat="42.9178" lon="0.11743">
        <ele>2011</ele>
        <time>2014-02-16T13:35:24Z</time>
      </trkpt>
      <trkpt lat="42.91781" lon="0.11744">
        <ele>2011</ele>
        <time>2014-02-16T13:35:42Z</time>
      </trkpt>
      <trkpt lat="42.91772" lon="0.11727">
        <ele>2009</ele>
        <time>2014-02-16T13:35:48Z</time>
      </trkpt>
      <trkpt lat="42.91763" lon="0.11725">
        <ele>2004</ele>
        <time>2014-02-16T13:35:52Z</time>
      </trkpt>
      <trkpt lat="42.91753" lon="0.11726">
        <ele>2001</ele>
        <time>2014-02-16T13:35:54Z</time>
      </trkpt>
      <trkpt lat="42.91745" lon="0.11727">
        <ele>1996</ele>
        <time>2014-02-16T13:35:56Z</time>
      </trkpt>
      <trkpt lat="42.91736" lon="0.11728">
        <ele>1991</ele>
        <time>2014-02-16T13:35:58Z</time>
      </trkpt>
      <trkpt lat="42.91728" lon="0.11721">
        <ele>1989</ele>
        <time>2014-02-16T13:36:00Z</time>
      </trkpt>
      <trkpt lat="42.91717" lon="0.1172">
        <ele>1982</ele>
        <time>2014-02-16T13:36:03Z</time>
      </trkpt>
      <trkpt lat="42.91712" lon="0.11716">
        <ele>1980</ele>
        <time>2014-02-16T13:36:05Z</time>
      </trkpt>
      <trkpt lat="42.91708" lon="0.11722">
        <ele>1977</ele>
        <time>2014-02-16T13:36:07Z</time>
      </trkpt>
      <trkpt lat="42.91702" lon="0.11718">
        <ele>1972</ele>
        <time>2014-02-16T13:36:09Z</time>
      </trkpt>
      <trkpt lat="42.91699" lon="0.11714">
        <ele>1972</ele>
        <time>2014-02-16T13:36:10Z</time>
      </trkpt>
      <trkpt lat="42.91693" lon="0.11715">
        <ele>1966</ele>
        <time>2014-02-16T13:36:12Z</time>
      </trkpt>
      <trkpt lat="42.91685" lon="0.11719">
        <ele>1962</ele>
        <time>2014-02-16T13:36:16Z</time>
      </trkpt>
      <trkpt lat="42.91676" lon="0.11717">
        <ele>1958</ele>
        <time>2014-02-16T13:36:18Z</time>
      </trkpt>
      <trkpt lat="42.91672" lon="0.11721">
        <ele>1956</ele>
        <time>2014-02-16T13:36:19Z</time>
      </trkpt>
      <trkpt lat="42.91651" lon="0.11748">
        <ele>1951</ele>
        <time>2014-02-16T13:36:24Z</time>
      </trkpt>
      <trkpt lat="42.91648" lon="0.11752">
        <ele>1951</ele>
        <time>2014-02-16T13:36:25Z</time>
      </trkpt>
      <trkpt lat="42.91646" lon="0.11754">
        <ele>1951</ele>
        <time>2014-02-16T13:36:27Z</time>
      </trkpt>
      <trkpt lat="42.91638" lon="0.11754">
        <ele>1951</ele>
        <time>2014-02-16T13:36:37Z</time>
      </trkpt>
      <trkpt lat="42.91629" lon="0.11761">
        <ele>1948</ele>
        <time>2014-02-16T13:36:41Z</time>
      </trkpt>
      <trkpt lat="42.91627" lon="0.11763">
        <ele>1947</ele>
        <time>2014-02-16T13:36:42Z</time>
      </trkpt>
      <trkpt lat="42.91619" lon="0.11755">
        <ele>1943</ele>
        <time>2014-02-16T13:36:45Z</time>
      </trkpt>
      <trkpt lat="42.9161" lon="0.11753">
        <ele>1940</ele>
        <time>2014-02-16T13:36:47Z</time>
      </trkpt>
      <trkpt lat="42.91608" lon="0.11757">
        <ele>1939</ele>
        <time>2014-02-16T13:36:48Z</time>
      </trkpt>
      <trkpt lat="42.91606" lon="0.11763">
        <ele>1937</ele>
        <time>2014-02-16T13:36:50Z</time>
      </trkpt>
      <trkpt lat="42.91599" lon="0.11763">
        <ele>1933</ele>
        <time>2014-02-16T13:36:54Z</time>
      </trkpt>
      <trkpt lat="42.91599" lon="0.11757">
        <ele>1931</ele>
        <time>2014-02-16T13:36:56Z</time>
      </trkpt>
      <trkpt lat="42.9159" lon="0.1176">
        <ele>1928</ele>
        <time>2014-02-16T13:37:00Z</time>
      </trkpt>
      <trkpt lat="42.91588" lon="0.11771">
        <ele>1926</ele>
        <time>2014-02-16T13:37:02Z</time>
      </trkpt>
      <trkpt lat="42.9158" lon="0.11769">
        <ele>1920</ele>
        <time>2014-02-16T13:37:06Z</time>
      </trkpt>
      <trkpt lat="42.91576" lon="0.11761">
        <ele>1917</ele>
        <time>2014-02-16T13:37:10Z</time>
      </trkpt>
      <trkpt lat="42.9157" lon="0.11769">
        <ele>1914</ele>
        <time>2014-02-16T13:37:12Z</time>
      </trkpt>
      <trkpt lat="42.91564" lon="0.11778">
        <ele>1912</ele>
        <time>2014-02-16T13:37:21Z</time>
      </trkpt>
      <trkpt lat="42.91563" lon="0.1178">
        <ele>1912</ele>
        <time>2014-02-16T13:37:24Z</time>
      </trkpt>
      <trkpt lat="42.91558" lon="0.11771">
        <ele>1909</ele>
        <time>2014-02-16T13:37:27Z</time>
      </trkpt>
      <trkpt lat="42.91558" lon="0.11761">
        <ele>1907</ele>
        <time>2014-02-16T13:37:29Z</time>
      </trkpt>
      <trkpt lat="42.9155" lon="0.1176">
        <ele>1904</ele>
        <time>2014-02-16T13:37:31Z</time>
      </trkpt>
      <trkpt lat="42.91547" lon="0.11765">
        <ele>1903</ele>
        <time>2014-02-16T13:37:33Z</time>
      </trkpt>
      <trkpt lat="42.91547" lon="0.11767">
        <ele>1903</ele>
        <time>2014-02-16T13:37:34Z</time>
      </trkpt>
      <trkpt lat="42.91539" lon="0.11776">
        <ele>1900</ele>
        <time>2014-02-16T13:37:39Z</time>
      </trkpt>
      <trkpt lat="42.91522" lon="0.11781">
        <ele>1898</ele>
        <time>2014-02-16T13:37:43Z</time>
      </trkpt>
      <trkpt lat="42.91512" lon="0.11784">
        <ele>1896</ele>
        <time>2014-02-16T13:37:45Z</time>
      </trkpt>
      <trkpt lat="42.91508" lon="0.11788">
        <ele>1895</ele>
        <time>2014-02-16T13:37:46Z</time>
      </trkpt>
      <trkpt lat="42.91502" lon="0.11796">
        <ele>1894</ele>
        <time>2014-02-16T13:37:48Z</time>
      </trkpt>
      <trkpt lat="42.91484" lon="0.11783">
        <ele>1889</ele>
        <time>2014-02-16T13:37:53Z</time>
      </trkpt>
      <trkpt lat="42.91479" lon="0.11785">
        <ele>1887</ele>
        <time>2014-02-16T13:38:00Z</time>
      </trkpt>
      <trkpt lat="42.91479" lon="0.11785">
        <ele>1887</ele>
        <time>2014-02-16T13:38:17Z</time>
      </trkpt>
      <trkpt lat="42.91479" lon="0.11785">
        <ele>1888</ele>
        <time>2014-02-16T13:38:36Z</time>
      </trkpt>
      <trkpt lat="42.91473" lon="0.11788">
        <ele>1887</ele>
        <time>2014-02-16T13:38:51Z</time>
      </trkpt>
      <trkpt lat="42.91467" lon="0.1178">
        <ele>1883</ele>
        <time>2014-02-16T13:38:54Z</time>
      </trkpt>
      <trkpt lat="42.91462" lon="0.11775">
        <ele>1882</ele>
        <time>2014-02-16T13:38:56Z</time>
      </trkpt>
      <trkpt lat="42.91455" lon="0.11774">
        <ele>1877</ele>
        <time>2014-02-16T13:38:59Z</time>
      </trkpt>
      <trkpt lat="42.91457" lon="0.11756">
        <ele>1874</ele>
        <time>2014-02-16T13:39:04Z</time>
      </trkpt>
      <trkpt lat="42.91448" lon="0.11749">
        <ele>1870</ele>
        <time>2014-02-16T13:39:08Z</time>
      </trkpt>
      <trkpt lat="42.9144" lon="0.11742">
        <ele>1867</ele>
        <time>2014-02-16T13:39:11Z</time>
      </trkpt>
      <trkpt lat="42.91437" lon="0.11737">
        <ele>1866</ele>
        <time>2014-02-16T13:39:13Z</time>
      </trkpt>
      <trkpt lat="42.91434" lon="0.1174">
        <ele>1864</ele>
        <time>2014-02-16T13:39:14Z</time>
      </trkpt>
      <trkpt lat="42.91419" lon="0.11753">
        <ele>1862</ele>
        <time>2014-02-16T13:39:20Z</time>
      </trkpt>
      <trkpt lat="42.914" lon="0.11746">
        <ele>1857</ele>
        <time>2014-02-16T13:39:24Z</time>
      </trkpt>
      <trkpt lat="42.91381" lon="0.11735">
        <ele>1853</ele>
        <time>2014-02-16T13:39:27Z</time>
      </trkpt>
      <trkpt lat="42.91375" lon="0.11732">
        <ele>1854</ele>
        <time>2014-02-16T13:39:28Z</time>
      </trkpt>
      <trkpt lat="42.9136" lon="0.11725">
        <ele>1851</ele>
        <time>2014-02-16T13:39:31Z</time>
      </trkpt>
      <trkpt lat="42.91349" lon="0.1172">
        <ele>1851</ele>
        <time>2014-02-16T13:39:35Z</time>
      </trkpt>
      <trkpt lat="42.91335" lon="0.11715">
        <ele>1850</ele>
        <time>2014-02-16T13:39:43Z</time>
      </trkpt>
      <trkpt lat="42.91332" lon="0.11714">
        <ele>1850</ele>
        <time>2014-02-16T13:39:44Z</time>
      </trkpt>
      <trkpt lat="42.91317" lon="0.1171">
        <ele>1848</ele>
        <time>2014-02-16T13:39:48Z</time>
      </trkpt>
      <trkpt lat="42.91308" lon="0.11705">
        <ele>1847</ele>
        <time>2014-02-16T13:39:50Z</time>
      </trkpt>
      <trkpt lat="42.91288" lon="0.11694">
        <ele>1844</ele>
        <time>2014-02-16T13:39:56Z</time>
      </trkpt>
      <trkpt lat="42.91284" lon="0.11695">
        <ele>1843</ele>
        <time>2014-02-16T13:39:59Z</time>
      </trkpt>
      <trkpt lat="42.91284" lon="0.11697">
        <ele>1843</ele>
        <time>2014-02-16T13:40:11Z</time>
      </trkpt>
      <trkpt lat="42.91277" lon="0.1172">
        <ele>1840</ele>
        <time>2014-02-16T13:40:18Z</time>
      </trkpt>
      <trkpt lat="42.91276" lon="0.1173">
        <ele>1838</ele>
        <time>2014-02-16T13:40:21Z</time>
      </trkpt>
      <trkpt lat="42.91274" lon="0.11738">
        <ele>1837</ele>
        <time>2014-02-16T13:40:24Z</time>
      </trkpt>
      <trkpt lat="42.91265" lon="0.11734">
        <ele>1833</ele>
        <time>2014-02-16T13:40:27Z</time>
      </trkpt>
      <trkpt lat="42.9126" lon="0.11721">
        <ele>1830</ele>
        <time>2014-02-16T13:40:30Z</time>
      </trkpt>
      <trkpt lat="42.91259" lon="0.11718">
        <ele>1830</ele>
        <time>2014-02-16T13:40:31Z</time>
      </trkpt>
      <trkpt lat="42.91255" lon="0.11711">
        <ele>1829</ele>
        <time>2014-02-16T13:40:33Z</time>
      </trkpt>
      <trkpt lat="42.91244" lon="0.11724">
        <ele>1824</ele>
        <time>2014-02-16T13:40:37Z</time>
      </trkpt>
      <trkpt lat="42.91234" lon="0.1172">
        <ele>1820</ele>
        <time>2014-02-16T13:40:41Z</time>
      </trkpt>
      <trkpt lat="42.91223" lon="0.11712">
        <ele>1816</ele>
        <time>2014-02-16T13:40:45Z</time>
      </trkpt>
      <trkpt lat="42.91213" lon="0.11716">
        <ele>1812</ele>
        <time>2014-02-16T13:40:48Z</time>
      </trkpt>
      <trkpt lat="42.91207" lon="0.11704">
        <ele>1808</ele>
        <time>2014-02-16T13:40:51Z</time>
      </trkpt>
      <trkpt lat="42.91199" lon="0.11707">
        <ele>1805</ele>
        <time>2014-02-16T13:40:53Z</time>
      </trkpt>
      <trkpt lat="42.91197" lon="0.11712">
        <ele>1803</ele>
        <time>2014-02-16T13:41:00Z</time>
      </trkpt>
      <trkpt lat="42.91197" lon="0.11713">
        <ele>1803</ele>
        <time>2014-02-16T13:41:07Z</time>
      </trkpt>
      <trkpt lat="42.91192" lon="0.11726">
        <ele>1800</ele>
        <time>2014-02-16T13:41:13Z</time>
      </trkpt>
      <trkpt lat="42.91189" lon="0.11728">
        <ele>1800</ele>
        <time>2014-02-16T13:41:30Z</time>
      </trkpt>
      <trkpt lat="42.91183" lon="0.11722">
        <ele>1796</ele>
        <time>2014-02-16T13:41:34Z</time>
      </trkpt>
      <trkpt lat="42.91182" lon="0.11719">
        <ele>1796</ele>
        <time>2014-02-16T13:41:35Z</time>
      </trkpt>
      <trkpt lat="42.91174" lon="0.1172">
        <ele>1793</ele>
        <time>2014-02-16T13:41:38Z</time>
      </trkpt>
      <trkpt lat="42.91171" lon="0.11727">
        <ele>1792</ele>
        <time>2014-02-16T13:41:40Z</time>
      </trkpt>
      <trkpt lat="42.91164" lon="0.11726">
        <ele>1787</ele>
        <time>2014-02-16T13:41:42Z</time>
      </trkpt>
      <trkpt lat="42.91155" lon="0.11722">
        <ele>1784</ele>
        <time>2014-02-16T13:41:46Z</time>
      </trkpt>
      <trkpt lat="42.91148" lon="0.11726">
        <ele>1780</ele>
        <time>2014-02-16T13:41:50Z</time>
      </trkpt>
      <trkpt lat="42.91147" lon="0.11722">
        <ele>1779</ele>
        <time>2014-02-16T13:41:51Z</time>
      </trkpt>
      <trkpt lat="42.91146" lon="0.11716">
        <ele>1778</ele>
        <time>2014-02-16T13:41:53Z</time>
      </trkpt>
      <trkpt lat="42.91137" lon="0.11722">
        <ele>1774</ele>
        <time>2014-02-16T13:41:57Z</time>
      </trkpt>
      <trkpt lat="42.91133" lon="0.11733">
        <ele>1770</ele>
        <time>2014-02-16T13:42:02Z</time>
      </trkpt>
      <trkpt lat="42.91125" lon="0.11718">
        <ele>1767</ele>
        <time>2014-02-16T13:42:07Z</time>
      </trkpt>
      <trkpt lat="42.91122" lon="0.11723">
        <ele>1764</ele>
        <time>2014-02-16T13:42:09Z</time>
      </trkpt>
      <trkpt lat="42.91121" lon="0.1173">
        <ele>1764</ele>
        <time>2014-02-16T13:42:11Z</time>
      </trkpt>
      <trkpt lat="42.91122" lon="0.11733">
        <ele>1763</ele>
        <time>2014-02-16T13:42:25Z</time>
      </trkpt>
      <trkpt lat="42.91121" lon="0.11748">
        <ele>1761</ele>
        <time>2014-02-16T13:42:31Z</time>
      </trkpt>
      <trkpt lat="42.91121" lon="0.11753">
        <ele>1760</ele>
        <time>2014-02-16T13:42:38Z</time>
      </trkpt>
      <trkpt lat="42.91123" lon="0.11787">
        <ele>1756</ele>
        <time>2014-02-16T13:42:47Z</time>
      </trkpt>
      <trkpt lat="42.91125" lon="0.11802">
        <ele>1755</ele>
        <time>2014-02-16T13:42:50Z</time>
      </trkpt>
      <trkpt lat="42.91127" lon="0.11811">
        <ele>1753</ele>
        <time>2014-02-16T13:42:53Z</time>
      </trkpt>
      <trkpt lat="42.91127" lon="0.1184">
        <ele>1749</ele>
        <time>2014-02-16T13:42:59Z</time>
      </trkpt>
      <trkpt lat="42.91129" lon="0.1187">
        <ele>1745</ele>
        <time>2014-02-16T13:43:03Z</time>
      </trkpt>
      <trkpt lat="42.91128" lon="0.1189">
        <ele>1743</ele>
        <time>2014-02-16T13:43:07Z</time>
      </trkpt>
      <trkpt lat="42.91128" lon="0.11895">
        <ele>1743</ele>
        <time>2014-02-16T13:43:17Z</time>
      </trkpt>
      <trkpt lat="42.91109" lon="0.11905">
        <ele>1739</ele>
        <time>2014-02-16T13:43:24Z</time>
      </trkpt>
      <trkpt lat="42.91098" lon="0.11907">
        <ele>1737</ele>
        <time>2014-02-16T13:43:28Z</time>
      </trkpt>
      <trkpt lat="42.91093" lon="0.11898">
        <ele>1735</ele>
        <time>2014-02-16T13:43:36Z</time>
      </trkpt>
      <trkpt lat="42.91093" lon="0.11898">
        <ele>1735</ele>
        <time>2014-02-16T13:43:44Z</time>
      </trkpt>
      <trkpt lat="42.9108" lon="0.11891">
        <ele>1731</ele>
        <time>2014-02-16T13:43:50Z</time>
      </trkpt>
      <trkpt lat="42.91055" lon="0.11882">
        <ele>1729</ele>
        <time>2014-02-16T13:43:57Z</time>
      </trkpt>
      <trkpt lat="42.91048" lon="0.11881">
        <ele>1728</ele>
        <time>2014-02-16T13:43:58Z</time>
      </trkpt>
      <trkpt lat="42.91026" lon="0.11863">
        <ele>1723</ele>
        <time>2014-02-16T13:44:02Z</time>
      </trkpt>
      <trkpt lat="42.91012" lon="0.11841">
        <ele>1719</ele>
        <time>2014-02-16T13:44:05Z</time>
      </trkpt>
      <trkpt lat="42.91002" lon="0.11822">
        <ele>1717</ele>
        <time>2014-02-16T13:44:08Z</time>
      </trkpt>
      <trkpt lat="42.90994" lon="0.11807">
        <ele>1715</ele>
        <time>2014-02-16T13:44:13Z</time>
      </trkpt>
      <trkpt lat="42.90984" lon="0.11795">
        <ele>1714</ele>
        <time>2014-02-16T13:44:24Z</time>
      </trkpt>
      <trkpt lat="42.90974" lon="0.11791">
        <ele>1712</ele>
        <time>2014-02-16T13:44:29Z</time>
      </trkpt>
      <trkpt lat="42.90942" lon="0.11769">
        <ele>1708</ele>
        <time>2014-02-16T13:44:39Z</time>
      </trkpt>
      <trkpt lat="42.90921" lon="0.11763">
        <ele>1706</ele>
        <time>2014-02-16T13:44:43Z</time>
      </trkpt>
      <trkpt lat="42.90906" lon="0.1176">
        <ele>1703</ele>
        <time>2014-02-16T13:44:47Z</time>
      </trkpt>
      <trkpt lat="42.90894" lon="0.1175">
        <ele>1701</ele>
        <time>2014-02-16T13:44:52Z</time>
      </trkpt>
      <trkpt lat="42.90887" lon="0.11745">
        <ele>1700</ele>
        <time>2014-02-16T13:44:54Z</time>
      </trkpt>
      <trkpt lat="42.90878" lon="0.11743">
        <ele>1698</ele>
        <time>2014-02-16T13:45:01Z</time>
      </trkpt>
      <trkpt lat="42.90879" lon="0.11742">
        <ele>1698</ele>
        <time>2014-02-16T13:45:11Z</time>
      </trkpt>
      <trkpt lat="42.90875" lon="0.11735">
        <ele>1696</ele>
        <time>2014-02-16T13:45:15Z</time>
      </trkpt>
      <trkpt lat="42.90876" lon="0.11724">
        <ele>1693</ele>
        <time>2014-02-16T13:45:21Z</time>
      </trkpt>
      <trkpt lat="42.90875" lon="0.11725">
        <ele>1693</ele>
        <time>2014-02-16T13:45:22Z</time>
      </trkpt>
      <trkpt lat="42.90865" lon="0.11731">
        <ele>1689</ele>
        <time>2014-02-16T13:45:27Z</time>
      </trkpt>
      <trkpt lat="42.90859" lon="0.1174">
        <ele>1685</ele>
        <time>2014-02-16T13:45:31Z</time>
      </trkpt>
      <trkpt lat="42.90857" lon="0.11744">
        <ele>1684</ele>
        <time>2014-02-16T13:45:33Z</time>
      </trkpt>
      <trkpt lat="42.90848" lon="0.11761">
        <ele>1681</ele>
        <time>2014-02-16T13:45:39Z</time>
      </trkpt>
      <trkpt lat="42.90847" lon="0.11763">
        <ele>1681</ele>
        <time>2014-02-16T13:45:50Z</time>
      </trkpt>
      <trkpt lat="42.90843" lon="0.11757">
        <ele>1678</ele>
        <time>2014-02-16T13:45:55Z</time>
      </trkpt>
      <trkpt lat="42.90844" lon="0.11751">
        <ele>1677</ele>
        <time>2014-02-16T13:45:57Z</time>
      </trkpt>
      <trkpt lat="42.90836" lon="0.11755">
        <ele>1675</ele>
        <time>2014-02-16T13:46:01Z</time>
      </trkpt>
      <trkpt lat="42.9083" lon="0.11741">
        <ele>1670</ele>
        <time>2014-02-16T13:46:06Z</time>
      </trkpt>
      <trkpt lat="42.90829" lon="0.11742">
        <ele>1669</ele>
        <time>2014-02-16T13:46:07Z</time>
      </trkpt>
      <trkpt lat="42.90822" lon="0.11734">
        <ele>1665</ele>
        <time>2014-02-16T13:46:11Z</time>
      </trkpt>
      <trkpt lat="42.90823" lon="0.11727">
        <ele>1665</ele>
        <time>2014-02-16T13:46:14Z</time>
      </trkpt>
      <trkpt lat="42.90817" lon="0.1173">
        <ele>1662</ele>
        <time>2014-02-16T13:46:18Z</time>
      </trkpt>
      <trkpt lat="42.90812" lon="0.11723">
        <ele>1658</ele>
        <time>2014-02-16T13:46:22Z</time>
      </trkpt>
      <trkpt lat="42.90812" lon="0.11715">
        <ele>1657</ele>
        <time>2014-02-16T13:46:24Z</time>
      </trkpt>
      <trkpt lat="42.90803" lon="0.11728">
        <ele>1654</ele>
        <time>2014-02-16T13:46:30Z</time>
      </trkpt>
      <trkpt lat="42.908" lon="0.11727">
        <ele>1653</ele>
        <time>2014-02-16T13:46:31Z</time>
      </trkpt>
      <trkpt lat="42.90798" lon="0.11724">
        <ele>1652</ele>
        <time>2014-02-16T13:46:32Z</time>
      </trkpt>
      <trkpt lat="42.90784" lon="0.11718">
        <ele>1646</ele>
        <time>2014-02-16T13:46:40Z</time>
      </trkpt>
      <trkpt lat="42.90785" lon="0.11712">
        <ele>1645</ele>
        <time>2014-02-16T13:46:42Z</time>
      </trkpt>
      <trkpt lat="42.90784" lon="0.1171">
        <ele>1643</ele>
        <time>2014-02-16T13:46:43Z</time>
      </trkpt>
      <trkpt lat="42.90771" lon="0.11717">
        <ele>1642</ele>
        <time>2014-02-16T13:46:52Z</time>
      </trkpt>
      <trkpt lat="42.90767" lon="0.11722">
        <ele>1641</ele>
        <time>2014-02-16T13:46:55Z</time>
      </trkpt>
      <trkpt lat="42.90768" lon="0.11718">
        <ele>1640</ele>
        <time>2014-02-16T13:46:58Z</time>
      </trkpt>
      <trkpt lat="42.9076" lon="0.11725">
        <ele>1639</ele>
        <time>2014-02-16T13:47:02Z</time>
      </trkpt>
      <trkpt lat="42.90756" lon="0.11727">
        <ele>1639</ele>
        <time>2014-02-16T13:47:09Z</time>
      </trkpt>
      <trkpt lat="42.90753" lon="0.11729">
        <ele>1640</ele>
        <time>2014-02-16T13:47:21Z</time>
      </trkpt>
      <trkpt lat="42.90754" lon="0.11727">
        <ele>1640</ele>
        <time>2014-02-16T13:47:35Z</time>
      </trkpt>
      <trkpt lat="42.90753" lon="0.11724">
        <ele>1639</ele>
        <time>2014-02-16T13:47:39Z</time>
      </trkpt>
      <trkpt lat="42.90754" lon="0.11723">
        <ele>1640</ele>
        <time>2014-02-16T13:47:40Z</time>
      </trkpt>
      <trkpt lat="42.90756" lon="0.11723">
        <ele>1640</ele>
        <time>2014-02-16T13:47:41Z</time>
      </trkpt>
      <trkpt lat="42.90757" lon="0.1172">
        <ele>1639</ele>
        <time>2014-02-16T13:47:42Z</time>
      </trkpt>
      <trkpt lat="42.90758" lon="0.11718">
        <ele>1639</ele>
        <time>2014-02-16T13:47:43Z</time>
      </trkpt>
      <trkpt lat="42.90759" lon="0.11714">
        <ele>1639</ele>
        <time>2014-02-16T13:47:44Z</time>
      </trkpt>
      <trkpt lat="42.9076" lon="0.1171">
        <ele>1639</ele>
        <time>2014-02-16T13:47:45Z</time>
      </trkpt>
      <trkpt lat="42.90761" lon="0.11705">
        <ele>1638</ele>
        <time>2014-02-16T13:47:46Z</time>
      </trkpt>
      <trkpt lat="42.90768" lon="0.11682">
        <ele>1637</ele>
        <time>2014-02-16T13:47:50Z</time>
      </trkpt>
      <trkpt lat="42.90782" lon="0.11649">
        <ele>1635</ele>
        <time>2014-02-16T13:47:55Z</time>
      </trkpt>
      <trkpt lat="42.90789" lon="0.11636">
        <ele>1634</ele>
        <time>2014-02-16T13:47:57Z</time>
      </trkpt>
      <trkpt lat="42.90792" lon="0.11628">
        <ele>1632</ele>
        <time>2014-02-16T13:47:58Z</time>
      </trkpt>
      <trkpt lat="42.90795" lon="0.11622">
        <ele>1632</ele>
        <time>2014-02-16T13:47:59Z</time>
      </trkpt>
      <trkpt lat="42.90798" lon="0.11616">
        <ele>1632</ele>
        <time>2014-02-16T13:48:00Z</time>
      </trkpt>
      <trkpt lat="42.90801" lon="0.11609">
        <ele>1631</ele>
        <time>2014-02-16T13:48:01Z</time>
      </trkpt>
      <trkpt lat="42.90804" lon="0.11603">
        <ele>1631</ele>
        <time>2014-02-16T13:48:02Z</time>
      </trkpt>
      <trkpt lat="42.90807" lon="0.11597">
        <ele>1630</ele>
        <time>2014-02-16T13:48:03Z</time>
      </trkpt>
      <trkpt lat="42.9081" lon="0.11592">
        <ele>1630</ele>
        <time>2014-02-16T13:48:04Z</time>
      </trkpt>
      <trkpt lat="42.90813" lon="0.11587">
        <ele>1630</ele>
        <time>2014-02-16T13:48:05Z</time>
      </trkpt>
      <trkpt lat="42.90815" lon="0.11581">
        <ele>1629</ele>
        <time>2014-02-16T13:48:06Z</time>
      </trkpt>
      <trkpt lat="42.90815" lon="0.11576">
        <ele>1628</ele>
        <time>2014-02-16T13:48:07Z</time>
      </trkpt>
      <trkpt lat="42.90813" lon="0.11573">
        <ele>1628</ele>
        <time>2014-02-16T13:48:08Z</time>
      </trkpt>
      <trkpt lat="42.9081" lon="0.1157">
        <ele>1628</ele>
        <time>2014-02-16T13:48:09Z</time>
      </trkpt>
      <trkpt lat="42.90805" lon="0.11569">
        <ele>1627</ele>
        <time>2014-02-16T13:48:10Z</time>
      </trkpt>
      <trkpt lat="42.90799" lon="0.1157">
        <ele>1627</ele>
        <time>2014-02-16T13:48:11Z</time>
      </trkpt>
      <trkpt lat="42.90792" lon="0.11573">
        <ele>1625</ele>
        <time>2014-02-16T13:48:12Z</time>
      </trkpt>
      <trkpt lat="42.90786" lon="0.11577">
        <ele>1625</ele>
        <time>2014-02-16T13:48:13Z</time>
      </trkpt>
      <trkpt lat="42.9078" lon="0.11581">
        <ele>1625</ele>
        <time>2014-02-16T13:48:14Z</time>
      </trkpt>
      <trkpt lat="42.90774" lon="0.11585">
        <ele>1624</ele>
        <time>2014-02-16T13:48:15Z</time>
      </trkpt>
      <trkpt lat="42.9077" lon="0.11587">
        <ele>1623</ele>
        <time>2014-02-16T13:48:16Z</time>
      </trkpt>
      <trkpt lat="42.90766" lon="0.11591">
        <ele>1623</ele>
        <time>2014-02-16T13:48:17Z</time>
      </trkpt>
      <trkpt lat="42.90763" lon="0.11596">
        <ele>1622</ele>
        <time>2014-02-16T13:48:18Z</time>
      </trkpt>
      <trkpt lat="42.90759" lon="0.116">
        <ele>1621</ele>
        <time>2014-02-16T13:48:19Z</time>
      </trkpt>
      <trkpt lat="42.90742" lon="0.11618">
        <ele>1620</ele>
        <time>2014-02-16T13:48:24Z</time>
      </trkpt>
      <trkpt lat="42.90737" lon="0.11621">
        <ele>1620</ele>
        <time>2014-02-16T13:48:25Z</time>
      </trkpt>
      <trkpt lat="42.90733" lon="0.1162">
        <ele>1619</ele>
        <time>2014-02-16T13:48:26Z</time>
      </trkpt>
      <trkpt lat="42.90726" lon="0.11598">
        <ele>1617</ele>
        <time>2014-02-16T13:48:29Z</time>
      </trkpt>
      <trkpt lat="42.90726" lon="0.11589">
        <ele>1617</ele>
        <time>2014-02-16T13:48:30Z</time>
      </trkpt>
      <trkpt lat="42.90727" lon="0.11579">
        <ele>1616</ele>
        <time>2014-02-16T13:48:31Z</time>
      </trkpt>
      <trkpt lat="42.90728" lon="0.11569">
        <ele>1615</ele>
        <time>2014-02-16T13:48:32Z</time>
      </trkpt>
      <trkpt lat="42.90732" lon="0.11538">
        <ele>1613</ele>
        <time>2014-02-16T13:48:35Z</time>
      </trkpt>
      <trkpt lat="42.90733" lon="0.11529">
        <ele>1612</ele>
        <time>2014-02-16T13:48:36Z</time>
      </trkpt>
      <trkpt lat="42.90734" lon="0.11521">
        <ele>1611</ele>
        <time>2014-02-16T13:48:37Z</time>
      </trkpt>
      <trkpt lat="42.90735" lon="0.11514">
        <ele>1610</ele>
        <time>2014-02-16T13:48:38Z</time>
      </trkpt>
      <trkpt lat="42.90735" lon="0.11508">
        <ele>1611</ele>
        <time>2014-02-16T13:48:39Z</time>
      </trkpt>
      <trkpt lat="42.90736" lon="0.11501">
        <ele>1609</ele>
        <time>2014-02-16T13:48:40Z</time>
      </trkpt>
      <trkpt lat="42.90738" lon="0.11494">
        <ele>1609</ele>
        <time>2014-02-16T13:48:41Z</time>
      </trkpt>
      <trkpt lat="42.90741" lon="0.11464">
        <ele>1607</ele>
        <time>2014-02-16T13:48:45Z</time>
      </trkpt>
      <trkpt lat="42.9074" lon="0.11456">
        <ele>1607</ele>
        <time>2014-02-16T13:48:46Z</time>
      </trkpt>
      <trkpt lat="42.9074" lon="0.11449">
        <ele>1606</ele>
        <time>2014-02-16T13:48:47Z</time>
      </trkpt>
      <trkpt lat="42.90739" lon="0.11433">
        <ele>1605</ele>
        <time>2014-02-16T13:48:49Z</time>
      </trkpt>
      <trkpt lat="42.90739" lon="0.11425">
        <ele>1605</ele>
        <time>2014-02-16T13:48:50Z</time>
      </trkpt>
      <trkpt lat="42.90739" lon="0.11418">
        <ele>1604</ele>
        <time>2014-02-16T13:48:51Z</time>
      </trkpt>
      <trkpt lat="42.90738" lon="0.1141">
        <ele>1604</ele>
        <time>2014-02-16T13:48:52Z</time>
      </trkpt>
      <trkpt lat="42.90738" lon="0.11403">
        <ele>1604</ele>
        <time>2014-02-16T13:48:53Z</time>
      </trkpt>
      <trkpt lat="42.90737" lon="0.11395">
        <ele>1603</ele>
        <time>2014-02-16T13:48:54Z</time>
      </trkpt>
      <trkpt lat="42.90736" lon="0.11387">
        <ele>1602</ele>
        <time>2014-02-16T13:48:55Z</time>
      </trkpt>
      <trkpt lat="42.90736" lon="0.11379">
        <ele>1602</ele>
        <time>2014-02-16T13:48:56Z</time>
      </trkpt>
      <trkpt lat="42.90735" lon="0.11372">
        <ele>1601</ele>
        <time>2014-02-16T13:48:57Z</time>
      </trkpt>
      <trkpt lat="42.90734" lon="0.11363">
        <ele>1601</ele>
        <time>2014-02-16T13:48:58Z</time>
      </trkpt>
      <trkpt lat="42.90732" lon="0.11335">
        <ele>1598</ele>
        <time>2014-02-16T13:49:01Z</time>
      </trkpt>
      <trkpt lat="42.90732" lon="0.11326">
        <ele>1598</ele>
        <time>2014-02-16T13:49:02Z</time>
      </trkpt>
      <trkpt lat="42.90732" lon="0.11318">
        <ele>1597</ele>
        <time>2014-02-16T13:49:03Z</time>
      </trkpt>
      <trkpt lat="42.90732" lon="0.1131">
        <ele>1597</ele>
        <time>2014-02-16T13:49:04Z</time>
      </trkpt>
      <trkpt lat="42.90732" lon="0.11302">
        <ele>1596</ele>
        <time>2014-02-16T13:49:05Z</time>
      </trkpt>
      <trkpt lat="42.90733" lon="0.11294">
        <ele>1595</ele>
        <time>2014-02-16T13:49:06Z</time>
      </trkpt>
      <trkpt lat="42.90733" lon="0.11285">
        <ele>1595</ele>
        <time>2014-02-16T13:49:07Z</time>
      </trkpt>
      <trkpt lat="42.90731" lon="0.11226">
        <ele>1592</ele>
        <time>2014-02-16T13:49:13Z</time>
      </trkpt>
      <trkpt lat="42.9073" lon="0.11216">
        <ele>1592</ele>
        <time>2014-02-16T13:49:14Z</time>
      </trkpt>
      <trkpt lat="42.90728" lon="0.11208">
        <ele>1592</ele>
        <time>2014-02-16T13:49:15Z</time>
      </trkpt>
      <trkpt lat="42.90721" lon="0.11177">
        <ele>1588</ele>
        <time>2014-02-16T13:49:19Z</time>
      </trkpt>
      <trkpt lat="42.90717" lon="0.11163">
        <ele>1587</ele>
        <time>2014-02-16T13:49:21Z</time>
      </trkpt>
      <trkpt lat="42.90704" lon="0.11116">
        <ele>1583</ele>
        <time>2014-02-16T13:49:28Z</time>
      </trkpt>
      <trkpt lat="42.90702" lon="0.11103">
        <ele>1582</ele>
        <time>2014-02-16T13:49:30Z</time>
      </trkpt>
      <trkpt lat="42.907" lon="0.11093">
        <ele>1582</ele>
        <time>2014-02-16T13:49:32Z</time>
      </trkpt>
      <trkpt lat="42.90688" lon="0.11061">
        <ele>1580</ele>
        <time>2014-02-16T13:49:42Z</time>
      </trkpt>
      <trkpt lat="42.90686" lon="0.1105">
        <ele>1580</ele>
        <time>2014-02-16T13:49:45Z</time>
      </trkpt>
      <trkpt lat="42.90676" lon="0.11012">
        <ele>1576</ele>
        <time>2014-02-16T13:49:51Z</time>
      </trkpt>
      <trkpt lat="42.9066" lon="0.10956">
        <ele>1572</ele>
        <time>2014-02-16T13:49:58Z</time>
      </trkpt>
      <trkpt lat="42.90656" lon="0.10947">
        <ele>1571</ele>
        <time>2014-02-16T13:49:59Z</time>
      </trkpt>
      <trkpt lat="42.90652" lon="0.10929">
        <ele>1570</ele>
        <time>2014-02-16T13:50:01Z</time>
      </trkpt>
      <trkpt lat="42.90651" lon="0.10919">
        <ele>1569</ele>
        <time>2014-02-16T13:50:02Z</time>
      </trkpt>
      <trkpt lat="42.9065" lon="0.1091">
        <ele>1568</ele>
        <time>2014-02-16T13:50:03Z</time>
      </trkpt>
      <trkpt lat="42.90648" lon="0.10901">
        <ele>1568</ele>
        <time>2014-02-16T13:50:04Z</time>
      </trkpt>
      <trkpt lat="42.90647" lon="0.10891">
        <ele>1567</ele>
        <time>2014-02-16T13:50:05Z</time>
      </trkpt>
      <trkpt lat="42.90644" lon="0.10858">
        <ele>1565</ele>
        <time>2014-02-16T13:50:08Z</time>
      </trkpt>
      <trkpt lat="42.9064" lon="0.10839">
        <ele>1562</ele>
        <time>2014-02-16T13:50:10Z</time>
      </trkpt>
      <trkpt lat="42.9064" lon="0.1083">
        <ele>1562</ele>
        <time>2014-02-16T13:50:11Z</time>
      </trkpt>
      <trkpt lat="42.9064" lon="0.10821">
        <ele>1562</ele>
        <time>2014-02-16T13:50:12Z</time>
      </trkpt>
      <trkpt lat="42.9064" lon="0.10813">
        <ele>1561</ele>
        <time>2014-02-16T13:50:13Z</time>
      </trkpt>
      <trkpt lat="42.90639" lon="0.10805">
        <ele>1560</ele>
        <time>2014-02-16T13:50:14Z</time>
      </trkpt>
      <trkpt lat="42.90638" lon="0.10797">
        <ele>1560</ele>
        <time>2014-02-16T13:50:15Z</time>
      </trkpt>
      <trkpt lat="42.90638" lon="0.10788">
        <ele>1559</ele>
        <time>2014-02-16T13:50:16Z</time>
      </trkpt>
      <trkpt lat="42.90637" lon="0.10779">
        <ele>1558</ele>
        <time>2014-02-16T13:50:17Z</time>
      </trkpt>
      <trkpt lat="42.90637" lon="0.10769">
        <ele>1557</ele>
        <time>2014-02-16T13:50:18Z</time>
      </trkpt>
      <trkpt lat="42.90636" lon="0.1075">
        <ele>1556</ele>
        <time>2014-02-16T13:50:20Z</time>
      </trkpt>
      <trkpt lat="42.90636" lon="0.10729">
        <ele>1555</ele>
        <time>2014-02-16T13:50:22Z</time>
      </trkpt>
      <trkpt lat="42.90636" lon="0.10707">
        <ele>1553</ele>
        <time>2014-02-16T13:50:24Z</time>
      </trkpt>
      <trkpt lat="42.90635" lon="0.10697">
        <ele>1552</ele>
        <time>2014-02-16T13:50:25Z</time>
      </trkpt>
      <trkpt lat="42.90633" lon="0.10687">
        <ele>1552</ele>
        <time>2014-02-16T13:50:26Z</time>
      </trkpt>
      <trkpt lat="42.90631" lon="0.10678">
        <ele>1551</ele>
        <time>2014-02-16T13:50:27Z</time>
      </trkpt>
      <trkpt lat="42.9063" lon="0.10668">
        <ele>1550</ele>
        <time>2014-02-16T13:50:28Z</time>
      </trkpt>
      <trkpt lat="42.90628" lon="0.1066">
        <ele>1549</ele>
        <time>2014-02-16T13:50:29Z</time>
      </trkpt>
      <trkpt lat="42.90626" lon="0.10651">
        <ele>1548</ele>
        <time>2014-02-16T13:50:30Z</time>
      </trkpt>
      <trkpt lat="42.90625" lon="0.10642">
        <ele>1547</ele>
        <time>2014-02-16T13:50:31Z</time>
      </trkpt>
      <trkpt lat="42.90624" lon="0.10633">
        <ele>1547</ele>
        <time>2014-02-16T13:50:32Z</time>
      </trkpt>
      <trkpt lat="42.90622" lon="0.10625">
        <ele>1546</ele>
        <time>2014-02-16T13:50:33Z</time>
      </trkpt>
      <trkpt lat="42.90621" lon="0.10617">
        <ele>1546</ele>
        <time>2014-02-16T13:50:34Z</time>
      </trkpt>
      <trkpt lat="42.9062" lon="0.106">
        <ele>1544</ele>
        <time>2014-02-16T13:50:36Z</time>
      </trkpt>
      <trkpt lat="42.9062" lon="0.10592">
        <ele>1544</ele>
        <time>2014-02-16T13:50:37Z</time>
      </trkpt>
      <trkpt lat="42.90622" lon="0.10574">
        <ele>1543</ele>
        <time>2014-02-16T13:50:39Z</time>
      </trkpt>
      <trkpt lat="42.90623" lon="0.10565">
        <ele>1542</ele>
        <time>2014-02-16T13:50:40Z</time>
      </trkpt>
      <trkpt lat="42.90625" lon="0.10557">
        <ele>1542</ele>
        <time>2014-02-16T13:50:41Z</time>
      </trkpt>
      <trkpt lat="42.90632" lon="0.10525">
        <ele>1540</ele>
        <time>2014-02-16T13:50:45Z</time>
      </trkpt>
      <trkpt lat="42.90632" lon="0.10516">
        <ele>1540</ele>
        <time>2014-02-16T13:50:46Z</time>
      </trkpt>
      <trkpt lat="42.90632" lon="0.10507">
        <ele>1538</ele>
        <time>2014-02-16T13:50:47Z</time>
      </trkpt>
      <trkpt lat="42.90632" lon="0.10497">
        <ele>1538</ele>
        <time>2014-02-16T13:50:48Z</time>
      </trkpt>
      <trkpt lat="42.90632" lon="0.10488">
        <ele>1537</ele>
        <time>2014-02-16T13:50:49Z</time>
      </trkpt>
      <trkpt lat="42.90631" lon="0.10478">
        <ele>1537</ele>
        <time>2014-02-16T13:50:50Z</time>
      </trkpt>
      <trkpt lat="42.90631" lon="0.10468">
        <ele>1536</ele>
        <time>2014-02-16T13:50:51Z</time>
      </trkpt>
      <trkpt lat="42.90632" lon="0.10458">
        <ele>1536</ele>
        <time>2014-02-16T13:50:52Z</time>
      </trkpt>
      <trkpt lat="42.90636" lon="0.10427">
        <ele>1534</ele>
        <time>2014-02-16T13:50:55Z</time>
      </trkpt>
      <trkpt lat="42.90642" lon="0.10389">
        <ele>1532</ele>
        <time>2014-02-16T13:50:59Z</time>
      </trkpt>
      <trkpt lat="42.90643" lon="0.1038">
        <ele>1532</ele>
        <time>2014-02-16T13:51:00Z</time>
      </trkpt>
      <trkpt lat="42.90644" lon="0.10371">
        <ele>1531</ele>
        <time>2014-02-16T13:51:01Z</time>
      </trkpt>
      <trkpt lat="42.90646" lon="0.10345">
        <ele>1528</ele>
        <time>2014-02-16T13:51:04Z</time>
      </trkpt>
      <trkpt lat="42.90647" lon="0.10335">
        <ele>1528</ele>
        <time>2014-02-16T13:51:05Z</time>
      </trkpt>
      <trkpt lat="42.90647" lon="0.10326">
        <ele>1527</ele>
        <time>2014-02-16T13:51:06Z</time>
      </trkpt>
      <trkpt lat="42.90647" lon="0.10318">
        <ele>1526</ele>
        <time>2014-02-16T13:51:07Z</time>
      </trkpt>
      <trkpt lat="42.90648" lon="0.1031">
        <ele>1526</ele>
        <time>2014-02-16T13:51:08Z</time>
      </trkpt>
      <trkpt lat="42.90649" lon="0.10302">
        <ele>1526</ele>
        <time>2014-02-16T13:51:09Z</time>
      </trkpt>
      <trkpt lat="42.9065" lon="0.10293">
        <ele>1525</ele>
        <time>2014-02-16T13:51:10Z</time>
      </trkpt>
      <trkpt lat="42.90651" lon="0.10284">
        <ele>1524</ele>
        <time>2014-02-16T13:51:11Z</time>
      </trkpt>
      <trkpt lat="42.90655" lon="0.10246">
        <ele>1522</ele>
        <time>2014-02-16T13:51:15Z</time>
      </trkpt>
      <trkpt lat="42.90656" lon="0.10237">
        <ele>1521</ele>
        <time>2014-02-16T13:51:16Z</time>
      </trkpt>
      <trkpt lat="42.90657" lon="0.10229">
        <ele>1521</ele>
        <time>2014-02-16T13:51:17Z</time>
      </trkpt>
      <trkpt lat="42.90659" lon="0.10215">
        <ele>1519</ele>
        <time>2014-02-16T13:51:19Z</time>
      </trkpt>
      <trkpt lat="42.90658" lon="0.1021">
        <ele>1519</ele>
        <time>2014-02-16T13:51:20Z</time>
      </trkpt>
      <trkpt lat="42.90655" lon="0.10207">
        <ele>1518</ele>
        <time>2014-02-16T13:51:21Z</time>
      </trkpt>
      <trkpt lat="42.90651" lon="0.10206">
        <ele>1517</ele>
        <time>2014-02-16T13:51:22Z</time>
      </trkpt>
      <trkpt lat="42.90648" lon="0.10207">
        <ele>1515</ele>
        <time>2014-02-16T13:51:23Z</time>
      </trkpt>
      <trkpt lat="42.90645" lon="0.10209">
        <ele>1515</ele>
        <time>2014-02-16T13:51:24Z</time>
      </trkpt>
      <trkpt lat="42.90642" lon="0.10212">
        <ele>1515</ele>
        <time>2014-02-16T13:51:25Z</time>
      </trkpt>
      <trkpt lat="42.9064" lon="0.10217">
        <ele>1514</ele>
        <time>2014-02-16T13:51:26Z</time>
      </trkpt>
      <trkpt lat="42.90639" lon="0.10221">
        <ele>1514</ele>
        <time>2014-02-16T13:51:27Z</time>
      </trkpt>
      <trkpt lat="42.90638" lon="0.10226">
        <ele>1514</ele>
        <time>2014-02-16T13:51:28Z</time>
      </trkpt>
      <trkpt lat="42.90628" lon="0.1027">
        <ele>1512</ele>
        <time>2014-02-16T13:51:38Z</time>
      </trkpt>
      <trkpt lat="42.90616" lon="0.10301">
        <ele>1510</ele>
        <time>2014-02-16T13:51:44Z</time>
      </trkpt>
      <trkpt lat="42.90597" lon="0.10353">
        <ele>1507</ele>
        <time>2014-02-16T13:51:53Z</time>
      </trkpt>
      <trkpt lat="42.90583" lon="0.10388">
        <ele>1505</ele>
        <time>2014-02-16T13:51:59Z</time>
      </trkpt>
      <trkpt lat="42.90564" lon="0.10428">
        <ele>1502</ele>
        <time>2014-02-16T13:52:06Z</time>
      </trkpt>
      <trkpt lat="42.90558" lon="0.10437">
        <ele>1501</ele>
        <time>2014-02-16T13:52:08Z</time>
      </trkpt>
      <trkpt lat="42.90552" lon="0.10448">
        <ele>1499</ele>
        <time>2014-02-16T13:52:11Z</time>
      </trkpt>
      <trkpt lat="42.90538" lon="0.10464">
        <ele>1498</ele>
        <time>2014-02-16T13:52:20Z</time>
      </trkpt>
      <trkpt lat="42.90532" lon="0.10469">
        <ele>1497</ele>
        <time>2014-02-16T13:52:26Z</time>
      </trkpt>
      <trkpt lat="42.90532" lon="0.10469">
        <ele>1497</ele>
        <time>2014-02-16T13:52:38Z</time>
      </trkpt>
      <trkpt lat="42.90533" lon="0.10468">
        <ele>1497</ele>
        <time>2014-02-16T13:52:58Z</time>
      </trkpt>
      <trkpt lat="42.90531" lon="0.1047">
        <ele>1497</ele>
        <time>2014-02-16T13:53:16Z</time>
      </trkpt>
      <trkpt lat="42.9053" lon="0.10467">
        <ele>1497</ele>
        <time>2014-02-16T13:53:31Z</time>
      </trkpt>
      <trkpt lat="42.9053" lon="0.10466">
        <ele>1497</ele>
        <time>2014-02-16T13:53:48Z</time>
      </trkpt>
      <trkpt lat="42.90529" lon="0.10468">
        <ele>1497</ele>
        <time>2014-02-16T13:54:01Z</time>
      </trkpt>
      <trkpt lat="42.90529" lon="0.10468">
        <ele>1498</ele>
        <time>2014-02-16T13:54:20Z</time>
      </trkpt>
      <trkpt lat="42.90528" lon="0.10467">
        <ele>1497</ele>
        <time>2014-02-16T13:54:25Z</time>
      </trkpt>
      <trkpt lat="42.90525" lon="0.10464">
        <ele>1497</ele>
        <time>2014-02-16T13:54:36Z</time>
      </trkpt>
      <trkpt lat="42.90525" lon="0.10462">
        <ele>1496</ele>
        <time>2014-02-16T13:54:38Z</time>
      </trkpt>
      <trkpt lat="42.90525" lon="0.10461">
        <ele>1496</ele>
        <time>2014-02-16T13:54:39Z</time>
      </trkpt>
      <trkpt lat="42.90524" lon="0.1046">
        <ele>1496</ele>
        <time>2014-02-16T13:54:40Z</time>
      </trkpt>
      <trkpt lat="42.90524" lon="0.10459">
        <ele>1496</ele>
        <time>2014-02-16T13:54:41Z</time>
      </trkpt>
      <trkpt lat="42.90523" lon="0.10457">
        <ele>1496</ele>
        <time>2014-02-16T13:54:42Z</time>
      </trkpt>
      <trkpt lat="42.90521" lon="0.10446">
        <ele>1495</ele>
        <time>2014-02-16T13:54:55Z</time>
      </trkpt>
      <trkpt lat="42.90522" lon="0.10443">
        <ele>1494</ele>
        <time>2014-02-16T13:54:58Z</time>
      </trkpt>
      <trkpt lat="42.90523" lon="0.10441">
        <ele>1494</ele>
        <time>2014-02-16T13:54:59Z</time>
      </trkpt>
      <trkpt lat="42.90524" lon="0.1044">
        <ele>1495</ele>
        <time>2014-02-16T13:55:00Z</time>
      </trkpt>
      <trkpt lat="42.90534" lon="0.10426">
        <ele>1494</ele>
        <time>2014-02-16T13:55:13Z</time>
      </trkpt>
      <trkpt lat="42.90538" lon="0.10418">
        <ele>1493</ele>
        <time>2014-02-16T13:55:19Z</time>
      </trkpt>
      <trkpt lat="42.90541" lon="0.10412">
        <ele>1493</ele>
        <time>2014-02-16T13:55:26Z</time>
      </trkpt>
      <trkpt lat="42.90542" lon="0.10411">
        <ele>1493</ele>
        <time>2014-02-16T13:55:27Z</time>
      </trkpt>
      <trkpt lat="42.90543" lon="0.10409">
        <ele>1493</ele>
        <time>2014-02-16T13:55:28Z</time>
      </trkpt>
      <trkpt lat="42.90543" lon="0.10408">
        <ele>1494</ele>
        <time>2014-02-16T13:55:29Z</time>
      </trkpt>
      <trkpt lat="42.90545" lon="0.10405">
        <ele>1493</ele>
        <time>2014-02-16T13:55:32Z</time>
      </trkpt>
      <trkpt lat="42.90546" lon="0.10403">
        <ele>1494</ele>
        <time>2014-02-16T13:55:33Z</time>
      </trkpt>
      <trkpt lat="42.90548" lon="0.10397">
        <ele>1493</ele>
        <time>2014-02-16T13:55:37Z</time>
      </trkpt>
      <trkpt lat="42.90548" lon="0.10395">
        <ele>1493</ele>
        <time>2014-02-16T13:55:38Z</time>
      </trkpt>
      <trkpt lat="42.90549" lon="0.10394">
        <ele>1492</ele>
        <time>2014-02-16T13:55:39Z</time>
      </trkpt>
      <trkpt lat="42.90549" lon="0.10392">
        <ele>1492</ele>
        <time>2014-02-16T13:55:40Z</time>
      </trkpt>
      <trkpt lat="42.9055" lon="0.1039">
        <ele>1492</ele>
        <time>2014-02-16T13:55:41Z</time>
      </trkpt>
      <trkpt lat="42.9055" lon="0.10388">
        <ele>1492</ele>
        <time>2014-02-16T13:55:42Z</time>
      </trkpt>
      <trkpt lat="42.90555" lon="0.10367">
        <ele>1491</ele>
        <time>2014-02-16T13:55:56Z</time>
      </trkpt>
      <trkpt lat="42.90556" lon="0.10367">
        <ele>1491</ele>
        <time>2014-02-16T13:56:14Z</time>
      </trkpt>
      <trkpt lat="42.90559" lon="0.10366">
        <ele>1491</ele>
        <time>2014-02-16T13:56:33Z</time>
      </trkpt>
      <trkpt lat="42.90556" lon="0.10365">
        <ele>1491</ele>
        <time>2014-02-16T13:57:01Z</time>
      </trkpt>
      <trkpt lat="42.90557" lon="0.10352">
        <ele>1490</ele>
        <time>2014-02-16T13:57:15Z</time>
      </trkpt>
      <trkpt lat="42.90554" lon="0.1035">
        <ele>1491</ele>
        <time>2014-02-16T13:57:24Z</time>
      </trkpt>
      <trkpt lat="42.90553" lon="0.10349">
        <ele>1490</ele>
        <time>2014-02-16T13:57:35Z</time>
      </trkpt>
      <trkpt lat="42.90555" lon="0.10348">
        <ele>1490</ele>
        <time>2014-02-16T13:57:57Z</time>
      </trkpt>
      <trkpt lat="42.90555" lon="0.10347">
        <ele>1490</ele>
        <time>2014-02-16T13:58:15Z</time>
      </trkpt>
      <trkpt lat="42.90556" lon="0.10346">
        <ele>1490</ele>
        <time>2014-02-16T13:58:37Z</time>
      </trkpt>
      <trkpt lat="42.90552" lon="0.10346">
        <ele>1490</ele>
        <time>2014-02-16T13:59:05Z</time>
      </trkpt>
      <trkpt lat="42.90551" lon="0.10346">
        <ele>1490</ele>
        <time>2014-02-16T13:59:37Z</time>
      </trkpt>
      <trkpt lat="42.90554" lon="0.10347">
        <ele>1490</ele>
        <time>2014-02-16T14:00:06Z</time>
      </trkpt>
      <trkpt lat="42.90554" lon="0.10346">
        <ele>1490</ele>
        <time>2014-02-16T14:00:37Z</time>
      </trkpt>
      <trkpt lat="42.90553" lon="0.10347">
        <ele>1490</ele>
        <time>2014-02-16T14:01:10Z</time>
      </trkpt>
      <trkpt lat="42.90552" lon="0.10348">
        <ele>1490</ele>
        <time>2014-02-16T14:01:41Z</time>
      </trkpt>
      <trkpt lat="42.90551" lon="0.10348">
        <ele>1490</ele>
        <time>2014-02-16T14:02:17Z</time>
      </trkpt>
      <trkpt lat="42.90552" lon="0.10348">
        <ele>1490</ele>
        <time>2014-02-16T14:02:54Z</time>
      </trkpt>
      <trkpt lat="42.90553" lon="0.10348">
        <ele>1490</ele>
        <time>2014-02-16T14:03:29Z</time>
      </trkpt>
      <trkpt lat="42.90553" lon="0.10347">
        <ele>1491</ele>
        <time>2014-02-16T14:03:58Z</time>
      </trkpt>
      <trkpt lat="42.90554" lon="0.10348">
        <ele>1491</ele>
        <time>2014-02-16T14:04:27Z</time>
      </trkpt>
      <trkpt lat="42.90554" lon="0.10348">
        <ele>1490</ele>
        <time>2014-02-16T14:05:00Z</time>
      </trkpt>
      <trkpt lat="42.90553" lon="0.10351">
        <ele>1491</ele>
        <time>2014-02-16T14:05:23Z</time>
      </trkpt>
      <trkpt lat="42.90552" lon="0.1035">
        <ele>1491</ele>
        <time>2014-02-16T14:05:54Z</time>
      </trkpt>
      <trkpt lat="42.90552" lon="0.10348">
        <ele>1491</ele>
        <time>2014-02-16T14:06:25Z</time>
      </trkpt>
      <trkpt lat="42.90553" lon="0.10348">
        <ele>1491</ele>
        <time>2014-02-16T14:06:52Z</time>
      </trkpt>
      <trkpt lat="42.90552" lon="0.1035">
        <ele>1491</ele>
        <time>2014-02-16T14:07:26Z</time>
      </trkpt>
      <trkpt lat="42.90553" lon="0.1035">
        <ele>1491</ele>
        <time>2014-02-16T14:07:55Z</time>
      </trkpt>
      <trkpt lat="42.90554" lon="0.1035">
        <ele>1491</ele>
        <time>2014-02-16T14:08:23Z</time>
      </trkpt>
      <trkpt lat="42.90554" lon="0.10346">
        <ele>1492</ele>
        <time>2014-02-16T14:08:59Z</time>
      </trkpt>
      <trkpt lat="42.90553" lon="0.10347">
        <ele>1492</ele>
        <time>2014-02-16T14:09:31Z</time>
      </trkpt>
      <trkpt lat="42.90552" lon="0.10349">
        <ele>1492</ele>
        <time>2014-02-16T14:10:08Z</time>
      </trkpt>
      <trkpt lat="42.90552" lon="0.10349">
        <ele>1493</ele>
        <time>2014-02-16T14:10:28Z</time>
      </trkpt>
      <trkpt lat="42.90552" lon="0.1035">
        <ele>1492</ele>
        <time>2014-02-16T14:10:50Z</time>
      </trkpt>
      <trkpt lat="42.90552" lon="0.1035">
        <ele>1491</ele>
        <time>2014-02-16T14:10:51Z</time>
      </trkpt>
    </trkseg>
  </trk>
</gpx>